Osage River (Missouri), Taberville (06918250)

StateMissouriLatestPoor (854 cfs)
RiverOsage RiverRatingObservedEstimated
Updated2020-08-07 11:45 (44 minutes ago)Flood - The river is flooding. Obstacles can be treacherous or deadly. The river should be avoided at this stage for casual trips and definitely for the inexperienced. Trips should be attempted only with protective gear and equipment.Flood(none)38403
Discharge854 cfs (median: 154 cfs)High - The river is high and potentially dangerous, especially for the young and / or inexperienced. Normal stream obstacles are sometimes difficult to navigate. Extended distances can be attempted, but canoe travel may not be advisable.High(none)7197
Height11.67 feetGood - Conditions are ideal for a canoe or kayak. Boats typically will drag on fewer than one-quarter of riffles, if at all, and portages are unnecessary or rare. Normal float lengths can be attempted without a problem.Good(none)4305
TrendRising (falling over 24 hours)Low - River is low but can still be floated. Some riffles are okay but most come with significant dragging and might need a portage. Float lengths should be reduced to accommodate low flow, dragging, and portages.Low(none)1188
USGSExternal icon USGS Site (External icon Google Maps)Poor - River is too low to float comfortably. Most or all riffles will drag or must be portaged and some obstacles (such as slick shelf rock) cause undue problems. Avoid the river at this stage for casual paddling trips.Poor(none)50

Trending Data

Plot Image

Trips for Osage River (Missouri), Taberville (06918250)

DateStartEndDistanceConditionDischargeHeightFishingDetails

A total of 0 rows are displayed.

Condition Descriptions

Fishing Conditions

Fish Species

Notes

Classic Trip List

The classic River Trips application is still available for use. It is updated with the new system using a data retrofit. It is no longer maintained. The original River Trips application is no longer updated (as of 1 Dec 2016) but can be checked for errors or for the condition of the data before it was converted to the new system.

Gauge Data Table

ObservationHeightDischargeMaximum
Discharge
Minimum
Discharge
Mean
Discharge
P05P10P20P25P50
(Median)
P75P80P90P95
2020-08-07 11:45 11.67 854 19000 (2019) 50 (2011) 4190 50 50 50 154 8810 13700 19000
2020-08-07 10:45 11.66 848 19000 (2019) 50 (2011) 4190 50 50 50 154 8810 13700 19000
2020-08-07 09:45 11.69 865 19000 (2019) 50 (2011) 4190 50 50 50 154 8810 13700 19000
2020-08-07 08:45 11.68 859 19000 (2019) 50 (2011) 4190 50 50 50 154 8810 13700 19000
2020-08-07 07:45 11.69 865 19000 (2019) 50 (2011) 4190 50 50 50 154 8810 13700 19000
2020-08-07 06:45 11.66 848 19000 (2019) 50 (2011) 4190 50 50 50 154 8810 13700 19000
2020-08-07 05:45 11.64 836 19000 (2019) 50 (2011) 4190 50 50 50 154 8810 13700 19000
2020-08-07 04:45 11.57 796 19000 (2019) 50 (2011) 4190 50 50 50 154 8810 13700 19000
2020-08-07 03:45 11.59 807 19000 (2019) 50 (2011) 4190 50 50 50 154 8810 13700 19000
2020-08-07 02:45 11.60 813 19000 (2019) 50 (2011) 4190 50 50 50 154 8810 13700 19000
2020-08-07 01:45 11.62 824 19000 (2019) 50 (2011) 4190 50 50 50 154 8810 13700 19000
2020-08-07 00:45 11.65 842 19000 (2019) 50 (2011) 4190 50 50 50 154 8810 13700 19000
2020-08-06 23:45 11.69 865 19600 (2019) 50 (2011) 3800 50 50 50 281 6660 12600 19600
2020-08-06 22:45 11.75 902 19600 (2019) 50 (2011) 3800 50 50 50 281 6660 12600 19600
2020-08-06 21:45 11.80 933 19600 (2019) 50 (2011) 3800 50 50 50 281 6660 12600 19600
2020-08-06 20:45 11.86 971 19600 (2019) 50 (2011) 3800 50 50 50 281 6660 12600 19600
2020-08-06 19:45 11.92 1010 19600 (2019) 50 (2011) 3800 50 50 50 281 6660 12600 19600
2020-08-06 18:45 11.95 1030 19600 (2019) 50 (2011) 3800 50 50 50 281 6660 12600 19600
2020-08-06 17:45 12.00 1060 19600 (2019) 50 (2011) 3800 50 50 50 281 6660 12600 19600
2020-08-06 16:45 12.05 1100 19600 (2019) 50 (2011) 3800 50 50 50 281 6660 12600 19600
2020-08-06 15:45 12.07 1110 19600 (2019) 50 (2011) 3800 50 50 50 281 6660 12600 19600
2020-08-06 14:45 12.09 1130 19600 (2019) 50 (2011) 3800 50 50 50 281 6660 12600 19600
2020-08-06 13:45 12.13 1160 19600 (2019) 50 (2011) 3800 50 50 50 281 6660 12600 19600
2020-08-06 12:45 12.16 1180 19600 (2019) 50 (2011) 3800 50 50 50 281 6660 12600 19600
2020-08-06 11:45 12.24 1240 19600 (2019) 50 (2011) 3800 50 50 50 281 6660 12600 19600
2020-08-06 10:45 12.26 1250 19600 (2019) 50 (2011) 3800 50 50 50 281 6660 12600 19600
2020-08-06 09:45 12.24 1240 19600 (2019) 50 (2011) 3800 50 50 50 281 6660 12600 19600
2020-08-06 08:45 12.27 1260 19600 (2019) 50 (2011) 3800 50 50 50 281 6660 12600 19600
2020-08-06 07:45 12.30 1280 19600 (2019) 50 (2011) 3800 50 50 50 281 6660 12600 19600
2020-08-06 06:45 12.30 1280 19600 (2019) 50 (2011) 3800 50 50 50 281 6660 12600 19600
2020-08-06 05:45 12.28 1270 19600 (2019) 50 (2011) 3800 50 50 50 281 6660 12600 19600
2020-08-06 04:45 12.26 1250 19600 (2019) 50 (2011) 3800 50 50 50 281 6660 12600 19600
2020-08-06 03:45 12.24 1240 19600 (2019) 50 (2011) 3800 50 50 50 281 6660 12600 19600
2020-08-06 02:45 12.21 1210 19600 (2019) 50 (2011) 3800 50 50 50 281 6660 12600 19600
2020-08-06 01:45 12.18 1190 19600 (2019) 50 (2011) 3800 50 50 50 281 6660 12600 19600
2020-08-06 00:45 12.17 1180 19600 (2019) 50 (2011) 3800 50 50 50 281 6660 12600 19600
2020-08-05 23:45 12.21 1210 18900 (2019) 50 (2011) 3510 50 50 50 280 5960 11500 18900
2020-08-05 22:45 12.26 1250 18900 (2019) 50 (2011) 3510 50 50 50 280 5960 11500 18900
2020-08-05 21:45 12.33 1310 18900 (2019) 50 (2011) 3510 50 50 50 280 5960 11500 18900
2020-08-05 20:45 12.39 1350 18900 (2019) 50 (2011) 3510 50 50 50 280 5960 11500 18900
2020-08-05 19:45 12.47 1420 18900 (2019) 50 (2011) 3510 50 50 50 280 5960 11500 18900
2020-08-05 18:45 12.48 1420 18900 (2019) 50 (2011) 3510 50 50 50 280 5960 11500 18900
2020-08-05 17:45 12.50 1440 18900 (2019) 50 (2011) 3510 50 50 50 280 5960 11500 18900
2020-08-05 16:45 12.50 1440 18900 (2019) 50 (2011) 3510 50 50 50 280 5960 11500 18900
2020-08-05 15:45 12.50 1440 18900 (2019) 50 (2011) 3510 50 50 50 280 5960 11500 18900
2020-08-05 14:45 12.51 1450 18900 (2019) 50 (2011) 3510 50 50 50 280 5960 11500 18900
2020-08-05 13:45 12.54 1470 18900 (2019) 50 (2011) 3510 50 50 50 280 5960 11500 18900
2020-08-05 12:45 12.55 1480 18900 (2019) 50 (2011) 3510 50 50 50 280 5960 11500 18900
2020-08-05 11:45 12.58 1510 18900 (2019) 50 (2011) 3510 50 50 50 280 5960 11500 18900
2020-08-05 10:45 12.60 1520 18900 (2019) 50 (2011) 3510 50 50 50 280 5960 11500 18900
2020-08-05 09:45 12.63 1550 18900 (2019) 50 (2011) 3510 50 50 50 280 5960 11500 18900
2020-08-05 08:45 12.67 1580 18900 (2019) 50 (2011) 3510 50 50 50 280 5960 11500 18900
2020-08-05 07:45 12.68 1590 18900 (2019) 50 (2011) 3510 50 50 50 280 5960 11500 18900
2020-08-05 06:45 12.67 1580 18900 (2019) 50 (2011) 3510 50 50 50 280 5960 11500 18900
2020-08-05 05:45 12.66 1580 18900 (2019) 50 (2011) 3510 50 50 50 280 5960 11500 18900
2020-08-05 04:45 12.64 1560 18900 (2019) 50 (2011) 3510 50 50 50 280 5960 11500 18900
2020-08-05 03:45 12.63 1550 18900 (2019) 50 (2011) 3510 50 50 50 280 5960 11500 18900
2020-08-05 02:45 12.61 1530 18900 (2019) 50 (2011) 3510 50 50 50 280 5960 11500 18900
2020-08-05 01:45 12.60 1520 18900 (2019) 50 (2011) 3510 50 50 50 280 5960 11500 18900
2020-08-05 00:45 12.59 1520 18900 (2019) 50 (2011) 3510 50 50 50 280 5960 11500 18900
2020-08-04 23:45 12.61 1530 16700 (2019) 50 (2011) 2830 50 50 50 407 3830 7220 16700
2020-08-04 22:45 12.66 1580 16700 (2019) 50 (2011) 2830 50 50 50 407 3830 7220 16700
2020-08-04 21:45 12.71 1620 16700 (2019) 50 (2011) 2830 50 50 50 407 3830 7220 16700
2020-08-04 20:45 12.77 1670 16700 (2019) 50 (2011) 2830 50 50 50 407 3830 7220 16700
2020-08-04 19:45 12.82 1720 16700 (2019) 50 (2011) 2830 50 50 50 407 3830 7220 16700
2020-08-04 18:45 12.87 1770 16700 (2019) 50 (2011) 2830 50 50 50 407 3830 7220 16700
2020-08-04 17:45 12.89 1780 16700 (2019) 50 (2011) 2830 50 50 50 407 3830 7220 16700
2020-08-04 16:45 12.92 1810 16700 (2019) 50 (2011) 2830 50 50 50 407 3830 7220 16700
2020-08-04 15:45 12.92 1810 16700 (2019) 50 (2011) 2830 50 50 50 407 3830 7220 16700
2020-08-04 14:45 12.93 1820 16700 (2019) 50 (2011) 2830 50 50 50 407 3830 7220 16700
2020-08-04 13:45 12.90 1790 16700 (2019) 50 (2011) 2830 50 50 50 407 3830 7220 16700
2020-08-04 12:45 12.90 1790 16700 (2019) 50 (2011) 2830 50 50 50 407 3830 7220 16700
2020-08-04 11:45 12.91 1800 16700 (2019) 50 (2011) 2830 50 50 50 407 3830 7220 16700
2020-08-04 10:45 12.95 1840 16700 (2019) 50 (2011) 2830 50 50 50 407 3830 7220 16700
2020-08-04 09:45 12.96 1850 16700 (2019) 50 (2011) 2830 50 50 50 407 3830 7220 16700
2020-08-04 08:45 12.96 1850 16700 (2019) 50 (2011) 2830 50 50 50 407 3830 7220 16700
2020-08-04 07:45 12.96 1850 16700 (2019) 50 (2011) 2830 50 50 50 407 3830 7220 16700
2020-08-04 06:45 12.95 1840 16700 (2019) 50 (2011) 2830 50 50 50 407 3830 7220 16700
2020-08-04 05:45 12.94 1830 16700 (2019) 50 (2011) 2830 50 50 50 407 3830 7220 16700
2020-08-04 04:45 12.95 1840 16700 (2019) 50 (2011) 2830 50 50 50 407 3830 7220 16700
2020-08-04 03:45 12.95 1840 16700 (2019) 50 (2011) 2830 50 50 50 407 3830 7220 16700
2020-08-04 02:45 12.95 1840 16700 (2019) 50 (2011) 2830 50 50 50 407 3830 7220 16700
2020-08-04 01:45 12.94 1830 16700 (2019) 50 (2011) 2830 50 50 50 407 3830 7220 16700
2020-08-04 00:45 12.92 1810 16700 (2019) 50 (2011) 2830 50 50 50 407 3830 7220 16700
2020-08-03 23:45 12.93 1820 13800 (2019) 50 (2011) 2530 50 50 50 294 3980 7190 13800
2020-08-03 22:45 12.94 1830 13800 (2019) 50 (2011) 2530 50 50 50 294 3980 7190 13800
2020-08-03 21:45 12.99 1880 13800 (2019) 50 (2011) 2530 50 50 50 294 3980 7190 13800
2020-08-03 20:45 13.05 1940 13800 (2019) 50 (2011) 2530 50 50 50 294 3980 7190 13800
2020-08-03 19:45 13.10 1990 13800 (2019) 50 (2011) 2530 50 50 50 294 3980 7190 13800
2020-08-03 18:45 13.14 2030 13800 (2019) 50 (2011) 2530 50 50 50 294 3980 7190 13800
2020-08-03 17:45 13.16 2050 13800 (2019) 50 (2011) 2530 50 50 50 294 3980 7190 13800
2020-08-03 16:45 13.14 2030 13800 (2019) 50 (2011) 2530 50 50 50 294 3980 7190 13800
2020-08-03 15:45 13.16 2050 13800 (2019) 50 (2011) 2530 50 50 50 294 3980 7190 13800
2020-08-03 14:45 13.20 2090 13800 (2019) 50 (2011) 2530 50 50 50 294 3980 7190 13800
2020-08-03 13:45 13.29 2190 13800 (2019) 50 (2011) 2530 50 50 50 294 3980 7190 13800
2020-08-03 12:45 13.30 2200 13800 (2019) 50 (2011) 2530 50 50 50 294 3980 7190 13800
2020-08-03 11:45 13.34 2240 13800 (2019) 50 (2011) 2530 50 50 50 294 3980 7190 13800
2020-08-03 10:45 13.40 2310 13800 (2019) 50 (2011) 2530 50 50 50 294 3980 7190 13800
2020-08-03 09:45 13.39 2300 13800 (2019) 50 (2011) 2530 50 50 50 294 3980 7190 13800
2020-08-03 08:45 13.46 2380 13800 (2019) 50 (2011) 2530 50 50 50 294 3980 7190 13800
2020-08-03 07:45 13.49 2410 13800 (2019) 50 (2011) 2530 50 50 50 294 3980 7190 13800
2020-08-03 06:45 13.53 2460 13800 (2019) 50 (2011) 2530 50 50 50 294 3980 7190 13800
2020-08-03 05:45 13.57 2500 13800 (2019) 50 (2011) 2530 50 50 50 294 3980 7190 13800
2020-08-03 04:45 13.61 2550 13800 (2019) 50 (2011) 2530 50 50 50 294 3980 7190 13800
2020-08-03 03:45 13.65 2600 13800 (2019) 50 (2011) 2530 50 50 50 294 3980 7190 13800
2020-08-03 02:45 13.69 2650 13800 (2019) 50 (2011) 2530 50 50 50 294 3980 7190 13800
2020-08-03 01:45 13.74 2720 13800 (2019) 50 (2011) 2530 50 50 50 294 3980 7190 13800
2020-08-03 00:45 13.79 2780 13800 (2019) 50 (2011) 2530 50 50 50 294 3980 7190 13800
2020-08-02 23:45 13.85 2870 8320 (2013) 50 (2011) 1990 50 50 50 335 4230 7720 8320
2020-08-02 22:45 13.90 2940 8320 (2013) 50 (2011) 1990 50 50 50 335 4230 7720 8320
2020-08-02 21:45 13.96 3020 8320 (2013) 50 (2011) 1990 50 50 50 335 4230 7720 8320
2020-08-02 20:45 14.03 3120 8320 (2013) 50 (2011) 1990 50 50 50 335 4230 7720 8320
2020-08-02 19:45 14.09 3210 8320 (2013) 50 (2011) 1990 50 50 50 335 4230 7720 8320
2020-08-02 18:45 14.12 3260 8320 (2013) 50 (2011) 1990 50 50 50 335 4230 7720 8320
2020-08-02 17:45 14.19 3360 8320 (2013) 50 (2011) 1990 50 50 50 335 4230 7720 8320
2020-08-02 16:45 14.24 3440 8320 (2013) 50 (2011) 1990 50 50 50 335 4230 7720 8320
2020-08-02 15:45 14.33 3580 8320 (2013) 50 (2011) 1990 50 50 50 335 4230 7720 8320
2020-08-02 14:45 14.39 3680 8320 (2013) 50 (2011) 1990 50 50 50 335 4230 7720 8320
2020-08-02 13:45 14.46 3780 8320 (2013) 50 (2011) 1990 50 50 50 335 4230 7720 8320
2020-08-02 12:45 14.52 3870 8320 (2013) 50 (2011) 1990 50 50 50 335 4230 7720 8320
2020-08-02 11:45 14.53 3890 8320 (2013) 50 (2011) 1990 50 50 50 335 4230 7720 8320
2020-08-02 10:45 14.60 3990 8320 (2013) 50 (2011) 1990 50 50 50 335 4230 7720 8320
2020-08-02 09:45 14.67 4100 8320 (2013) 50 (2011) 1990 50 50 50 335 4230 7720 8320
2020-08-02 08:45 14.69 4130 8320 (2013) 50 (2011) 1990 50 50 50 335 4230 7720 8320
2020-08-02 07:45 14.77 4260 8320 (2013) 50 (2011) 1990 50 50 50 335 4230 7720 8320
2020-08-02 06:45 14.81 4320 8320 (2013) 50 (2011) 1990 50 50 50 335 4230 7720 8320
2020-08-02 05:45 14.84 4370 8320 (2013) 50 (2011) 1990 50 50 50 335 4230 7720 8320
2020-08-02 04:45 14.85 4390 8320 (2013) 50 (2011) 1990 50 50 50 335 4230 7720 8320
2020-08-02 03:45 14.87 4420 8320 (2013) 50 (2011) 1990 50 50 50 335 4230 7720 8320
2020-08-02 02:45 14.88 4440 8320 (2013) 50 (2011) 1990 50 50 50 335 4230 7720 8320
2020-08-02 01:45 14.87 4420 8320 (2013) 50 (2011) 1990 50 50 50 335 4230 7720 8320
2020-08-02 00:45 14.88 4440 8320 (2013) 50 (2011) 1990 50 50 50 335 4230 7720 8320
2020-08-01 23:45 14.85 4390 8050 (2013) 50 (2012) 1950 50 50 61 457 3930 6560 8050
2020-08-01 22:45 14.85 4390 8050 (2013) 50 (2012) 1950 50 50 61 457 3930 6560 8050
2020-08-01 21:45 14.83 4350 8050 (2013) 50 (2012) 1950 50 50 61 457 3930 6560 8050
2020-08-01 20:45 14.81 4320 8050 (2013) 50 (2012) 1950 50 50 61 457 3930 6560 8050
2020-08-01 19:45 14.76 4240 8050 (2013) 50 (2012) 1950 50 50 61 457 3930 6560 8050
2020-08-01 18:45 14.73 4190 8050 (2013) 50 (2012) 1950 50 50 61 457 3930 6560 8050
2020-08-01 17:45 14.66 4080 8050 (2013) 50 (2012) 1950 50 50 61 457 3930 6560 8050
2020-08-01 16:45 14.61 4010 8050 (2013) 50 (2012) 1950 50 50 61 457 3930 6560 8050
2020-08-01 15:45 14.55 3920 8050 (2013) 50 (2012) 1950 50 50 61 457 3930 6560 8050
2020-08-01 14:45 14.49 3830 8050 (2013) 50 (2012) 1950 50 50 61 457 3930 6560 8050
2020-08-01 13:45 14.39 3680 8050 (2013) 50 (2012) 1950 50 50 61 457 3930 6560 8050
2020-08-01 12:45 14.32 3570 8050 (2013) 50 (2012) 1950 50 50 61 457 3930 6560 8050
2020-08-01 11:45 14.21 3390 8050 (2013) 50 (2012) 1950 50 50 61 457 3930 6560 8050
2020-08-01 10:45 14.12 3260 8050 (2013) 50 (2012) 1950 50 50 61 457 3930 6560 8050
2020-08-01 09:45 14.02 3110 8050 (2013) 50 (2012) 1950 50 50 61 457 3930 6560 8050
2020-08-01 08:45 13.90 2940 8050 (2013) 50 (2012) 1950 50 50 61 457 3930 6560 8050
2020-08-01 07:45 13.78 2770 8050 (2013) 50 (2012) 1950 50 50 61 457 3930 6560 8050
2020-08-01 06:45 13.66 2610 8050 (2013) 50 (2012) 1950 50 50 61 457 3930 6560 8050
2020-08-01 05:45 13.54 2470 8050 (2013) 50 (2012) 1950 50 50 61 457 3930 6560 8050
2020-08-01 04:45 13.44 2350 8050 (2013) 50 (2012) 1950 50 50 61 457 3930 6560 8050
2020-08-01 03:45 13.32 2220 8050 (2013) 50 (2012) 1950 50 50 61 457 3930 6560 8050
2020-08-01 02:45 13.21 2100 8050 (2013) 50 (2012) 1950 50 50 61 457 3930 6560 8050
2020-08-01 01:45 13.11 2000 8050 (2013) 50 (2012) 1950 50 50 61 457 3930 6560 8050
2020-08-01 00:45 13.02 1910 8050 (2013) 50 (2012) 1950 50 50 61 457 3930 6560 8050
2020-07-31 23:45 12.95 1840 6740 (2019) 50 (2011) 1720 50 50 50 781 3310 4700 6740
2020-07-31 22:45 12.92 1810 6740 (2019) 50 (2011) 1720 50 50 50 781 3310 4700 6740
2020-07-31 21:45 12.90 1790 6740 (2019) 50 (2011) 1720 50 50 50 781 3310 4700 6740
2020-07-31 20:45 12.89 1780 6740 (2019) 50 (2011) 1720 50 50 50 781 3310 4700 6740
2020-07-31 19:45 12.89 1780 6740 (2019) 50 (2011) 1720 50 50 50 781 3310 4700 6740
2020-07-31 18:45 12.91 1800 6740 (2019) 50 (2011) 1720 50 50 50 781 3310 4700 6740
2020-07-31 17:45 12.93 1820 6740 (2019) 50 (2011) 1720 50 50 50 781 3310 4700 6740
2020-07-31 16:45 12.94 1830 6740 (2019) 50 (2011) 1720 50 50 50 781 3310 4700 6740
2020-07-31 15:45 13.00 1890 6740 (2019) 50 (2011) 1720 50 50 50 781 3310 4700 6740
2020-07-31 14:45 13.05 1940 6740 (2019) 50 (2011) 1720 50 50 50 781 3310 4700 6740
2020-07-31 13:45 13.04 1930 6740 (2019) 50 (2011) 1720 50 50 50 781 3310 4700 6740
2020-07-31 12:45 13.10 1990 6740 (2019) 50 (2011) 1720 50 50 50 781 3310 4700 6740
2020-07-31 11:45 13.05 1940 6740 (2019) 50 (2011) 1720 50 50 50 781 3310 4700 6740
2020-07-31 10:45 12.57 1500 6740 (2019) 50 (2011) 1720 50 50 50 781 3310 4700 6740
2020-07-31 09:45 11.77 914 6740 (2019) 50 (2011) 1720 50 50 50 781 3310 4700 6740
2020-07-31 08:45 10.80 444 6740 (2019) 50 (2011) 1720 50 50 50 781 3310 4700 6740
2020-07-31 07:45 10.24 272 6740 (2019) 50 (2011) 1720 50 50 50 781 3310 4700 6740
2020-07-31 06:45 9.92 197 6740 (2019) 50 (2011) 1720 50 50 50 781 3310 4700 6740
2020-07-31 05:45 9.84 182 6740 (2019) 50 (2011) 1720 50 50 50 781 3310 4700 6740
2020-07-31 04:45 9.82 178 6740 (2019) 50 (2011) 1720 50 50 50 781 3310 4700 6740
2020-07-31 03:45 9.83 180 6740 (2019) 50 (2011) 1720 50 50 50 781 3310 4700 6740
2020-07-31 02:45 9.86 186 6740 (2019) 50 (2011) 1720 50 50 50 781 3310 4700 6740
2020-07-31 01:45 9.88 190 6740 (2019) 50 (2011) 1720 50 50 50 781 3310 4700 6740
2020-07-31 00:45 9.90 193 6740 (2019) 50 (2011) 1720 50 50 50 781 3310 4700 6740
2020-07-30 23:45 9.93 199 6920 (2019) 50 (2012) 1750 50 50 59 247 3840 6160 6920
2020-07-30 22:45 9.99 211 6920 (2019) 50 (2012) 1750 50 50 59 247 3840 6160 6920
2020-07-30 21:45 10.05 225 6920 (2019) 50 (2012) 1750 50 50 59 247 3840 6160 6920
2020-07-30 20:45 10.12 241 6920 (2019) 50 (2012) 1750 50 50 59 247 3840 6160 6920
2020-07-30 19:45 10.18 256 6920 (2019) 50 (2012) 1750 50 50 59 247 3840 6160 6920
2020-07-30 18:45 10.21 264 6920 (2019) 50 (2012) 1750 50 50 59 247 3840 6160 6920
2020-07-30 17:45 10.21 264 6920 (2019) 50 (2012) 1750 50 50 59 247 3840 6160 6920
2020-07-30 16:45 10.28 282 6920 (2019) 50 (2012) 1750 50 50 59 247 3840 6160 6920
2020-07-30 15:45 10.31 290 6920 (2019) 50 (2012) 1750 50 50 59 247 3840 6160 6920
2020-07-30 14:45 10.33 296 6920 (2019) 50 (2012) 1750 50 50 59 247 3840 6160 6920
2020-07-30 13:45 10.34 299 6920 (2019) 50 (2012) 1750 50 50 59 247 3840 6160 6920
2020-07-30 12:45 10.34 299 6920 (2019) 50 (2012) 1750 50 50 59 247 3840 6160 6920
2020-07-30 11:45 10.34 299 6920 (2019) 50 (2012) 1750 50 50 59 247 3840 6160 6920
2020-07-30 10:45 10.31 290 6920 (2019) 50 (2012) 1750 50 50 59 247 3840 6160 6920
2020-07-30 09:45 10.30 288 6920 (2019) 50 (2012) 1750 50 50 59 247 3840 6160 6920
2020-07-30 08:45 10.27 280 6920 (2019) 50 (2012) 1750 50 50 59 247 3840 6160 6920
2020-07-30 07:45 10.23 269 6920 (2019) 50 (2012) 1750 50 50 59 247 3840 6160 6920
2020-07-30 06:45 10.17 254 6920 (2019) 50 (2012) 1750 50 50 59 247 3840 6160 6920
2020-07-30 05:45 10.13 244 6920 (2019) 50 (2012) 1750 50 50 59 247 3840 6160 6920
2020-07-30 04:45 10.10 236 6920 (2019) 50 (2012) 1750 50 50 59 247 3840 6160 6920
2020-07-30 03:45 10.07 229 6920 (2019) 50 (2012) 1750 50 50 59 247 3840 6160 6920
2020-07-30 02:45 10.04 222 6920 (2019) 50 (2012) 1750 50 50 59 247 3840 6160 6920
2020-07-30 01:45 9.97 207 6920 (2019) 50 (2012) 1750 50 50 59 247 3840 6160 6920
2020-07-30 00:45 9.89 192 6920 (2019) 50 (2012) 1750 50 50 59 247 3840 6160 6920
2020-07-29 23:45 9.81 176 8700 (2017) 50 (2012) 2180 50 50 73 191 4960 7650 8700
2020-07-29 22:45 9.77 169 8700 (2017) 50 (2012) 2180 50 50 73 191 4960 7650 8700
2020-07-29 21:45 9.76 167 8700 (2017) 50 (2012) 2180 50 50 73 191 4960 7650 8700
2020-07-29 20:45 9.73 162 8700 (2017) 50 (2012) 2180 50 50 73 191 4960 7650 8700
2020-07-29 19:45 9.71 159 8700 (2017) 50 (2012) 2180 50 50 73 191 4960 7650 8700
2020-07-29 18:45 9.62 144 8700 (2017) 50 (2012) 2180 50 50 73 191 4960 7650 8700
2020-07-29 17:45 9.60 141 8700 (2017) 50 (2012) 2180 50 50 73 191 4960 7650 8700
2020-07-29 16:45 9.51 127 8700 (2017) 50 (2012) 2180 50 50 73 191 4960 7650 8700
2020-07-29 15:45 9.49 125 8700 (2017) 50 (2012) 2180 50 50 73 191 4960 7650 8700
2020-07-29 14:45 9.46 120 8700 (2017) 50 (2012) 2180 50 50 73 191 4960 7650 8700
2020-07-29 13:45 9.39 111 8700 (2017) 50 (2012) 2180 50 50 73 191 4960 7650 8700
2020-07-29 12:45 9.37 108 8700 (2017) 50 (2012) 2180 50 50 73 191 4960 7650 8700
2020-07-29 11:45 9.38 110 8700 (2017) 50 (2012) 2180 50 50 73 191 4960 7650 8700
2020-07-29 10:45 9.34 104 8700 (2017) 50 (2012) 2180 50 50 73 191 4960 7650 8700
2020-07-29 09:45 9.28 97 8700 (2017) 50 (2012) 2180 50 50 73 191 4960 7650 8700
2020-07-29 08:45 9.28 97 8700 (2017) 50 (2012) 2180 50 50 73 191 4960 7650 8700
2020-07-29 07:45 9.20 89 8700 (2017) 50 (2012) 2180 50 50 73 191 4960 7650 8700
2020-07-29 06:45 9.18 87 8700 (2017) 50 (2012) 2180 50 50 73 191 4960 7650 8700
2020-07-29 05:45 9.11 81 8700 (2017) 50 (2012) 2180 50 50 73 191 4960 7650 8700
2020-07-29 04:45 9.07 77 8700 (2017) 50 (2012) 2180 50 50 73 191 4960 7650 8700
2020-07-29 03:45 9.04 75 8700 (2017) 50 (2012) 2180 50 50 73 191 4960 7650 8700
2020-07-29 02:45 9.04 75 8700 (2017) 50 (2012) 2180 50 50 73 191 4960 7650 8700
2020-07-29 01:45 9.02 74 8700 (2017) 50 (2012) 2180 50 50 73 191 4960 7650 8700
2020-07-29 00:45 8.96 72 8700 (2017) 50 (2012) 2180 50 50 73 191 4960 7650 8700
2020-07-28 23:45 8.92 70 8040 (2019) 50 (2011) 1740 50 50 50 374 3150 3710 8040
2020-07-28 22:45 8.89 69 8040 (2019) 50 (2011) 1740 50 50 50 374 3150 3710 8040
2020-07-28 21:45 8.93 70 8040 (2019) 50 (2011) 1740 50 50 50 374 3150 3710 8040
2020-07-28 20:45 8.97 72 8040 (2019) 50 (2011) 1740 50 50 50 374 3150 3710 8040
2020-07-28 19:45 9.01 74 8040 (2019) 50 (2011) 1740 50 50 50 374 3150 3710 8040
2020-07-28 18:45 9.04 75 8040 (2019) 50 (2011) 1740 50 50 50 374 3150 3710 8040
2020-07-28 17:45 9.07 77 8040 (2019) 50 (2011) 1740 50 50 50 374 3150 3710 8040
2020-07-28 16:45 9.11 81 8040 (2019) 50 (2011) 1740 50 50 50 374 3150 3710 8040
2020-07-28 15:45 9.12 81 8040 (2019) 50 (2011) 1740 50 50 50 374 3150 3710 8040
2020-07-28 14:45 9.14 83 8040 (2019) 50 (2011) 1740 50 50 50 374 3150 3710 8040
2020-07-28 13:45 9.15 84 8040 (2019) 50 (2011) 1740 50 50 50 374 3150 3710 8040
2020-07-28 12:45 9.17 86 8040 (2019) 50 (2011) 1740 50 50 50 374 3150 3710 8040
2020-07-28 11:45 9.17 86 8040 (2019) 50 (2011) 1740 50 50 50 374 3150 3710 8040
2020-07-28 10:45 9.19 88 8040 (2019) 50 (2011) 1740 50 50 50 374 3150 3710 8040
2020-07-28 09:45 9.18 87 8040 (2019) 50 (2011) 1740 50 50 50 374 3150 3710 8040
2020-07-28 08:45 9.14 83 8040 (2019) 50 (2011) 1740 50 50 50 374 3150 3710 8040
2020-07-28 07:45 9.16 85 8040 (2019) 50 (2011) 1740 50 50 50 374 3150 3710 8040
2020-07-28 06:45 9.11 81 8040 (2019) 50 (2011) 1740 50 50 50 374 3150 3710 8040
2020-07-28 05:45 9.05 75 8040 (2019) 50 (2011) 1740 50 50 50 374 3150 3710 8040
2020-07-28 04:45 9.01 74 8040 (2019) 50 (2011) 1740 50 50 50 374 3150 3710 8040
2020-07-28 03:45 8.96 72 8040 (2019) 50 (2011) 1740 50 50 50 374 3150 3710 8040
2020-07-28 02:45 8.93 70 8040 (2019) 50 (2011) 1740 50 50 50 374 3150 3710 8040
2020-07-28 01:45 8.91 69 8040 (2019) 50 (2011) 1740 50 50 50 374 3150 3710 8040
2020-07-28 00:45 8.89 69 8040 (2019) 50 (2011) 1740 50 50 50 374 3150 3710 8040
2020-07-27 23:45 8.88 68 8280 (2019) 50 (2011) 1390 50 50 50 210 1660 2560 8280
2020-07-27 22:45 8.90 69 8280 (2019) 50 (2011) 1390 50 50 50 210 1660 2560 8280
2020-07-27 21:45 8.98 72 8280 (2019) 50 (2011) 1390 50 50 50 210 1660 2560 8280
2020-07-27 20:45 8.97 72 8280 (2019) 50 (2011) 1390 50 50 50 210 1660 2560 8280
2020-07-27 19:45 9.00 73 8280 (2019) 50 (2011) 1390 50 50 50 210 1660 2560 8280
2020-07-27 18:45 9.01 74 8280 (2019) 50 (2011) 1390 50 50 50 210 1660 2560 8280
2020-07-27 17:45 9.02 74 8280 (2019) 50 (2011) 1390 50 50 50 210 1660 2560 8280
2020-07-27 16:45 8.99 73 8280 (2019) 50 (2011) 1390 50 50 50 210 1660 2560 8280
2020-07-27 15:45 9.05 75 8280 (2019) 50 (2011) 1390 50 50 50 210 1660 2560 8280
2020-07-27 14:45 9.07 77 8280 (2019) 50 (2011) 1390 50 50 50 210 1660 2560 8280
2020-07-27 13:45 9.10 80 8280 (2019) 50 (2011) 1390 50 50 50 210 1660 2560 8280
2020-07-27 12:45 9.13 82 8280 (2019) 50 (2011) 1390 50 50 50 210 1660 2560 8280
2020-07-27 11:45 9.12 81 8280 (2019) 50 (2011) 1390 50 50 50 210 1660 2560 8280
2020-07-27 10:45 9.16 85 8280 (2019) 50 (2011) 1390 50 50 50 210 1660 2560 8280
2020-07-27 09:45 9.15 84 8280 (2019) 50 (2011) 1390 50 50 50 210 1660 2560 8280
2020-07-27 08:45 9.14 83 8280 (2019) 50 (2011) 1390 50 50 50 210 1660 2560 8280
2020-07-27 07:45 9.10 80 8280 (2019) 50 (2011) 1390 50 50 50 210 1660 2560 8280
2020-07-27 06:45 9.04 75 8280 (2019) 50 (2011) 1390 50 50 50 210 1660 2560 8280
2020-07-27 05:45 9.00 73 8280 (2019) 50 (2011) 1390 50 50 50 210 1660 2560 8280
2020-07-27 04:45 8.97 72 8280 (2019) 50 (2011) 1390 50 50 50 210 1660 2560 8280
2020-07-27 03:45 8.97 72 8280 (2019) 50 (2011) 1390 50 50 50 210 1660 2560 8280
2020-07-27 02:45 8.98 72 8280 (2019) 50 (2011) 1390 50 50 50 210 1660 2560 8280
2020-07-27 01:45 8.95 71 8280 (2019) 50 (2011) 1390 50 50 50 210 1660 2560 8280
2020-07-27 00:45 8.93 70 8280 (2019) 50 (2011) 1390 50 50 50 210 1660 2560 8280
2020-07-26 23:45 8.92 70 8100 (2019) 50 (2012) 1390 50 50 58 252 1720 2660 8100
2020-07-26 22:45 8.91 69 8100 (2019) 50 (2012) 1390 50 50 58 252 1720 2660 8100
2020-07-26 21:45 8.97 72 8100 (2019) 50 (2012) 1390 50 50 58 252 1720 2660 8100
2020-07-26 20:45 9.03 74 8100 (2019) 50 (2012) 1390 50 50 58 252 1720 2660 8100
2020-07-26 19:45 9.06 76 8100 (2019) 50 (2012) 1390 50 50 58 252 1720 2660 8100
2020-07-26 18:45 9.07 77 8100 (2019) 50 (2012) 1390 50 50 58 252 1720 2660 8100
2020-07-26 17:45 8.95 71 8100 (2019) 50 (2012) 1390 50 50 58 252 1720 2660 8100
2020-07-26 16:45 8.96 72 8100 (2019) 50 (2012) 1390 50 50 58 252 1720 2660 8100
2020-07-26 15:45 8.95 71 8100 (2019) 50 (2012) 1390 50 50 58 252 1720 2660 8100
2020-07-26 14:45 8.97 72 8100 (2019) 50 (2012) 1390 50 50 58 252 1720 2660 8100
2020-07-26 13:45 8.99 73 8100 (2019) 50 (2012) 1390 50 50 58 252 1720 2660 8100
2020-07-26 12:45 9.01 74 8100 (2019) 50 (2012) 1390 50 50 58 252 1720 2660 8100
2020-07-26 11:45 9.02 74 8100 (2019) 50 (2012) 1390 50 50 58 252 1720 2660 8100
2020-07-26 10:45 9.06 76 8100 (2019) 50 (2012) 1390 50 50 58 252 1720 2660 8100
2020-07-26 09:45 9.05 75 8100 (2019) 50 (2012) 1390 50 50 58 252 1720 2660 8100
2020-07-26 08:45 9.07 77 8100 (2019) 50 (2012) 1390 50 50 58 252 1720 2660 8100
2020-07-26 07:45 9.04 75 8100 (2019) 50 (2012) 1390 50 50 58 252 1720 2660 8100
2020-07-26 06:45 9.02 74 8100 (2019) 50 (2012) 1390 50 50 58 252 1720 2660 8100
2020-07-26 05:45 8.98 72 8100 (2019) 50 (2012) 1390 50 50 58 252 1720 2660 8100
2020-07-26 04:45 8.92 70 8100 (2019) 50 (2012) 1390 50 50 58 252 1720 2660 8100
2020-07-26 03:45 8.92 70 8100 (2019) 50 (2012) 1390 50 50 58 252 1720 2660 8100
2020-07-26 02:45 8.91 69 8100 (2019) 50 (2012) 1390 50 50 58 252 1720 2660 8100
2020-07-26 01:45 8.90 69 8100 (2019) 50 (2012) 1390 50 50 58 252 1720 2660 8100
2020-07-26 00:45 8.89 69 8100 (2019) 50 (2012) 1390 50 50 58 252 1720 2660 8100
2020-07-25 23:45 8.89 69 8140 (2019) 50 (2012) 1430 50 111 116 159 1850 2880 8140
2020-07-25 22:45 8.89 69 8140 (2019) 50 (2012) 1430 50 111 116 159 1850 2880 8140
2020-07-25 21:45 8.88 68 8140 (2019) 50 (2012) 1430 50 111 116 159 1850 2880 8140
2020-07-25 20:45 8.88 68 8140 (2019) 50 (2012) 1430 50 111 116 159 1850 2880 8140
2020-07-25 19:45 8.89 69 8140 (2019) 50 (2012) 1430 50 111 116 159 1850 2880 8140
2020-07-25 18:45 8.90 69 8140 (2019) 50 (2012) 1430 50 111 116 159 1850 2880 8140
2020-07-25 17:45 8.92 70 8140 (2019) 50 (2012) 1430 50 111 116 159 1850 2880 8140
2020-07-25 16:45 8.96 72 8140 (2019) 50 (2012) 1430 50 111 116 159 1850 2880 8140
2020-07-25 15:45 8.96 72 8140 (2019) 50 (2012) 1430 50 111 116 159 1850 2880 8140
2020-07-25 14:45 9.00 73 8140 (2019) 50 (2012) 1430 50 111 116 159 1850 2880 8140
2020-07-25 13:45 9.01 74 8140 (2019) 50 (2012) 1430 50 111 116 159 1850 2880 8140
2020-07-25 12:45 9.08 78 8140 (2019) 50 (2012) 1430 50 111 116 159 1850 2880 8140
2020-07-25 11:45 9.09 79 8140 (2019) 50 (2012) 1430 50 111 116 159 1850 2880 8140
2020-07-25 10:45 9.13 82 8140 (2019) 50 (2012) 1430 50 111 116 159 1850 2880 8140
2020-07-25 09:45 9.19 88 8140 (2019) 50 (2012) 1430 50 111 116 159 1850 2880 8140
2020-07-25 08:45 9.17 86 8140 (2019) 50 (2012) 1430 50 111 116 159 1850 2880 8140
2020-07-25 07:45 9.17 86 8140 (2019) 50 (2012) 1430 50 111 116 159 1850 2880 8140
2020-07-25 06:45 9.17 86 8140 (2019) 50 (2012) 1430 50 111 116 159 1850 2880 8140
2020-07-25 05:45 9.16 85 8140 (2019) 50 (2012) 1430 50 111 116 159 1850 2880 8140
2020-07-25 04:45 9.15 84 8140 (2019) 50 (2012) 1430 50 111 116 159 1850 2880 8140
2020-07-25 03:45 9.16 85 8140 (2019) 50 (2012) 1430 50 111 116 159 1850 2880 8140
2020-07-25 02:45 9.18 87 8140 (2019) 50 (2012) 1430 50 111 116 159 1850 2880 8140
2020-07-25 01:45 9.19 88 8140 (2019) 50 (2012) 1430 50 111 116 159 1850 2880 8140
2020-07-25 00:45 9.21 90 8140 (2019) 50 (2012) 1430 50 111 116 159 1850 2880 8140
2020-07-24 23:45 9.20 89 8280 (2019) 50 (2011) 1500 50 50 80 452 1970 3070 8280
2020-07-24 22:45 9.24 92 8280 (2019) 50 (2011) 1500 50 50 80 452 1970 3070 8280
2020-07-24 21:45 9.32 102 8280 (2019) 50 (2011) 1500 50 50 80 452 1970 3070 8280
2020-07-24 20:45 9.38 110 8280 (2019) 50 (2011) 1500 50 50 80 452 1970 3070 8280
2020-07-24 19:45 9.46 120 8280 (2019) 50 (2011) 1500 50 50 80 452 1970 3070 8280
2020-07-24 18:45 9.48 123 8280 (2019) 50 (2011) 1500 50 50 80 452 1970 3070 8280
2020-07-24 17:45 9.49 125 8280 (2019) 50 (2011) 1500 50 50 80 452 1970 3070 8280
2020-07-24 16:45 9.48 123 8280 (2019) 50 (2011) 1500 50 50 80 452 1970 3070 8280
2020-07-24 15:45 9.50 126 8280 (2019) 50 (2011) 1500 50 50 80 452 1970 3070 8280
2020-07-24 14:45 9.49 125 8280 (2019) 50 (2011) 1500 50 50 80 452 1970 3070 8280
2020-07-24 13:45 9.49 125 8280 (2019) 50 (2011) 1500 50 50 80 452 1970 3070 8280
2020-07-24 12:45 9.48 123 8280 (2019) 50 (2011) 1500 50 50 80 452 1970 3070 8280
2020-07-24 11:45 9.45 119 8280 (2019) 50 (2011) 1500 50 50 80 452 1970 3070 8280
2020-07-24 10:45 9.43 116 8280 (2019) 50 (2011) 1500 50 50 80 452 1970 3070 8280
2020-07-24 09:45 9.40 112 8280 (2019) 50 (2011) 1500 50 50 80 452 1970 3070 8280
2020-07-24 08:45 9.36 107 8280 (2019) 50 (2011) 1500 50 50 80 452 1970 3070 8280
2020-07-24 07:45 9.30 99 8280 (2019) 50 (2011) 1500 50 50 80 452 1970 3070 8280
2020-07-24 06:45 9.22 91 8280 (2019) 50 (2011) 1500 50 50 80 452 1970 3070 8280
2020-07-24 05:45 9.12 81 8280 (2019) 50 (2011) 1500 50 50 80 452 1970 3070 8280
2020-07-24 04:45 9.04 75 8280 (2019) 50 (2011) 1500 50 50 80 452 1970 3070 8280
2020-07-24 03:45 9.00 73 8280 (2019) 50 (2011) 1500 50 50 80 452 1970 3070 8280
2020-07-24 02:45 8.97 72 8280 (2019) 50 (2011) 1500 50 50 80 452 1970 3070 8280
2020-07-24 01:45 8.93 70 8280 (2019) 50 (2011) 1500 50 50 80 452 1970 3070 8280
2020-07-24 00:45 8.83 66 8280 (2019) 50 (2011) 1500 50 50 80 452 1970 3070 8280
2020-07-23 23:45 8.71 61 7910 (2019) 50 (2012) 1440 50 122 130 279 1880 2800 7910
2020-07-23 22:45 8.63 59 7910 (2019) 50 (2012) 1440 50 122 130 279 1880 2800 7910
2020-07-23 21:45 8.65 59 7910 (2019) 50 (2012) 1440 50 122 130 279 1880 2800 7910
2020-07-23 20:45 8.71 61 7910 (2019) 50 (2012) 1440 50 122 130 279 1880 2800 7910
2020-07-23 19:45 8.80 65 7910 (2019) 50 (2012) 1440 50 122 130 279 1880 2800 7910
2020-07-23 18:45 8.83 66 7910 (2019) 50 (2012) 1440 50 122 130 279 1880 2800 7910
2020-07-23 17:45 8.80 65 7910 (2019) 50 (2012) 1440 50 122 130 279 1880 2800 7910
2020-07-23 16:45 8.78 64 7910 (2019) 50 (2012) 1440 50 122 130 279 1880 2800 7910
2020-07-23 15:45 8.77 63 7910 (2019) 50 (2012) 1440 50 122 130 279 1880 2800 7910
2020-07-23 14:45 8.73 62 7910 (2019) 50 (2012) 1440 50 122 130 279 1880 2800 7910
2020-07-23 13:45 8.75 62 7910 (2019) 50 (2012) 1440 50 122 130 279 1880 2800 7910
2020-07-23 12:45 8.77 63 7910 (2019) 50 (2012) 1440 50 122 130 279 1880 2800 7910
2020-07-23 11:45 8.83 66 7910 (2019) 50 (2012) 1440 50 122 130 279 1880 2800 7910
2020-07-23 10:45 8.84 66 7910 (2019) 50 (2012) 1440 50 122 130 279 1880 2800 7910
2020-07-23 09:45 8.87 68 7910 (2019) 50 (2012) 1440 50 122 130 279 1880 2800 7910
2020-07-23 08:45 8.87 68 7910 (2019) 50 (2012) 1440 50 122 130 279 1880 2800 7910
2020-07-23 07:45 8.86 67 7910 (2019) 50 (2012) 1440 50 122 130 279 1880 2800 7910
2020-07-23 06:45 8.84 66 7910 (2019) 50 (2012) 1440 50 122 130 279 1880 2800 7910
2020-07-23 05:45 8.80 65 7910 (2019) 50 (2012) 1440 50 122 130 279 1880 2800 7910
2020-07-23 04:45 8.79 64 7910 (2019) 50 (2012) 1440 50 122 130 279 1880 2800 7910
2020-07-23 03:45 8.78 64 7910 (2019) 50 (2012) 1440 50 122 130 279 1880 2800 7910
2020-07-23 02:45 8.76 63 7910 (2019) 50 (2012) 1440 50 122 130 279 1880 2800 7910
2020-07-23 01:45 8.72 61 7910 (2019) 50 (2012) 1440 50 122 130 279 1880 2800 7910
2020-07-23 00:45 8.64 59 7910 (2019) 50 (2012) 1440 50 122 130 279 1880 2800 7910
2020-07-22 23:45 8.62 58 7100 (2019) 50 (2012) 1430 50 50 94 336 2170 3300 7100
2020-07-22 22:45 8.64 59 7100 (2019) 50 (2012) 1430 50 50 94 336 2170 3300 7100
2020-07-22 21:45 8.72 61 7100 (2019) 50 (2012) 1430 50 50 94 336 2170 3300 7100
2020-07-22 20:45 8.81 65 7100 (2019) 50 (2012) 1430 50 50 94 336 2170 3300 7100
2020-07-22 19:45 8.85 67 7100 (2019) 50 (2012) 1430 50 50 94 336 2170 3300 7100
2020-07-22 18:45 8.85 67 7100 (2019) 50 (2012) 1430 50 50 94 336 2170 3300 7100
2020-07-22 17:45 8.85 67 7100 (2019) 50 (2012) 1430 50 50 94 336 2170 3300 7100
2020-07-22 16:45 8.80 65 7100 (2019) 50 (2012) 1430 50 50 94 336 2170 3300 7100
2020-07-22 15:45 8.81 65 7100 (2019) 50 (2012) 1430 50 50 94 336 2170 3300 7100
2020-07-22 14:45 8.77 63 7100 (2019) 50 (2012) 1430 50 50 94 336 2170 3300 7100
2020-07-22 13:45 8.78 64 7100 (2019) 50 (2012) 1430 50 50 94 336 2170 3300 7100
2020-07-22 12:45 8.82 66 7100 (2019) 50 (2012) 1430 50 50 94 336 2170 3300 7100
2020-07-22 11:45 8.85 67 7100 (2019) 50 (2012) 1430 50 50 94 336 2170 3300 7100
2020-07-22 10:45 8.87 68 7100 (2019) 50 (2012) 1430 50 50 94 336 2170 3300 7100
2020-07-22 09:45 8.89 69 7100 (2019) 50 (2012) 1430 50 50 94 336 2170 3300 7100
2020-07-22 08:45 8.88 68 7100 (2019) 50 (2012) 1430 50 50 94 336 2170 3300 7100
2020-07-22 07:45 8.88 68 7100 (2019) 50 (2012) 1430 50 50 94 336 2170 3300 7100
2020-07-22 06:45 8.86 67 7100 (2019) 50 (2012) 1430 50 50 94 336 2170 3300 7100
2020-07-22 05:45 8.85 67 7100 (2019) 50 (2012) 1430 50 50 94 336 2170 3300 7100
2020-07-22 04:45 8.86 67 7100 (2019) 50 (2012) 1430 50 50 94 336 2170 3300 7100
2020-07-22 03:45 8.90 69 7100 (2019) 50 (2012) 1430 50 50 94 336 2170 3300 7100
2020-07-22 02:45 8.90 69 7100 (2019) 50 (2012) 1430 50 50 94 336 2170 3300 7100
2020-07-22 01:45 8.80 65 7100 (2019) 50 (2012) 1430 50 50 94 336 2170 3300 7100
2020-07-22 00:45 8.67 60 7100 (2019) 50 (2012) 1430 50 50 94 336 2170 3300 7100
2020-07-21 23:45 8.58 57 8880 (2019) 50 (2012) 1790 50 50 126 390 2840 4570 8880
2020-07-21 22:45 8.60 58 8880 (2019) 50 (2012) 1790 50 50 126 390 2840 4570 8880
2020-07-21 21:45 8.69 60 8880 (2019) 50 (2012) 1790 50 50 126 390 2840 4570 8880
2020-07-21 20:45 8.76 63 8880 (2019) 50 (2012) 1790 50 50 126 390 2840 4570 8880
2020-07-21 19:45 8.87 68 8880 (2019) 50 (2012) 1790 50 50 126 390 2840 4570 8880
2020-07-21 18:45 8.92 70 8880 (2019) 50 (2012) 1790 50 50 126 390 2840 4570 8880
2020-07-21 17:45 8.88 68 8880 (2019) 50 (2012) 1790 50 50 126 390 2840 4570 8880
2020-07-21 16:45 8.89 69 8880 (2019) 50 (2012) 1790 50 50 126 390 2840 4570 8880
2020-07-21 15:45 8.92 70 8880 (2019) 50 (2012) 1790 50 50 126 390 2840 4570 8880
2020-07-21 14:45 8.95 71 8880 (2019) 50 (2012) 1790 50 50 126 390 2840 4570 8880
2020-07-21 13:45 8.96 72 8880 (2019) 50 (2012) 1790 50 50 126 390 2840 4570 8880
2020-07-21 12:45 9.00 73 8880 (2019) 50 (2012) 1790 50 50 126 390 2840 4570 8880
2020-07-21 11:45 9.03 74 8880 (2019) 50 (2012) 1790 50 50 126 390 2840 4570 8880
2020-07-21 10:45 9.04 75 8880 (2019) 50 (2012) 1790 50 50 126 390 2840 4570 8880
2020-07-21 09:45 9.05 75 8880 (2019) 50 (2012) 1790 50 50 126 390 2840 4570 8880
2020-07-21 08:45 9.06 76 8880 (2019) 50 (2012) 1790 50 50 126 390 2840 4570 8880
2020-07-21 07:45 9.06 76 8880 (2019) 50 (2012) 1790 50 50 126 390 2840 4570 8880
2020-07-21 06:45 9.02 74 8880 (2019) 50 (2012) 1790 50 50 126 390 2840 4570 8880
2020-07-21 05:45 8.98 72 8880 (2019) 50 (2012) 1790 50 50 126 390 2840 4570 8880
2020-07-21 04:45 8.92 70 8880 (2019) 50 (2012) 1790 50 50 126 390 2840 4570 8880
2020-07-21 03:45 8.89 69 8880 (2019) 50 (2012) 1790 50 50 126 390 2840 4570 8880
2020-07-21 02:45 8.89 69 8880 (2019) 50 (2012) 1790 50 50 126 390 2840 4570 8880
2020-07-21 01:45 8.88 68 8880 (2019) 50 (2012) 1790 50 50 126 390 2840 4570 8880
2020-07-21 00:45 8.87 68 8880 (2019) 50 (2012) 1790 50 50 126 390 2840 4570 8880
2020-07-20 23:45 8.85 67 9400 (2019) 50 (2012) 1720 50 50 114 428 2150 3070 9400
2020-07-20 22:45 8.83 66 9400 (2019) 50 (2012) 1720 50 50 114 428 2150 3070 9400
2020-07-20 21:45 8.83 66 9400 (2019) 50 (2012) 1720 50 50 114 428 2150 3070 9400
2020-07-20 20:45 8.84 66 9400 (2019) 50 (2012) 1720 50 50 114 428 2150 3070 9400
2020-07-20 19:45 8.87 68 9400 (2019) 50 (2012) 1720 50 50 114 428 2150 3070 9400
2020-07-20 18:45 8.90 69 9400 (2019) 50 (2012) 1720 50 50 114 428 2150 3070 9400
2020-07-20 17:45 8.92 70 9400 (2019) 50 (2012) 1720 50 50 114 428 2150 3070 9400
2020-07-20 16:45 8.89 69 9400 (2019) 50 (2012) 1720 50 50 114 428 2150 3070 9400
2020-07-20 15:45 8.85 67 9400 (2019) 50 (2012) 1720 50 50 114 428 2150 3070 9400
2020-07-20 14:45 8.87 68 9400 (2019) 50 (2012) 1720 50 50 114 428 2150 3070 9400
2020-07-20 13:45 8.82 66 9400 (2019) 50 (2012) 1720 50 50 114 428 2150 3070 9400
2020-07-20 12:45 8.86 67 9400 (2019) 50 (2012) 1720 50 50 114 428 2150 3070 9400
2020-07-20 11:45 8.85 67 9400 (2019) 50 (2012) 1720 50 50 114 428 2150 3070 9400
2020-07-20 10:45 8.95 71 9400 (2019) 50 (2012) 1720 50 50 114 428 2150 3070 9400
2020-07-20 09:45 8.97 72 9400 (2019) 50 (2012) 1720 50 50 114 428 2150 3070 9400
2020-07-20 08:45 8.97 72 9400 (2019) 50 (2012) 1720 50 50 114 428 2150 3070 9400
2020-07-20 07:45 8.92 70 9400 (2019) 50 (2012) 1720 50 50 114 428 2150 3070 9400
2020-07-20 06:45 8.85 67 9400 (2019) 50 (2012) 1720 50 50 114 428 2150 3070 9400
2020-07-20 05:45 8.75 62 9400 (2019) 50 (2012) 1720 50 50 114 428 2150 3070 9400
2020-07-20 04:45 8.70 61 9400 (2019) 50 (2012) 1720 50 50 114 428 2150 3070 9400
2020-07-20 03:45 8.71 61 9400 (2019) 50 (2012) 1720 50 50 114 428 2150 3070 9400
2020-07-20 02:45 8.77 63 9400 (2019) 50 (2012) 1720 50 50 114 428 2150 3070 9400
2020-07-20 01:45 8.80 65 9400 (2019) 50 (2012) 1720 50 50 114 428 2150 3070 9400
2020-07-20 00:45 8.87 68 9400 (2019) 50 (2012) 1720 50 50 114 428 2150 3070 9400
2020-07-19 23:45 8.85 67 9560 (2019) 50 (2012) 1730 50 50 133 317 2180 2970 9560
2020-07-19 22:45 8.83 66 9560 (2019) 50 (2012) 1730 50 50 133 317 2180 2970 9560
2020-07-19 21:45 8.78 64 9560 (2019) 50 (2012) 1730 50 50 133 317 2180 2970 9560
2020-07-19 20:45 8.73 62 9560 (2019) 50 (2012) 1730 50 50 133 317 2180 2970 9560
2020-07-19 19:45 8.69 60 9560 (2019) 50 (2012) 1730 50 50 133 317 2180 2970 9560
2020-07-19 18:45 8.71 61 9560 (2019) 50 (2012) 1730 50 50 133 317 2180 2970 9560
2020-07-19 17:45 8.65 59 9560 (2019) 50 (2012) 1730 50 50 133 317 2180 2970 9560
2020-07-19 16:45 8.63 59 9560 (2019) 50 (2012) 1730 50 50 133 317 2180 2970 9560
2020-07-19 15:45 8.57 57 9560 (2019) 50 (2012) 1730 50 50 133 317 2180 2970 9560
2020-07-19 14:45 8.55 56 9560 (2019) 50 (2012) 1730 50 50 133 317 2180 2970 9560
2020-07-19 13:45 8.52 55 9560 (2019) 50 (2012) 1730 50 50 133 317 2180 2970 9560
2020-07-19 12:45 8.46 54 9560 (2019) 50 (2012) 1730 50 50 133 317 2180 2970 9560
2020-07-19 11:45 8.49 55 9560 (2019) 50 (2012) 1730 50 50 133 317 2180 2970 9560
2020-07-19 10:45 8.50 55 9560 (2019) 50 (2012) 1730 50 50 133 317 2180 2970 9560
2020-07-19 09:45 8.50 55 9560 (2019) 50 (2012) 1730 50 50 133 317 2180 2970 9560
2020-07-19 08:45 8.49 55 9560 (2019) 50 (2012) 1730 50 50 133 317 2180 2970 9560
2020-07-19 07:45 8.55 56 9560 (2019) 50 (2012) 1730 50 50 133 317 2180 2970 9560
2020-07-19 06:45 8.58 57 9560 (2019) 50 (2012) 1730 50 50 133 317 2180 2970 9560
2020-07-19 05:45 8.57 57 9560 (2019) 50 (2012) 1730 50 50 133 317 2180 2970 9560
2020-07-19 04:45 8.65 59 9560 (2019) 50 (2012) 1730 50 50 133 317 2180 2970 9560
2020-07-19 03:45 8.70 61 9560 (2019) 50 (2012) 1730 50 50 133 317 2180 2970 9560
2020-07-19 02:45 8.70 61 9560 (2019) 50 (2012) 1730 50 50 133 317 2180 2970 9560
2020-07-19 01:45 8.69 60 9560 (2019) 50 (2012) 1730 50 50 133 317 2180 2970 9560
2020-07-19 00:45 8.65 59 9560 (2019) 50 (2012) 1730 50 50 133 317 2180 2970 9560
2020-07-18 23:45 8.60 58 9360 (2019) 50 (2012) 1950 50 53 162 406 3190 4770 9360
2020-07-18 22:45 8.54 56 9360 (2019) 50 (2012) 1950 50 53 162 406 3190 4770 9360
2020-07-18 21:45 8.51 55 9360 (2019) 50 (2012) 1950 50 53 162 406 3190 4770 9360
2020-07-18 20:45 8.49 55 9360 (2019) 50 (2012) 1950 50 53 162 406 3190 4770 9360
2020-07-18 19:45 8.47 55 9360 (2019) 50 (2012) 1950 50 53 162 406 3190 4770 9360
2020-07-18 18:45 8.49 55 9360 (2019) 50 (2012) 1950 50 53 162 406 3190 4770 9360
2020-07-18 17:45 8.48 55 9360 (2019) 50 (2012) 1950 50 53 162 406 3190 4770 9360
2020-07-18 16:45 8.52 55 9360 (2019) 50 (2012) 1950 50 53 162 406 3190 4770 9360
2020-07-18 15:45 8.51 55 9360 (2019) 50 (2012) 1950 50 53 162 406 3190 4770 9360
2020-07-18 14:45 8.53 56 9360 (2019) 50 (2012) 1950 50 53 162 406 3190 4770 9360
2020-07-18 13:45 8.56 56 9360 (2019) 50 (2012) 1950 50 53 162 406 3190 4770 9360
2020-07-18 12:45 8.63 59 9360 (2019) 50 (2012) 1950 50 53 162 406 3190 4770 9360
2020-07-18 11:45 8.63 59 9360 (2019) 50 (2012) 1950 50 53 162 406 3190 4770 9360
2020-07-18 10:45 8.70 61 9360 (2019) 50 (2012) 1950 50 53 162 406 3190 4770 9360
2020-07-18 09:45 8.70 61 9360 (2019) 50 (2012) 1950 50 53 162 406 3190 4770 9360
2020-07-18 08:45 8.76 63 9360 (2019) 50 (2012) 1950 50 53 162 406 3190 4770 9360
2020-07-18 07:45 8.78 64 9360 (2019) 50 (2012) 1950 50 53 162 406 3190 4770 9360
2020-07-18 06:45 8.76 63 9360 (2019) 50 (2012) 1950 50 53 162 406 3190 4770 9360
2020-07-18 05:45 8.74 62 9360 (2019) 50 (2012) 1950 50 53 162 406 3190 4770 9360
2020-07-18 04:45 8.72 61 9360 (2019) 50 (2012) 1950 50 53 162 406 3190 4770 9360
2020-07-18 03:45 8.70 61 9360 (2019) 50 (2012) 1950 50 53 162 406 3190 4770 9360
2020-07-18 02:45 8.72 61 9360 (2019) 50 (2012) 1950 50 53 162 406 3190 4770 9360
2020-07-18 01:45 8.64 59 9360 (2019) 50 (2012) 1950 50 53 162 406 3190 4770 9360
2020-07-18 00:45 8.52 55 9360 (2019) 50 (2012) 1950 50 53 162 406 3190 4770 9360
2020-07-17 23:45 8.42 54 8400 (2019) 50 (2012) 2110 50 71 101 305 4390 7000 8400
2020-07-17 22:45 8.38 53 8400 (2019) 50 (2012) 2110 50 71 101 305 4390 7000 8400
2020-07-17 21:45 8.49 55 8400 (2019) 50 (2012) 2110 50 71 101 305 4390 7000 8400
2020-07-17 20:45 8.61 58 8400 (2019) 50 (2012) 2110 50 71 101 305 4390 7000 8400
2020-07-17 19:45 8.76 63 8400 (2019) 50 (2012) 2110 50 71 101 305 4390 7000 8400
2020-07-17 18:45 8.83 66 8400 (2019) 50 (2012) 2110 50 71 101 305 4390 7000 8400
2020-07-17 17:45 8.84 66 8400 (2019) 50 (2012) 2110 50 71 101 305 4390 7000 8400
2020-07-17 16:45 8.83 66 8400 (2019) 50 (2012) 2110 50 71 101 305 4390 7000 8400
2020-07-17 15:45 8.81 65 8400 (2019) 50 (2012) 2110 50 71 101 305 4390 7000 8400
2020-07-17 14:45 8.77 63 8400 (2019) 50 (2012) 2110 50 71 101 305 4390 7000 8400
2020-07-17 13:45 8.76 63 8400 (2019) 50 (2012) 2110 50 71 101 305 4390 7000 8400
2020-07-17 12:45 8.73 62 8400 (2019) 50 (2012) 2110 50 71 101 305 4390 7000 8400
2020-07-17 11:45 8.74 62 8400 (2019) 50 (2012) 2110 50 71 101 305 4390 7000 8400
2020-07-17 10:45 8.73 62 8400 (2019) 50 (2012) 2110 50 71 101 305 4390 7000 8400
2020-07-17 09:45 8.74 62 8400 (2019) 50 (2012) 2110 50 71 101 305 4390 7000 8400
2020-07-17 08:45 8.72 61 8400 (2019) 50 (2012) 2110 50 71 101 305 4390 7000 8400
2020-07-17 07:45 8.79 64 8400 (2019) 50 (2012) 2110 50 71 101 305 4390 7000 8400
2020-07-17 06:45 8.82 66 8400 (2019) 50 (2012) 2110 50 71 101 305 4390 7000 8400
2020-07-17 05:45 8.86 67 8400 (2019) 50 (2012) 2110 50 71 101 305 4390 7000 8400
2020-07-17 04:45 8.91 69 8400 (2019) 50 (2012) 2110 50 71 101 305 4390 7000 8400
2020-07-17 03:45 8.92 70 8400 (2019) 50 (2012) 2110 50 71 101 305 4390 7000 8400
2020-07-17 02:45 8.89 69 8400 (2019) 50 (2012) 2110 50 71 101 305 4390 7000 8400
2020-07-17 01:45 8.80 65 8400 (2019) 50 (2012) 2110 50 71 101 305 4390 7000 8400
2020-07-17 00:45 8.73 62 8400 (2019) 50 (2012) 2110 50 71 101 305 4390 7000 8400
2020-07-16 23:45 8.68 60 11000 (2015) 50 (2012) 2560 50 115 142 390 4720 7690 11000
2020-07-16 22:45 8.68 60 11000 (2015) 50 (2012) 2560 50 115 142 390 4720 7690 11000
2020-07-16 21:45 8.76 63 11000 (2015) 50 (2012) 2560 50 115 142 390 4720 7690 11000
2020-07-16 20:45 8.83 66 11000 (2015) 50 (2012) 2560 50 115 142 390 4720 7690 11000
2020-07-16 19:45 8.90 69 11000 (2015) 50 (2012) 2560 50 115 142 390 4720 7690 11000
2020-07-16 18:45 8.97 72 11000 (2015) 50 (2012) 2560 50 115 142 390 4720 7690 11000
2020-07-16 17:45 8.97 72 11000 (2015) 50 (2012) 2560 50 115 142 390 4720 7690 11000
2020-07-16 16:45 8.97 72 11000 (2015) 50 (2012) 2560 50 115 142 390 4720 7690 11000
2020-07-16 15:45 8.99 73 11000 (2015) 50 (2012) 2560 50 115 142 390 4720 7690 11000
2020-07-16 14:45 8.95 71 11000 (2015) 50 (2012) 2560 50 115 142 390 4720 7690 11000
2020-07-16 13:45 8.97 72 11000 (2015) 50 (2012) 2560 50 115 142 390 4720 7690 11000
2020-07-16 12:45 9.00 73 11000 (2015) 50 (2012) 2560 50 115 142 390 4720 7690 11000
2020-07-16 11:45 9.03 74 11000 (2015) 50 (2012) 2560 50 115 142 390 4720 7690 11000
2020-07-16 10:45 9.04 75 11000 (2015) 50 (2012) 2560 50 115 142 390 4720 7690 11000
2020-07-16 09:45 9.04 75 11000 (2015) 50 (2012) 2560 50 115 142 390 4720 7690 11000
2020-07-16 08:45 9.03 74 11000 (2015) 50 (2012) 2560 50 115 142 390 4720 7690 11000
2020-07-16 07:45 9.01 74 11000 (2015) 50 (2012) 2560 50 115 142 390 4720 7690 11000
2020-07-16 05:45 8.97 72 11000 (2015) 50 (2012) 2560 50 115 142 390 4720 7690 11000
2020-07-16 04:45 8.96 72 11000 (2015) 50 (2012) 2560 50 115 142 390 4720 7690 11000
2020-07-16 03:45 8.96 72 11000 (2015) 50 (2012) 2560 50 115 142 390 4720 7690 11000
2020-07-16 02:45 8.94 71 11000 (2015) 50 (2012) 2560 50 115 142 390 4720 7690 11000
2020-07-16 01:45 8.88 68 11000 (2015) 50 (2012) 2560 50 115 142 390 4720 7690 11000
2020-07-16 00:45 8.82 66 11000 (2015) 50 (2012) 2560 50 115 142 390 4720 7690 11000
2020-07-15 23:45 8.76 63 15600 (2015) 50 (2012) 3220 50 164 199 319 5430 8320 15600
2020-07-15 22:45 8.78 64 15600 (2015) 50 (2012) 3220 50 164 199 319 5430 8320 15600
2020-07-15 21:45 8.86 67 15600 (2015) 50 (2012) 3220 50 164 199 319 5430 8320 15600
2020-07-15 20:45 8.94 71 15600 (2015) 50 (2012) 3220 50 164 199 319 5430 8320 15600
2020-07-15 19:45 9.02 74 15600 (2015) 50 (2012) 3220 50 164 199 319 5430 8320 15600
2020-07-15 18:45 9.03 74 15600 (2015) 50 (2012) 3220 50 164 199 319 5430 8320 15600
2020-07-15 17:45 9.09 79 15600 (2015) 50 (2012) 3220 50 164 199 319 5430 8320 15600
2020-07-15 16:45 9.14 83 15600 (2015) 50 (2012) 3220 50 164 199 319 5430 8320 15600
2020-07-15 15:45 9.18 87 15600 (2015) 50 (2012) 3220 50 164 199 319 5430 8320 15600
2020-07-15 14:45 9.19 88 15600 (2015) 50 (2012) 3220 50 164 199 319 5430 8320 15600
2020-07-15 13:45 9.25 93 15600 (2015) 50 (2012) 3220 50 164 199 319 5430 8320 15600
2020-07-15 12:45 9.25 93 15600 (2015) 50 (2012) 3220 50 164 199 319 5430 8320 15600
2020-07-15 11:45 9.29 98 15600 (2015) 50 (2012) 3220 50 164 199 319 5430 8320 15600
2020-07-15 10:45 9.25 93 15600 (2015) 50 (2012) 3220 50 164 199 319 5430 8320 15600
2020-07-15 09:45 9.30 99 15600 (2015) 50 (2012) 3220 50 164 199 319 5430 8320 15600
2020-07-15 08:45 9.31 101 15600 (2015) 50 (2012) 3220 50 164 199 319 5430 8320 15600
2020-07-15 07:45 9.32 102 15600 (2015) 50 (2012) 3220 50 164 199 319 5430 8320 15600
2020-07-15 06:45 9.34 104 15600 (2015) 50 (2012) 3220 50 164 199 319 5430 8320 15600
2020-07-15 05:45 9.32 102 15600 (2015) 50 (2012) 3220 50 164 199 319 5430 8320 15600
2020-07-15 04:45 9.28 97 15600 (2015) 50 (2012) 3220 50 164 199 319 5430 8320 15600
2020-07-15 03:45 9.21 90 15600 (2015) 50 (2012) 3220 50 164 199 319 5430 8320 15600
2020-07-15 02:45 9.13 82 15600 (2015) 50 (2012) 3220 50 164 199 319 5430 8320 15600
2020-07-15 01:45 9.01 74 15600 (2015) 50 (2012) 3220 50 164 199 319 5430 8320 15600
2020-07-15 00:45 8.93 70 15600 (2015) 50 (2012) 3220 50 164 199 319 5430 8320 15600
2020-07-14 23:45 8.93 70 18500 (2015) 50 (2012) 3670 50 134 151 467 5910 8710 18500
2020-07-14 22:45 9.00 73 18500 (2015) 50 (2012) 3670 50 134 151 467 5910 8710 18500
2020-07-14 21:45 9.12 81 18500 (2015) 50 (2012) 3670 50 134 151 467 5910 8710 18500
2020-07-14 20:45 9.22 91 18500 (2015) 50 (2012) 3670 50 134 151 467 5910 8710 18500
2020-07-14 19:45 9.33 103 18500 (2015) 50 (2012) 3670 50 134 151 467 5910 8710 18500
2020-07-14 18:45 9.42 115 18500 (2015) 50 (2012) 3670 50 134 151 467 5910 8710 18500
2020-07-14 17:45 9.45 119 18500 (2015) 50 (2012) 3670 50 134 151 467 5910 8710 18500
2020-07-14 16:45 9.50 126 18500 (2015) 50 (2012) 3670 50 134 151 467 5910 8710 18500
2020-07-14 15:45 9.50 126 18500 (2015) 50 (2012) 3670 50 134 151 467 5910 8710 18500
2020-07-14 14:45 9.46 120 18500 (2015) 50 (2012) 3670 50 134 151 467 5910 8710 18500
2020-07-14 13:45 9.53 130 18500 (2015) 50 (2012) 3670 50 134 151 467 5910 8710 18500
2020-07-14 12:45 9.58 138 18500 (2015) 50 (2012) 3670 50 134 151 467 5910 8710 18500
2020-07-14 11:45 9.57 136 18500 (2015) 50 (2012) 3670 50 134 151 467 5910 8710 18500
2020-07-14 10:45 9.58 138 18500 (2015) 50 (2012) 3670 50 134 151 467 5910 8710 18500
2020-07-14 09:45 9.66 150 18500 (2015) 50 (2012) 3670 50 134 151 467 5910 8710 18500
2020-07-14 08:45 9.64 147 18500 (2015) 50 (2012) 3670 50 134 151 467 5910 8710 18500
2020-07-14 07:45 9.63 145 18500 (2015) 50 (2012) 3670 50 134 151 467 5910 8710 18500
2020-07-14 06:45 9.69 155 18500 (2015) 50 (2012) 3670 50 134 151 467 5910 8710 18500
2020-07-14 05:45 9.70 157 18500 (2015) 50 (2012) 3670 50 134 151 467 5910 8710 18500
2020-07-14 04:45 9.69 155 18500 (2015) 50 (2012) 3670 50 134 151 467 5910 8710 18500
2020-07-14 03:45 9.63 145 18500 (2015) 50 (2012) 3670 50 134 151 467 5910 8710 18500
2020-07-14 02:45 9.52 129 18500 (2015) 50 (2012) 3670 50 134 151 467 5910 8710 18500
2020-07-14 01:45 9.40 112 18500 (2015) 50 (2012) 3670 50 134 151 467 5910 8710 18500
2020-07-14 00:45 9.28 97 18500 (2015) 50 (2012) 3670 50 134 151 467 5910 8710 18500
2020-07-13 23:45 9.22 91 19300 (2015) 50 (2012) 3780 50 135 199 603 5820 9310 19300
2020-07-13 22:45 9.24 92 19300 (2015) 50 (2012) 3780 50 135 199 603 5820 9310 19300
2020-07-13 21:45 9.37 108 19300 (2015) 50 (2012) 3780 50 135 199 603 5820 9310 19300
2020-07-13 20:45 9.49 125 19300 (2015) 50 (2012) 3780 50 135 199 603 5820 9310 19300
2020-07-13 19:45 9.58 138 19300 (2015) 50 (2012) 3780 50 135 199 603 5820 9310 19300
2020-07-13 18:45 9.68 153 19300 (2015) 50 (2012) 3780 50 135 199 603 5820 9310 19300
2020-07-13 17:45 9.72 160 19300 (2015) 50 (2012) 3780 50 135 199 603 5820 9310 19300
2020-07-13 16:45 9.71 159 19300 (2015) 50 (2012) 3780 50 135 199 603 5820 9310 19300
2020-07-13 15:45 9.71 159 19300 (2015) 50 (2012) 3780 50 135 199 603 5820 9310 19300
2020-07-13 14:45 9.77 169 19300 (2015) 50 (2012) 3780 50 135 199 603 5820 9310 19300
2020-07-13 13:45 9.76 167 19300 (2015) 50 (2012) 3780 50 135 199 603 5820 9310 19300
2020-07-13 12:45 9.81 176 19300 (2015) 50 (2012) 3780 50 135 199 603 5820 9310 19300
2020-07-13 11:45 9.81 176 19300 (2015) 50 (2012) 3780 50 135 199 603 5820 9310 19300
2020-07-13 10:45 9.82 178 19300 (2015) 50 (2012) 3780 50 135 199 603 5820 9310 19300
2020-07-13 09:45 9.84 182 19300 (2015) 50 (2012) 3780 50 135 199 603 5820 9310 19300
2020-07-13 08:45 9.84 182 19300 (2015) 50 (2012) 3780 50 135 199 603 5820 9310 19300
2020-07-13 07:45 9.82 178 19300 (2015) 50 (2012) 3780 50 135 199 603 5820 9310 19300
2020-07-13 06:45 9.79 173 19300 (2015) 50 (2012) 3780 50 135 199 603 5820 9310 19300
2020-07-13 05:45 9.75 166 19300 (2015) 50 (2012) 3780 50 135 199 603 5820 9310 19300
2020-07-13 04:45 9.76 167 19300 (2015) 50 (2012) 3780 50 135 199 603 5820 9310 19300
2020-07-13 03:45 9.77 169 19300 (2015) 50 (2012) 3780 50 135 199 603 5820 9310 19300
2020-07-13 02:45 9.76 167 19300 (2015) 50 (2012) 3780 50 135 199 603 5820 9310 19300
2020-07-13 01:45 9.74 164 19300 (2015) 50 (2012) 3780 50 135 199 603 5820 9310 19300
2020-07-13 00:45 9.70 157 19300 (2015) 50 (2012) 3780 50 135 199 603 5820 9310 19300
2020-07-12 23:45 9.67 152 19800 (2015) 97 (2012) 4200 97 160 223 828 7160 10500 19800
2020-07-12 22:45 9.67 152 19800 (2015) 97 (2012) 4200 97 160 223 828 7160 10500 19800
2020-07-12 21:45 9.71 159 19800 (2015) 97 (2012) 4200 97 160 223 828 7160 10500 19800
2020-07-12 20:45 9.79 173 19800 (2015) 97 (2012) 4200 97 160 223 828 7160 10500 19800
2020-07-12 19:45 9.86 186 19800 (2015) 97 (2012) 4200 97 160 223 828 7160 10500 19800
2020-07-12 18:45 9.91 195 19800 (2015) 97 (2012) 4200 97 160 223 828 7160 10500 19800
2020-07-12 17:45 9.88 190 19800 (2015) 97 (2012) 4200 97 160 223 828 7160 10500 19800
2020-07-12 16:45 9.86 186 19800 (2015) 97 (2012) 4200 97 160 223 828 7160 10500 19800
2020-07-12 15:45 9.85 184 19800 (2015) 97 (2012) 4200 97 160 223 828 7160 10500 19800
2020-07-12 14:45 9.82 178 19800 (2015) 97 (2012) 4200 97 160 223 828 7160 10500 19800
2020-07-12 13:45 9.81 176 19800 (2015) 97 (2012) 4200 97 160 223 828 7160 10500 19800
2020-07-12 12:45 9.82 178 19800 (2015) 97 (2012) 4200 97 160 223 828 7160 10500 19800
2020-07-12 11:45 9.83 180 19800 (2015) 97 (2012) 4200 97 160 223 828 7160 10500 19800
2020-07-12 10:45 9.83 180 19800 (2015) 97 (2012) 4200 97 160 223 828 7160 10500 19800
2020-07-12 09:45 9.82 178 19800 (2015) 97 (2012) 4200 97 160 223 828 7160 10500 19800
2020-07-12 08:45 9.82 178 19800 (2015) 97 (2012) 4200 97 160 223 828 7160 10500 19800
2020-07-12 07:45 9.81 176 19800 (2015) 97 (2012) 4200 97 160 223 828 7160 10500 19800
2020-07-12 06:45 9.79 173 19800 (2015) 97 (2012) 4200 97 160 223 828 7160 10500 19800
2020-07-12 05:45 9.77 169 19800 (2015) 97 (2012) 4200 97 160 223 828 7160 10500 19800
2020-07-12 04:45 9.78 171 19800 (2015) 97 (2012) 4200 97 160 223 828 7160 10500 19800
2020-07-12 03:45 9.78 171 19800 (2015) 97 (2012) 4200 97 160 223 828 7160 10500 19800
2020-07-12 02:45 9.79 173 19800 (2015) 97 (2012) 4200 97 160 223 828 7160 10500 19800
2020-07-12 01:45 9.79 173 19800 (2015) 97 (2012) 4200 97 160 223 828 7160 10500 19800
2020-07-12 00:45 9.81 176 19800 (2015) 97 (2012) 4200 97 160 223 828 7160 10500 19800
2020-07-11 23:45 9.83 180 21000 (2015) 60 (2012) 5040 60 240 315 1210 9850 13400 21000
2020-07-11 22:45 9.85 184 21000 (2015) 60 (2012) 5040 60 240 315 1210 9850 13400 21000
2020-07-11 21:45 9.86 186 21000 (2015) 60 (2012) 5040 60 240 315 1210 9850 13400 21000
2020-07-11 20:45 9.85 184 21000 (2015) 60 (2012) 5040 60 240 315 1210 9850 13400 21000
2020-07-11 19:45 9.84 182 21000 (2015) 60 (2012) 5040 60 240 315 1210 9850 13400 21000
2020-07-11 18:45 9.82 178 21000 (2015) 60 (2012) 5040 60 240 315 1210 9850 13400 21000
2020-07-11 17:45 9.79 173 21000 (2015) 60 (2012) 5040 60 240 315 1210 9850 13400 21000
2020-07-11 16:45 9.78 171 21000 (2015) 60 (2012) 5040 60 240 315 1210 9850 13400 21000
2020-07-11 15:45 9.78 171 21000 (2015) 60 (2012) 5040 60 240 315 1210 9850 13400 21000
2020-07-11 14:45 9.76 167 21000 (2015) 60 (2012) 5040 60 240 315 1210 9850 13400 21000
2020-07-11 13:45 9.83 180 21000 (2015) 60 (2012) 5040 60 240 315 1210 9850 13400 21000
2020-07-11 12:45 9.87 188 21000 (2015) 60 (2012) 5040 60 240 315 1210 9850 13400 21000
2020-07-11 11:45 9.92 197 21000 (2015) 60 (2012) 5040 60 240 315 1210 9850 13400 21000
2020-07-11 10:45 9.94 201 21000 (2015) 60 (2012) 5040 60 240 315 1210 9850 13400 21000
2020-07-11 09:45 9.95 203 21000 (2015) 60 (2012) 5040 60 240 315 1210 9850 13400 21000
2020-07-11 08:45 9.94 201 21000 (2015) 60 (2012) 5040 60 240 315 1210 9850 13400 21000
2020-07-11 07:45 9.99 211 21000 (2015) 60 (2012) 5040 60 240 315 1210 9850 13400 21000
2020-07-11 06:45 10.01 216 21000 (2015) 60 (2012) 5040 60 240 315 1210 9850 13400 21000
2020-07-11 05:45 1 214 21000 (2015) 60 (2012) 5040 60 240 315 1210 9850 13400 21000
2020-07-11 04:45 9.98 209 21000 (2015) 60 (2012) 5040 60 240 315 1210 9850 13400 21000
2020-07-11 03:45 9.92 197 21000 (2015) 60 (2012) 5040 60 240 315 1210 9850 13400 21000
2020-07-11 02:45 9.80 175 21000 (2015) 60 (2012) 5040 60 240 315 1210 9850 13400 21000
2020-07-11 01:45 9.71 159 21000 (2015) 60 (2012) 5040 60 240 315 1210 9850 13400 21000
2020-07-11 00:45 9.64 147 21000 (2015) 60 (2012) 5040 60 240 315 1210 9850 13400 21000
2020-07-10 23:45 9.63 145 20800 (2015) 54 (2011) 5870 54 67 102 2320 13200 17700 20800
2020-07-10 22:45 9.66 150 20800 (2015) 54 (2011) 5870 54 67 102 2320 13200 17700 20800
2020-07-10 21:45 9.72 160 20800 (2015) 54 (2011) 5870 54 67 102 2320 13200 17700 20800
2020-07-10 20:45 9.80 175 20800 (2015) 54 (2011) 5870 54 67 102 2320 13200 17700 20800
2020-07-10 19:45 9.88 190 20800 (2015) 54 (2011) 5870 54 67 102 2320 13200 17700 20800
2020-07-10 18:45 9.94 201 20800 (2015) 54 (2011) 5870 54 67 102 2320 13200 17700 20800
2020-07-10 17:45 9.97 207 20800 (2015) 54 (2011) 5870 54 67 102 2320 13200 17700 20800
2020-07-10 16:45 9.99 211 20800 (2015) 54 (2011) 5870 54 67 102 2320 13200 17700 20800
2020-07-10 15:45 10.01 216 20800 (2015) 54 (2011) 5870 54 67 102 2320 13200 17700 20800
2020-07-10 14:45 10.02 218 20800 (2015) 54 (2011) 5870 54 67 102 2320 13200 17700 20800
2020-07-10 13:45 10.04 222 20800 (2015) 54 (2011) 5870 54 67 102 2320 13200 17700 20800
2020-07-10 12:45 10.07 229 20800 (2015) 54 (2011) 5870 54 67 102 2320 13200 17700 20800
2020-07-10 11:45 10.09 234 20800 (2015) 54 (2011) 5870 54 67 102 2320 13200 17700 20800
2020-07-10 10:45 10.14 246 20800 (2015) 54 (2011) 5870 54 67 102 2320 13200 17700 20800
2020-07-10 09:45 10.13 244 20800 (2015) 54 (2011) 5870 54 67 102 2320 13200 17700 20800
2020-07-10 08:45 10.15 249 20800 (2015) 54 (2011) 5870 54 67 102 2320 13200 17700 20800
2020-07-10 07:45 10.16 251 20800 (2015) 54 (2011) 5870 54 67 102 2320 13200 17700 20800
2020-07-10 06:45 10.16 251 20800 (2015) 54 (2011) 5870 54 67 102 2320 13200 17700 20800
2020-07-10 05:45 10.17 254 20800 (2015) 54 (2011) 5870 54 67 102 2320 13200 17700 20800
2020-07-10 04:45 10.17 254 20800 (2015) 54 (2011) 5870 54 67 102 2320 13200 17700 20800
2020-07-10 03:45 10.15 249 20800 (2015) 54 (2011) 5870 54 67 102 2320 13200 17700 20800
2020-07-10 02:45 10.08 232 20800 (2015) 54 (2011) 5870 54 67 102 2320 13200 17700 20800
2020-07-10 01:45 9.96 205 20800 (2015) 54 (2011) 5870 54 67 102 2320 13200 17700 20800
2020-07-10 00:45 9.83 180 20800 (2015) 54 (2011) 5870 54 67 102 2320 13200 17700 20800
2020-07-09 23:45 9.73 162 21000 (2019) 50 (2012) 6200 50 97 171 3580 13100 17700 21000
2020-07-09 22:45 9.73 162 21000 (2019) 50 (2012) 6200 50 97 171 3580 13100 17700 21000
2020-07-09 21:45 9.80 175 21000 (2019) 50 (2012) 6200 50 97 171 3580 13100 17700 21000
2020-07-09 20:45 9.87 188 21000 (2019) 50 (2012) 6200 50 97 171 3580 13100 17700 21000
2020-07-09 19:45 1 214 21000 (2019) 50 (2012) 6200 50 97 171 3580 13100 17700 21000
2020-07-09 18:45 10.11 239 21000 (2019) 50 (2012) 6200 50 97 171 3580 13100 17700 21000
2020-07-09 17:45 10.16 251 21000 (2019) 50 (2012) 6200 50 97 171 3580 13100 17700 21000
2020-07-09 16:45 10.19 259 21000 (2019) 50 (2012) 6200 50 97 171 3580 13100 17700 21000
2020-07-09 15:45 10.21 264 21000 (2019) 50 (2012) 6200 50 97 171 3580 13100 17700 21000
2020-07-09 14:45 10.23 269 21000 (2019) 50 (2012) 6200 50 97 171 3580 13100 17700 21000
2020-07-09 13:45 10.24 272 21000 (2019) 50 (2012) 6200 50 97 171 3580 13100 17700 21000
2020-07-09 12:45 10.27 280 21000 (2019) 50 (2012) 6200 50 97 171 3580 13100 17700 21000
2020-07-09 11:45 10.25 274 21000 (2019) 50 (2012) 6200 50 97 171 3580 13100 17700 21000
2020-07-09 10:45 10.29 285 21000 (2019) 50 (2012) 6200 50 97 171 3580 13100 17700 21000
2020-07-09 09:45 10.30 288 21000 (2019) 50 (2012) 6200 50 97 171 3580 13100 17700 21000
2020-07-09 08:45 10.36 304 21000 (2019) 50 (2012) 6200 50 97 171 3580 13100 17700 21000
2020-07-09 07:45 10.34 299 21000 (2019) 50 (2012) 6200 50 97 171 3580 13100 17700 21000
2020-07-09 06:45 10.36 304 21000 (2019) 50 (2012) 6200 50 97 171 3580 13100 17700 21000
2020-07-09 05:45 10.37 307 21000 (2019) 50 (2012) 6200 50 97 171 3580 13100 17700 21000
2020-07-09 04:45 10.39 313 21000 (2019) 50 (2012) 6200 50 97 171 3580 13100 17700 21000
2020-07-09 03:45 10.34 299 21000 (2019) 50 (2012) 6200 50 97 171 3580 13100 17700 21000
2020-07-09 02:45 10.24 272 21000 (2019) 50 (2012) 6200 50 97 171 3580 13100 17700 21000
2020-07-09 01:45 10.12 241 21000 (2019) 50 (2012) 6200 50 97 171 3580 13100 17700 21000
2020-07-09 00:45 10.01 216 21000 (2019) 50 (2012) 6200 50 97 171 3580 13100 17700 21000
2020-07-08 23:45 9.99 211 23200 (2019) 50 (2012) 5800 50 167 256 3930 9470 11400 23200
2020-07-08 22:45 10.05 225 23200 (2019) 50 (2012) 5800 50 167 256 3930 9470 11400 23200
2020-07-08 21:45 10.14 246 23200 (2019) 50 (2012) 5800 50 167 256 3930 9470 11400 23200
2020-07-08 20:45 10.23 269 23200 (2019) 50 (2012) 5800 50 167 256 3930 9470 11400 23200
2020-07-08 19:45 10.28 282 23200 (2019) 50 (2012) 5800 50 167 256 3930 9470 11400 23200
2020-07-08 18:45 10.31 290 23200 (2019) 50 (2012) 5800 50 167 256 3930 9470 11400 23200
2020-07-08 17:45 10.34 299 23200 (2019) 50 (2012) 5800 50 167 256 3930 9470 11400 23200
2020-07-08 16:45 10.37 307 23200 (2019) 50 (2012) 5800 50 167 256 3930 9470 11400 23200
2020-07-08 15:45 10.38 310 23200 (2019) 50 (2012) 5800 50 167 256 3930 9470 11400 23200
2020-07-08 14:45 10.37 307 23200 (2019) 50 (2012) 5800 50 167 256 3930 9470 11400 23200
2020-07-08 13:45 10.41 318 23200 (2019) 50 (2012) 5800 50 167 256 3930 9470 11400 23200
2020-07-08 12:45 10.45 330 23200 (2019) 50 (2012) 5800 50 167 256 3930 9470 11400 23200
2020-07-08 11:45 10.47 336 23200 (2019) 50 (2012) 5800 50 167 256 3930 9470 11400 23200
2020-07-08 10:45 10.50 345 23200 (2019) 50 (2012) 5800 50 167 256 3930 9470 11400 23200
2020-07-08 09:45 10.52 351 23200 (2019) 50 (2012) 5800 50 167 256 3930 9470 11400 23200
2020-07-08 08:45 10.55 361 23200 (2019) 50 (2012) 5800 50 167 256 3930 9470 11400 23200
2020-07-08 07:45 10.57 367 23200 (2019) 50 (2012) 5800 50 167 256 3930 9470 11400 23200
2020-07-08 06:45 10.60 377 23200 (2019) 50 (2012) 5800 50 167 256 3930 9470 11400 23200
2020-07-08 05:45 10.62 383 23200 (2019) 50 (2012) 5800 50 167 256 3930 9470 11400 23200
2020-07-08 04:45 10.59 373 23200 (2019) 50 (2012) 5800 50 167 256 3930 9470 11400 23200
2020-07-08 03:45 10.51 348 23200 (2019) 50 (2012) 5800 50 167 256 3930 9470 11400 23200
2020-07-08 02:45 10.37 307 23200 (2019) 50 (2012) 5800 50 167 256 3930 9470 11400 23200
2020-07-08 01:45 10.22 266 23200 (2019) 50 (2012) 5800 50 167 256 3930 9470 11400 23200
2020-07-08 00:45 10.17 254 23200 (2019) 50 (2012) 5800 50 167 256 3930 9470 11400 23200
2020-07-07 23:45 10.18 256 20300 (2019) 50 (2012) 5650 50 140 237 4090 10200 13200 20300
2020-07-07 22:45 10.25 274 20300 (2019) 50 (2012) 5650 50 140 237 4090 10200 13200 20300
2020-07-07 21:45 10.33 296 20300 (2019) 50 (2012) 5650 50 140 237 4090 10200 13200 20300
2020-07-07 20:45 10.41 318 20300 (2019) 50 (2012) 5650 50 140 237 4090 10200 13200 20300
2020-07-07 19:45 10.53 354 20300 (2019) 50 (2012) 5650 50 140 237 4090 10200 13200 20300
2020-07-07 18:45 10.56 364 20300 (2019) 50 (2012) 5650 50 140 237 4090 10200 13200 20300
2020-07-07 17:45 10.65 393 20300 (2019) 50 (2012) 5650 50 140 237 4090 10200 13200 20300
2020-07-07 16:45 10.68 403 20300 (2019) 50 (2012) 5650 50 140 237 4090 10200 13200 20300
2020-07-07 15:45 10.71 413 20300 (2019) 50 (2012) 5650 50 140 237 4090 10200 13200 20300
2020-07-07 14:45 10.73 420 20300 (2019) 50 (2012) 5650 50 140 237 4090 10200 13200 20300
2020-07-07 13:45 10.76 430 20300 (2019) 50 (2012) 5650 50 140 237 4090 10200 13200 20300
2020-07-07 12:45 10.77 434 20300 (2019) 50 (2012) 5650 50 140 237 4090 10200 13200 20300
2020-07-07 11:45 10.77 434 20300 (2019) 50 (2012) 5650 50 140 237 4090 10200 13200 20300
2020-07-07 10:45 10.82 451 20300 (2019) 50 (2012) 5650 50 140 237 4090 10200 13200 20300
2020-07-07 09:45 10.84 459 20300 (2019) 50 (2012) 5650 50 140 237 4090 10200 13200 20300
2020-07-07 08:45 10.84 459 20300 (2019) 50 (2012) 5650 50 140 237 4090 10200 13200 20300
2020-07-07 07:45 10.84 459 20300 (2019) 50 (2012) 5650 50 140 237 4090 10200 13200 20300
2020-07-07 06:45 10.84 459 20300 (2019) 50 (2012) 5650 50 140 237 4090 10200 13200 20300
2020-07-07 05:45 10.85 462 20300 (2019) 50 (2012) 5650 50 140 237 4090 10200 13200 20300
2020-07-07 04:45 10.85 462 20300 (2019) 50 (2012) 5650 50 140 237 4090 10200 13200 20300
2020-07-07 03:45 10.82 451 20300 (2019) 50 (2012) 5650 50 140 237 4090 10200 13200 20300
2020-07-07 02:45 10.74 423 20300 (2019) 50 (2012) 5650 50 140 237 4090 10200 13200 20300
2020-07-07 01:45 10.61 380 20300 (2019) 50 (2012) 5650 50 140 237 4090 10200 13200 20300
2020-07-07 00:45 10.47 336 20300 (2019) 50 (2012) 5650 50 140 237 4090 10200 13200 20300
2020-07-06 23:45 10.43 324 14900 (2019) 50 (2012) 5810 50 133 327 3220 12200 13600 14900
2020-07-06 22:45 10.47 336 14900 (2019) 50 (2012) 5810 50 133 327 3220 12200 13600 14900
2020-07-06 21:45 10.53 354 14900 (2019) 50 (2012) 5810 50 133 327 3220 12200 13600 14900
2020-07-06 20:45 10.61 380 14900 (2019) 50 (2012) 5810 50 133 327 3220 12200 13600 14900
2020-07-06 19:45 10.69 406 14900 (2019) 50 (2012) 5810 50 133 327 3220 12200 13600 14900
2020-07-06 18:45 10.74 423 14900 (2019) 50 (2012) 5810 50 133 327 3220 12200 13600 14900
2020-07-06 17:45 10.75 427 14900 (2019) 50 (2012) 5810 50 133 327 3220 12200 13600 14900
2020-07-06 16:45 10.73 420 14900 (2019) 50 (2012) 5810 50 133 327 3220 12200 13600 14900
2020-07-06 15:45 10.76 430 14900 (2019) 50 (2012) 5810 50 133 327 3220 12200 13600 14900
2020-07-06 14:45 10.74 423 14900 (2019) 50 (2012) 5810 50 133 327 3220 12200 13600 14900
2020-07-06 13:45 10.76 430 14900 (2019) 50 (2012) 5810 50 133 327 3220 12200 13600 14900
2020-07-06 12:45 10.76 430 14900 (2019) 50 (2012) 5810 50 133 327 3220 12200 13600 14900
2020-07-06 11:45 10.77 434 14900 (2019) 50 (2012) 5810 50 133 327 3220 12200 13600 14900
2020-07-06 10:45 10.79 441 14900 (2019) 50 (2012) 5810 50 133 327 3220 12200 13600 14900
2020-07-06 09:45 10.80 444 14900 (2019) 50 (2012) 5810 50 133 327 3220 12200 13600 14900
2020-07-06 08:45 10.81 448 14900 (2019) 50 (2012) 5810 50 133 327 3220 12200 13600 14900
2020-07-06 07:45 10.77 434 14900 (2019) 50 (2012) 5810 50 133 327 3220 12200 13600 14900
2020-07-06 06:45 10.79 441 14900 (2019) 50 (2012) 5810 50 133 327 3220 12200 13600 14900
2020-07-06 05:45 10.77 434 14900 (2019) 50 (2012) 5810 50 133 327 3220 12200 13600 14900
2020-07-06 04:45 10.77 434 14900 (2019) 50 (2012) 5810 50 133 327 3220 12200 13600 14900
2020-07-06 03:45 10.78 437 14900 (2019) 50 (2012) 5810 50 133 327 3220 12200 13600 14900
2020-07-06 02:45 10.75 427 14900 (2019) 50 (2012) 5810 50 133 327 3220 12200 13600 14900
2020-07-06 01:45 10.70 410 14900 (2019) 50 (2012) 5810 50 133 327 3220 12200 13600 14900
2020-07-06 00:45 10.66 396 14900 (2019) 50 (2012) 5810 50 133 327 3220 12200 13600 14900
2020-07-05 23:45 10.64 390 16100 (2015) 50 (2012) 4920 50 304 463 1910 10200 11400 16100
2020-07-05 22:45 10.68 403 16100 (2015) 50 (2012) 4920 50 304 463 1910 10200 11400 16100
2020-07-05 21:45 10.77 434 16100 (2015) 50 (2012) 4920 50 304 463 1910 10200 11400 16100
2020-07-05 20:45 10.83 455 16100 (2015) 50 (2012) 4920 50 304 463 1910 10200 11400 16100
2020-07-05 19:45 10.86 466 16100 (2015) 50 (2012) 4920 50 304 463 1910 10200 11400 16100
2020-07-05 18:45 10.85 462 16100 (2015) 50 (2012) 4920 50 304 463 1910 10200 11400 16100
2020-07-05 17:45 10.84 459 16100 (2015) 50 (2012) 4920 50 304 463 1910 10200 11400 16100
2020-07-05 16:45 10.83 455 16100 (2015) 50 (2012) 4920 50 304 463 1910 10200 11400 16100
2020-07-05 15:45 10.80 444 16100 (2015) 50 (2012) 4920 50 304 463 1910 10200 11400 16100
2020-07-05 14:45 10.77 434 16100 (2015) 50 (2012) 4920 50 304 463 1910 10200 11400 16100
2020-07-05 13:45 10.79 441 16100 (2015) 50 (2012) 4920 50 304 463 1910 10200 11400 16100
2020-07-05 12:45 10.79 441 16100 (2015) 50 (2012) 4920 50 304 463 1910 10200 11400 16100
2020-07-05 11:45 10.76 430 16100 (2015) 50 (2012) 4920 50 304 463 1910 10200 11400 16100
2020-07-05 10:45 10.74 423 16100 (2015) 50 (2012) 4920 50 304 463 1910 10200 11400 16100
2020-07-05 09:45 10.79 441 16100 (2015) 50 (2012) 4920 50 304 463 1910 10200 11400 16100
2020-07-05 08:45 10.79 441 16100 (2015) 50 (2012) 4920 50 304 463 1910 10200 11400 16100
2020-07-05 07:45 10.81 448 16100 (2015) 50 (2012) 4920 50 304 463 1910 10200 11400 16100
2020-07-05 06:45 10.84 459 16100 (2015) 50 (2012) 4920 50 304 463 1910 10200 11400 16100
2020-07-05 05:45 10.84 459 16100 (2015) 50 (2012) 4920 50 304 463 1910 10200 11400 16100
2020-07-05 04:45 10.83 455 16100 (2015) 50 (2012) 4920 50 304 463 1910 10200 11400 16100
2020-07-05 03:45 10.82 451 16100 (2015) 50 (2012) 4920 50 304 463 1910 10200 11400 16100
2020-07-05 02:45 10.82 451 16100 (2015) 50 (2012) 4920 50 304 463 1910 10200 11400 16100
2020-07-05 01:45 10.81 448 16100 (2015) 50 (2012) 4920 50 304 463 1910 10200 11400 16100
2020-07-05 00:45 10.80 444 16100 (2015) 50 (2012) 4920 50 304 463 1910 10200 11400 16100
2020-07-04 23:45 10.80 444 17100 (2015) 50 (2012) 5210 50 313 442 3550 9930 11800 17100
2020-07-04 22:45 10.80 444 17100 (2015) 50 (2012) 5210 50 313 442 3550 9930 11800 17100
2020-07-04 21:45 10.83 455 17100 (2015) 50 (2012) 5210 50 313 442 3550 9930 11800 17100
2020-07-04 20:45 10.86 466 17100 (2015) 50 (2012) 5210 50 313 442 3550 9930 11800 17100
2020-07-04 19:45 10.86 466 17100 (2015) 50 (2012) 5210 50 313 442 3550 9930 11800 17100
2020-07-04 18:45 10.84 459 17100 (2015) 50 (2012) 5210 50 313 442 3550 9930 11800 17100
2020-07-04 17:45 10.86 466 17100 (2015) 50 (2012) 5210 50 313 442 3550 9930 11800 17100
2020-07-04 16:45 10.88 473 17100 (2015) 50 (2012) 5210 50 313 442 3550 9930 11800 17100
2020-07-04 15:45 10.86 466 17100 (2015) 50 (2012) 5210 50 313 442 3550 9930 11800 17100
2020-07-04 14:45 10.87 470 17100 (2015) 50 (2012) 5210 50 313 442 3550 9930 11800 17100
2020-07-04 13:45 10.86 466 17100 (2015) 50 (2012) 5210 50 313 442 3550 9930 11800 17100
2020-07-04 12:45 10.85 462 17100 (2015) 50 (2012) 5210 50 313 442 3550 9930 11800 17100
2020-07-04 11:45 10.84 459 17100 (2015) 50 (2012) 5210 50 313 442 3550 9930 11800 17100
2020-07-04 10:45 10.83 455 17100 (2015) 50 (2012) 5210 50 313 442 3550 9930 11800 17100
2020-07-04 09:45 10.89 477 17100 (2015) 50 (2012) 5210 50 313 442 3550 9930 11800 17100
2020-07-04 08:45 10.89 477 17100 (2015) 50 (2012) 5210 50 313 442 3550 9930 11800 17100
2020-07-04 07:45 10.88 473 17100 (2015) 50 (2012) 5210 50 313 442 3550 9930 11800 17100
2020-07-04 06:45 10.89 477 17100 (2015) 50 (2012) 5210 50 313 442 3550 9930 11800 17100
2020-07-04 05:45 10.86 466 17100 (2015) 50 (2012) 5210 50 313 442 3550 9930 11800 17100
2020-07-04 04:45 10.85 462 17100 (2015) 50 (2012) 5210 50 313 442 3550 9930 11800 17100
2020-07-04 03:45 10.84 459 17100 (2015) 50 (2012) 5210 50 313 442 3550 9930 11800 17100
2020-07-04 02:45 10.81 448 17100 (2015) 50 (2012) 5210 50 313 442 3550 9930 11800 17100
2020-07-04 01:45 10.71 413 17100 (2015) 50 (2012) 5210 50 313 442 3550 9930 11800 17100
2020-07-04 00:45 10.57 367 17100 (2015) 50 (2012) 5210 50 313 442 3550 9930 11800 17100
2020-07-03 23:45 10.52 351 14700 (2015) 50 (2012) 5010 50 284 527 3260 9820 13800 14700
2020-07-03 22:45 10.54 358 14700 (2015) 50 (2012) 5010 50 284 527 3260 9820 13800 14700
2020-07-03 21:45 10.57 367 14700 (2015) 50 (2012) 5010 50 284 527 3260 9820 13800 14700
2020-07-03 20:45 10.65 393 14700 (2015) 50 (2012) 5010 50 284 527 3260 9820 13800 14700
2020-07-03 19:45 10.72 416 14700 (2015) 50 (2012) 5010 50 284 527 3260 9820 13800 14700
2020-07-03 18:45 10.74 423 14700 (2015) 50 (2012) 5010 50 284 527 3260 9820 13800 14700
2020-07-03 17:45 10.76 430 14700 (2015) 50 (2012) 5010 50 284 527 3260 9820 13800 14700
2020-07-03 16:45 10.77 434 14700 (2015) 50 (2012) 5010 50 284 527 3260 9820 13800 14700
2020-07-03 15:45 10.77 434 14700 (2015) 50 (2012) 5010 50 284 527 3260 9820 13800 14700
2020-07-03 14:45 10.76 430 14700 (2015) 50 (2012) 5010 50 284 527 3260 9820 13800 14700
2020-07-03 13:45 10.74 423 14700 (2015) 50 (2012) 5010 50 284 527 3260 9820 13800 14700
2020-07-03 12:45 10.70 410 14700 (2015) 50 (2012) 5010 50 284 527 3260 9820 13800 14700
2020-07-03 11:45 10.66 396 14700 (2015) 50 (2012) 5010 50 284 527 3260 9820 13800 14700
2020-07-03 10:45 10.66 396 14700 (2015) 50 (2012) 5010 50 284 527 3260 9820 13800 14700
2020-07-03 09:45 10.68 403 14700 (2015) 50 (2012) 5010 50 284 527 3260 9820 13800 14700
2020-07-03 08:45 10.70 410 14700 (2015) 50 (2012) 5010 50 284 527 3260 9820 13800 14700
2020-07-03 07:45 10.73 420 14700 (2015) 50 (2012) 5010 50 284 527 3260 9820 13800 14700
2020-07-03 06:45 10.78 437 14700 (2015) 50 (2012) 5010 50 284 527 3260 9820 13800 14700
2020-07-03 05:45 10.83 455 14700 (2015) 50 (2012) 5010 50 284 527 3260 9820 13800 14700
2020-07-03 04:45 10.85 462 14700 (2015) 50 (2012) 5010 50 284 527 3260 9820 13800 14700
2020-07-03 03:45 10.81 448 14700 (2015) 50 (2012) 5010 50 284 527 3260 9820 13800 14700
2020-07-03 02:45 10.72 416 14700 (2015) 50 (2012) 5010 50 284 527 3260 9820 13800 14700
2020-07-03 01:45 10.63 386 14700 (2015) 50 (2012) 5010 50 284 527 3260 9820 13800 14700
2020-07-03 00:45 10.57 367 14700 (2015) 50 (2012) 5010 50 284 527 3260 9820 13800 14700
2020-07-02 23:45 10.59 373 16800 (2019) 50 (2012) 4540 50 191 397 921 9050 11900 16800
2020-07-02 22:45 10.65 393 16800 (2019) 50 (2012) 4540 50 191 397 921 9050 11900 16800
2020-07-02 21:45 10.75 427 16800 (2019) 50 (2012) 4540 50 191 397 921 9050 11900 16800
2020-07-02 20:45 10.85 462 16800 (2019) 50 (2012) 4540 50 191 397 921 9050 11900 16800
2020-07-02 19:45 10.96 504 16800 (2019) 50 (2012) 4540 50 191 397 921 9050 11900 16800
2020-07-02 18:45 10.99 515 16800 (2019) 50 (2012) 4540 50 191 397 921 9050 11900 16800
2020-07-02 17:45 11.06 543 16800 (2019) 50 (2012) 4540 50 191 397 921 9050 11900 16800
2020-07-02 16:45 11.07 547 16800 (2019) 50 (2012) 4540 50 191 397 921 9050 11900 16800
2020-07-02 15:45 11.09 555 16800 (2019) 50 (2012) 4540 50 191 397 921 9050 11900 16800
2020-07-02 14:45 11.07 547 16800 (2019) 50 (2012) 4540 50 191 397 921 9050 11900 16800
2020-07-02 13:45 11.08 551 16800 (2019) 50 (2012) 4540 50 191 397 921 9050 11900 16800
2020-07-02 12:45 11.08 551 16800 (2019) 50 (2012) 4540 50 191 397 921 9050 11900 16800
2020-07-02 11:45 11.13 572 16800 (2019) 50 (2012) 4540 50 191 397 921 9050 11900 16800
2020-07-02 10:45 11.14 576 16800 (2019) 50 (2012) 4540 50 191 397 921 9050 11900 16800
2020-07-02 09:45 11.15 581 16800 (2019) 50 (2012) 4540 50 191 397 921 9050 11900 16800
2020-07-02 08:45 11.16 585 16800 (2019) 50 (2012) 4540 50 191 397 921 9050 11900 16800
2020-07-02 07:45 11.17 16800 (2019) 50 (2012) 4540 50 191 397 921 9050 11900 16800
2020-07-02 06:45 11.18 16800 (2019) 50 (2012) 4540 50 191 397 921 9050 11900 16800
2020-07-02 05:45 11.18 16800 (2019) 50 (2012) 4540 50 191 397 921 9050 11900 16800
2020-07-02 04:45 11.18 16800 (2019) 50 (2012) 4540 50 191 397 921 9050 11900 16800
2020-07-02 03:45 11.16 16800 (2019) 50 (2012) 4540 50 191 397 921 9050 11900 16800
2020-07-02 02:45 11.11 16800 (2019) 50 (2012) 4540 50 191 397 921 9050 11900 16800
2020-07-02 01:45 11.00 16800 (2019) 50 (2012) 4540 50 191 397 921 9050 11900 16800
2020-07-02 00:45 10.96 16800 (2019) 50 (2012) 4540 50 191 397 921 9050 11900 16800
2020-07-01 23:45 10.94 21800 (2019) 50 (2012) 4920 50 324 371 1090 8810 14800 21800
2020-07-01 22:45 10.98 21800 (2019) 50 (2012) 4920 50 324 371 1090 8810 14800 21800
2020-07-01 21:45 11.03 21800 (2019) 50 (2012) 4920 50 324 371 1090 8810 14800 21800
2020-07-01 20:45 11.12 21800 (2019) 50 (2012) 4920 50 324 371 1090 8810 14800 21800
2020-07-01 19:45 11.15 21800 (2019) 50 (2012) 4920 50 324 371 1090 8810 14800 21800
2020-07-01 18:45 11.20 21800 (2019) 50 (2012) 4920 50 324 371 1090 8810 14800 21800
2020-07-01 17:45 11.27 21800 (2019) 50 (2012) 4920 50 324 371 1090 8810 14800 21800
2020-07-01 16:45 11.35 21800 (2019) 50 (2012) 4920 50 324 371 1090 8810 14800 21800
2020-07-01 15:45 11.41 21800 (2019) 50 (2012) 4920 50 324 371 1090 8810 14800 21800
2020-07-01 14:45 11.48 21800 (2019) 50 (2012) 4920 50 324 371 1090 8810 14800 21800
2020-07-01 13:45 11.52 21800 (2019) 50 (2012) 4920 50 324 371 1090 8810 14800 21800
2020-07-01 12:45 11.52 21800 (2019) 50 (2012) 4920 50 324 371 1090 8810 14800 21800
2020-07-01 11:45 11.56 21800 (2019) 50 (2012) 4920 50 324 371 1090 8810 14800 21800
2020-07-01 10:45 11.56 21800 (2019) 50 (2012) 4920 50 324 371 1090 8810 14800 21800
2020-07-01 09:45 11.58 21800 (2019) 50 (2012) 4920 50 324 371 1090 8810 14800 21800
2020-07-01 08:45 11.63 21800 (2019) 50 (2012) 4920 50 324 371 1090 8810 14800 21800
2020-07-01 07:45 11.68 21800 (2019) 50 (2012) 4920 50 324 371 1090 8810 14800 21800
2020-07-01 06:45 11.71 21800 (2019) 50 (2012) 4920 50 324 371 1090 8810 14800 21800
2020-07-01 05:45 11.73 21800 (2019) 50 (2012) 4920 50 324 371 1090 8810 14800 21800
2020-07-01 04:45 11.78 21800 (2019) 50 (2012) 4920 50 324 371 1090 8810 14800 21800
2020-07-01 03:45 11.86 21800 (2019) 50 (2012) 4920 50 324 371 1090 8810 14800 21800
2020-07-01 02:45 11.91 21800 (2019) 50 (2012) 4920 50 324 371 1090 8810 14800 21800
2020-07-01 01:45 11.99 21800 (2019) 50 (2012) 4920 50 324 371 1090 8810 14800 21800
2020-07-01 00:45 12.09 21800 (2019) 50 (2012) 4920 50 324 371 1090 8810 14800 21800
2020-06-30 23:45 12.20 27100 (2019) 50 (2012) 5840 50 322 432 1150 10300 17100 27100
2020-06-30 22:45 12.33 27100 (2019) 50 (2012) 5840 50 322 432 1150 10300 17100 27100
2020-06-30 21:45 12.48 27100 (2019) 50 (2012) 5840 50 322 432 1150 10300 17100 27100
2020-06-30 20:45 12.60 27100 (2019) 50 (2012) 5840 50 322 432 1150 10300 17100 27100
2020-06-30 19:45 12.69 27100 (2019) 50 (2012) 5840 50 322 432 1150 10300 17100 27100
2020-06-30 18:45 12.80 27100 (2019) 50 (2012) 5840 50 322 432 1150 10300 17100 27100
2020-06-30 17:45 12.89 27100 (2019) 50 (2012) 5840 50 322 432 1150 10300 17100 27100
2020-06-30 16:45 12.99 27100 (2019) 50 (2012) 5840 50 322 432 1150 10300 17100 27100
2020-06-30 15:45 13.14 27100 (2019) 50 (2012) 5840 50 322 432 1150 10300 17100 27100
2020-06-30 14:45 13.20 27100 (2019) 50 (2012) 5840 50 322 432 1150 10300 17100 27100
2020-06-30 13:45 13.30 27100 (2019) 50 (2012) 5840 50 322 432 1150 10300 17100 27100
2020-06-30 12:45 13.29 27100 (2019) 50 (2012) 5840 50 322 432 1150 10300 17100 27100
2020-06-30 11:45 13.42 27100 (2019) 50 (2012) 5840 50 322 432 1150 10300 17100 27100
2020-06-30 10:45 13.43 27100 (2019) 50 (2012) 5840 50 322 432 1150 10300 17100 27100
2020-06-30 09:45 13.46 27100 (2019) 50 (2012) 5840 50 322 432 1150 10300 17100 27100
2020-06-30 08:45 13.52 27100 (2019) 50 (2012) 5840 50 322 432 1150 10300 17100 27100
2020-06-30 07:45 13.53 27100 (2019) 50 (2012) 5840 50 322 432 1150 10300 17100 27100
2020-06-30 06:45 13.53 27100 (2019) 50 (2012) 5840 50 322 432 1150 10300 17100 27100
2020-06-30 05:45 13.52 27100 (2019) 50 (2012) 5840 50 322 432 1150 10300 17100 27100
2020-06-30 04:45 13.48 27100 (2019) 50 (2012) 5840 50 322 432 1150 10300 17100 27100
2020-06-30 03:45 13.46 27100 (2019) 50 (2012) 5840 50 322 432 1150 10300 17100 27100
2020-06-30 02:45 13.41 27100 (2019) 50 (2012) 5840 50 322 432 1150 10300 17100 27100
2020-06-30 01:45 13.35 27100 (2019) 50 (2012) 5840 50 322 432 1150 10300 17100 27100
2020-06-30 00:45 13.30 27100 (2019) 50 (2012) 5840 50 322 432 1150 10300 17100 27100
2020-06-29 23:45 13.27 29000 (2019) 50 (2012) 6060 50 445 533 1230 10200 18100 29000
2020-06-29 22:45 13.23 29000 (2019) 50 (2012) 6060 50 445 533 1230 10200 18100 29000
2020-06-29 21:45 13.20 29000 (2019) 50 (2012) 6060 50 445 533 1230 10200 18100 29000
2020-06-29 20:45 13.12 29000 (2019) 50 (2012) 6060 50 445 533 1230 10200 18100 29000
2020-06-29 19:45 13.03 29000 (2019) 50 (2012) 6060 50 445 533 1230 10200 18100 29000
2020-06-29 18:45 12.93 29000 (2019) 50 (2012) 6060 50 445 533 1230 10200 18100 29000
2020-06-29 17:45 12.83 29000 (2019) 50 (2012) 6060 50 445 533 1230 10200 18100 29000
2020-06-29 16:45 12.75 29000 (2019) 50 (2012) 6060 50 445 533 1230 10200 18100 29000
2020-06-29 15:45 12.65 29000 (2019) 50 (2012) 6060 50 445 533 1230 10200 18100 29000
2020-06-29 14:45 12.51 29000 (2019) 50 (2012) 6060 50 445 533 1230 10200 18100 29000
2020-06-29 13:45 12.44 29000 (2019) 50 (2012) 6060 50 445 533 1230 10200 18100 29000
2020-06-29 12:45 12.36 29000 (2019) 50 (2012) 6060 50 445 533 1230 10200 18100 29000
2020-06-29 11:45 12.18 29000 (2019) 50 (2012) 6060 50 445 533 1230 10200 18100 29000
2020-06-29 10:45 12.07 29000 (2019) 50 (2012) 6060 50 445 533 1230 10200 18100 29000
2020-06-29 09:45 11.94 29000 (2019) 50 (2012) 6060 50 445 533 1230 10200 18100 29000
2020-06-29 08:45 11.82 29000 (2019) 50 (2012) 6060 50 445 533 1230 10200 18100 29000
2020-06-29 07:45 11.73 29000 (2019) 50 (2012) 6060 50 445 533 1230 10200 18100 29000
2020-06-29 06:45 11.62 29000 (2019) 50 (2012) 6060 50 445 533 1230 10200 18100 29000
2020-06-29 05:45 11.51 29000 (2019) 50 (2012) 6060 50 445 533 1230 10200 18100 29000
2020-06-29 04:45 11.43 29000 (2019) 50 (2012) 6060 50 445 533 1230 10200 18100 29000
2020-06-29 03:45 11.30 29000 (2019) 50 (2012) 6060 50 445 533 1230 10200 18100 29000
2020-06-29 02:45 11.18 29000 (2019) 50 (2012) 6060 50 445 533 1230 10200 18100 29000
2020-06-29 01:45 11.16 29000 (2019) 50 (2012) 6060 50 445 533 1230 10200 18100 29000
2020-06-29 00:45 11.07 29000 (2019) 50 (2012) 6060 50 445 533 1230 10200 18100 29000
2020-06-28 23:45 10.97 28900 (2019) 50 (2012) 5990 50 416 455 1390 10100 17800 28900
2020-06-28 22:45 10.91 28900 (2019) 50 (2012) 5990 50 416 455 1390 10100 17800 28900
2020-06-28 21:45 10.83 28900 (2019) 50 (2012) 5990 50 416 455 1390 10100 17800 28900
2020-06-28 20:45 10.75 28900 (2019) 50 (2012) 5990 50 416 455 1390 10100 17800 28900
2020-06-28 19:45 10.72 28900 (2019) 50 (2012) 5990 50 416 455 1390 10100 17800 28900
2020-06-28 18:45 10.67 28900 (2019) 50 (2012) 5990 50 416 455 1390 10100 17800 28900
2020-06-28 17:45 10.64 28900 (2019) 50 (2012) 5990 50 416 455 1390 10100 17800 28900
2020-06-28 16:45 10.64 28900 (2019) 50 (2012) 5990 50 416 455 1390 10100 17800 28900
2020-06-28 15:45 10.66 28900 (2019) 50 (2012) 5990 50 416 455 1390 10100 17800 28900
2020-06-28 14:45 10.70 28900 (2019) 50 (2012) 5990 50 416 455 1390 10100 17800 28900
2020-06-28 13:45 10.70 28900 (2019) 50 (2012) 5990 50 416 455 1390 10100 17800 28900
2020-06-28 12:45 10.70 28900 (2019) 50 (2012) 5990 50 416 455 1390 10100 17800 28900
2020-06-28 11:45 10.70 28900 (2019) 50 (2012) 5990 50 416 455 1390 10100 17800 28900
2020-06-28 10:45 10.69 28900 (2019) 50 (2012) 5990 50 416 455 1390 10100 17800 28900
2020-06-28 09:45 10.68 28900 (2019) 50 (2012) 5990 50 416 455 1390 10100 17800 28900
2020-06-28 08:45 10.71 28900 (2019) 50 (2012) 5990 50 416 455 1390 10100 17800 28900
2020-06-28 07:45 10.68 28900 (2019) 50 (2012) 5990 50 416 455 1390 10100 17800 28900
2020-06-28 06:45 10.69 28900 (2019) 50 (2012) 5990 50 416 455 1390 10100 17800 28900
2020-06-28 05:45 10.70 28900 (2019) 50 (2012) 5990 50 416 455 1390 10100 17800 28900
2020-06-28 04:45 10.73 28900 (2019) 50 (2012) 5990 50 416 455 1390 10100 17800 28900
2020-06-28 03:45 10.74 28900 (2019) 50 (2012) 5990 50 416 455 1390 10100 17800 28900
2020-06-28 02:45 10.73 28900 (2019) 50 (2012) 5990 50 416 455 1390 10100 17800 28900
2020-06-28 01:45 10.73 28900 (2019) 50 (2012) 5990 50 416 455 1390 10100 17800 28900
2020-06-28 00:45 10.74 28900 (2019) 50 (2012) 5990 50 416 455 1390 10100 17800 28900
2020-06-27 23:45 10.75 29300 (2019) 170 (2012) 6090 170 318 587 2000 9260 15900 29300
2020-06-27 22:45 10.76 29300 (2019) 170 (2012) 6090 170 318 587 2000 9260 15900 29300
2020-06-27 21:45 10.75 29300 (2019) 170 (2012) 6090 170 318 587 2000 9260 15900 29300
2020-06-27 20:45 10.72 29300 (2019) 170 (2012) 6090 170 318 587 2000 9260 15900 29300
2020-06-27 19:45 10.72 29300 (2019) 170 (2012) 6090 170 318 587 2000 9260 15900 29300
2020-06-27 18:45 10.67 29300 (2019) 170 (2012) 6090 170 318 587 2000 9260 15900 29300
2020-06-27 17:45 10.69 29300 (2019) 170 (2012) 6090 170 318 587 2000 9260 15900 29300
2020-06-27 16:45 10.74 29300 (2019) 170 (2012) 6090 170 318 587 2000 9260 15900 29300
2020-06-27 15:45 10.78 29300 (2019) 170 (2012) 6090 170 318 587 2000 9260 15900 29300
2020-06-27 14:45 10.82 29300 (2019) 170 (2012) 6090 170 318 587 2000 9260 15900 29300
2020-06-27 13:45 10.89 29300 (2019) 170 (2012) 6090 170 318 587 2000 9260 15900 29300
2020-06-27 12:45 10.92 29300 (2019) 170 (2012) 6090 170 318 587 2000 9260 15900 29300
2020-06-27 11:45 10.95 29300 (2019) 170 (2012) 6090 170 318 587 2000 9260 15900 29300
2020-06-27 10:45 10.96 29300 (2019) 170 (2012) 6090 170 318 587 2000 9260 15900 29300
2020-06-27 09:45 10.87 29300 (2019) 170 (2012) 6090 170 318 587 2000 9260 15900 29300
2020-06-27 08:45 10.83 29300 (2019) 170 (2012) 6090 170 318 587 2000 9260 15900 29300
2020-06-27 07:45 10.84 29300 (2019) 170 (2012) 6090 170 318 587 2000 9260 15900 29300
2020-06-27 06:45 10.83 29300 (2019) 170 (2012) 6090 170 318 587 2000 9260 15900 29300
2020-06-27 05:45 10.84 29300 (2019) 170 (2012) 6090 170 318 587 2000 9260 15900 29300
2020-06-27 04:45 10.80 29300 (2019) 170 (2012) 6090 170 318 587 2000 9260 15900 29300
2020-06-27 03:45 10.80 29300 (2019) 170 (2012) 6090 170 318 587 2000 9260 15900 29300
2020-06-27 02:45 10.74 29300 (2019) 170 (2012) 6090 170 318 587 2000 9260 15900 29300
2020-06-27 01:45 10.63 29300 (2019) 170 (2012) 6090 170 318 587 2000 9260 15900 29300
2020-06-27 00:45 10.50 29300 (2019) 170 (2012) 6090 170 318 587 2000 9260 15900 29300
2020-06-26 23:45 10.38 28900 (2019) 252 (2012) 5320 252 519 536 2030 6200 9510 28900
2020-06-26 22:45 10.38 28900 (2019) 252 (2012) 5320 252 519 536 2030 6200 9510 28900
2020-06-26 21:45 10.45 28900 (2019) 252 (2012) 5320 252 519 536 2030 6200 9510 28900
2020-06-26 20:45 10.54 28900 (2019) 252 (2012) 5320 252 519 536 2030 6200 9510 28900
2020-06-26 19:45 10.63 28900 (2019) 252 (2012) 5320 252 519 536 2030 6200 9510 28900
2020-06-26 18:45 10.71 28900 (2019) 252 (2012) 5320 252 519 536 2030 6200 9510 28900
2020-06-26 17:45 10.74 28900 (2019) 252 (2012) 5320 252 519 536 2030 6200 9510 28900
2020-06-26 16:45 10.75 28900 (2019) 252 (2012) 5320 252 519 536 2030 6200 9510 28900
2020-06-26 15:45 10.74 28900 (2019) 252 (2012) 5320 252 519 536 2030 6200 9510 28900
2020-06-26 14:45 10.80 28900 (2019) 252 (2012) 5320 252 519 536 2030 6200 9510 28900
2020-06-26 13:45 10.81 28900 (2019) 252 (2012) 5320 252 519 536 2030 6200 9510 28900
2020-06-26 12:45 10.90 28900 (2019) 252 (2012) 5320 252 519 536 2030 6200 9510 28900
2020-06-26 11:45 10.88 28900 (2019) 252 (2012) 5320 252 519 536 2030 6200 9510 28900
2020-06-26 10:45 10.91 28900 (2019) 252 (2012) 5320 252 519 536 2030 6200 9510 28900
2020-06-26 09:45 10.92 28900 (2019) 252 (2012) 5320 252 519 536 2030 6200 9510 28900
2020-06-26 08:45 10.96 28900 (2019) 252 (2012) 5320 252 519 536 2030 6200 9510 28900
2020-06-26 07:45 10.94 28900 (2019) 252 (2012) 5320 252 519 536 2030 6200 9510 28900
2020-06-26 06:45 10.94 28900 (2019) 252 (2012) 5320 252 519 536 2030 6200 9510 28900
2020-06-26 05:45 10.89 28900 (2019) 252 (2012) 5320 252 519 536 2030 6200 9510 28900
2020-06-26 04:45 10.84 28900 (2019) 252 (2012) 5320 252 519 536 2030 6200 9510 28900
2020-06-26 03:45 10.78 28900 (2019) 252 (2012) 5320 252 519 536 2030 6200 9510 28900
2020-06-26 02:45 10.71 28900 (2019) 252 (2012) 5320 252 519 536 2030 6200 9510 28900
2020-06-26 01:45 10.61 28900 (2019) 252 (2012) 5320 252 519 536 2030 6200 9510 28900
2020-06-26 00:45 10.57 28900 (2019) 252 (2012) 5320 252 519 536 2030 6200 9510 28900
2020-06-25 23:45 10.57 26700 (2019) 123 (2012) 4580 123 223 421 2130 3890 4480 26700
2020-06-25 22:45 10.57 26700 (2019) 123 (2012) 4580 123 223 421 2130 3890 4480 26700
2020-06-25 21:45 10.64 26700 (2019) 123 (2012) 4580 123 223 421 2130 3890 4480 26700
2020-06-25 20:45 10.73 26700 (2019) 123 (2012) 4580 123 223 421 2130 3890 4480 26700
2020-06-25 19:45 10.84 26700 (2019) 123 (2012) 4580 123 223 421 2130 3890 4480 26700
2020-06-25 18:45 10.88 26700 (2019) 123 (2012) 4580 123 223 421 2130 3890 4480 26700
2020-06-25 17:45 10.94 26700 (2019) 123 (2012) 4580 123 223 421 2130 3890 4480 26700
2020-06-25 16:45 11.04 26700 (2019) 123 (2012) 4580 123 223 421 2130 3890 4480 26700
2020-06-25 15:45 11.06 26700 (2019) 123 (2012) 4580 123 223 421 2130 3890 4480 26700
2020-06-25 14:45 11.09 26700 (2019) 123 (2012) 4580 123 223 421 2130 3890 4480 26700
2020-06-25 13:45 11.07 26700 (2019) 123 (2012) 4580 123 223 421 2130 3890 4480 26700
2020-06-25 12:45 11.10 26700 (2019) 123 (2012) 4580 123 223 421 2130 3890 4480 26700
2020-06-25 11:45 11.10 26700 (2019) 123 (2012) 4580 123 223 421 2130 3890 4480 26700
2020-06-25 11:30 598 26700 (2019) 123 (2012) 4580 123 223 421 2130 3890 4480 26700
2020-06-25 10:45 11.15 26700 (2019) 123 (2012) 4580 123 223 421 2130 3890 4480 26700
2020-06-25 09:45 11.18 26700 (2019) 123 (2012) 4580 123 223 421 2130 3890 4480 26700
2020-06-25 08:45 11.19 26700 (2019) 123 (2012) 4580 123 223 421 2130 3890 4480 26700
2020-06-25 07:45 11.18 26700 (2019) 123 (2012) 4580 123 223 421 2130 3890 4480 26700
2020-06-25 06:45 11.18 26700 (2019) 123 (2012) 4580 123 223 421 2130 3890 4480 26700
2020-06-25 05:45 11.19 26700 (2019) 123 (2012) 4580 123 223 421 2130 3890 4480 26700
2020-06-25 04:45 11.18 26700 (2019) 123 (2012) 4580 123 223 421 2130 3890 4480 26700
2020-06-25 03:45 11.15 26700 (2019) 123 (2012) 4580 123 223 421 2130 3890 4480 26700
2020-06-25 02:45 11.09 26700 (2019) 123 (2012) 4580 123 223 421 2130 3890 4480 26700
2020-06-25 01:45 11.02 26700 (2019) 123 (2012) 4580 123 223 421 2130 3890 4480 26700
2020-06-25 00:45 10.95 26700 (2019) 123 (2012) 4580 123 223 421 2130 3890 4480 26700
2020-06-24 23:45 10.89 21900 (2019) 106 (2018) 4220 106 207 345 2200 4320 4900 21900
2020-06-24 22:45 10.88 21900 (2019) 106 (2018) 4220 106 207 345 2200 4320 4900 21900
2020-06-24 21:45 10.93 21900 (2019) 106 (2018) 4220 106 207 345 2200 4320 4900 21900
2020-06-24 20:45 11.01 21900 (2019) 106 (2018) 4220 106 207 345 2200 4320 4900 21900
2020-06-24 19:45 11.09 21900 (2019) 106 (2018) 4220 106 207 345 2200 4320 4900 21900
2020-06-24 18:45 11.17 21900 (2019) 106 (2018) 4220 106 207 345 2200 4320 4900 21900
2020-06-24 17:45 11.21 21900 (2019) 106 (2018) 4220 106 207 345 2200 4320 4900 21900
2020-06-24 16:45 11.27 21900 (2019) 106 (2018) 4220 106 207 345 2200 4320 4900 21900
2020-06-24 15:45 11.32 21900 (2019) 106 (2018) 4220 106 207 345 2200 4320 4900 21900
2020-06-24 14:45 11.35 21900 (2019) 106 (2018) 4220 106 207 345 2200 4320 4900 21900
2020-06-24 13:45 11.37 21900 (2019) 106 (2018) 4220 106 207 345 2200 4320 4900 21900
2020-06-24 13:15 733 21900 (2019) 106 (2018) 4220 106 207 345 2200 4320 4900 21900
2020-06-24 12:45 11.38 21900 (2019) 106 (2018) 4220 106 207 345 2200 4320 4900 21900
2020-06-24 12:30 670 21900 (2019) 106 (2018) 4220 106 207 345 2200 4320 4900 21900
2020-06-24 11:45 11.40 21900 (2019) 106 (2018) 4220 106 207 345 2200 4320 4900 21900
2020-06-24 11:15 323 21900 (2019) 106 (2018) 4220 106 207 345 2200 4320 4900 21900
2020-06-24 10:45 11.44 21900 (2019) 106 (2018) 4220 106 207 345 2200 4320 4900 21900
2020-06-24 10:15 100 21900 (2019) 106 (2018) 4220 106 207 345 2200 4320 4900 21900
2020-06-24 09:45 11.47 21900 (2019) 106 (2018) 4220 106 207 345 2200 4320 4900 21900
2020-06-24 09:30 85 21900 (2019) 106 (2018) 4220 106 207 345 2200 4320 4900 21900
2020-06-24 08:45 11.50 21900 (2019) 106 (2018) 4220 106 207 345 2200 4320 4900 21900
2020-06-24 08:30 148 21900 (2019) 106 (2018) 4220 106 207 345 2200 4320 4900 21900
2020-06-24 07:45 11.51 21900 (2019) 106 (2018) 4220 106 207 345 2200 4320 4900 21900
2020-06-24 07:30 69 21900 (2019) 106 (2018) 4220 106 207 345 2200 4320 4900 21900
2020-06-24 06:45 11.53 21900 (2019) 106 (2018) 4220 106 207 345 2200 4320 4900 21900
2020-06-24 05:45 11.52 21900 (2019) 106 (2018) 4220 106 207 345 2200 4320 4900 21900
2020-06-24 04:45 11.50 21900 (2019) 106 (2018) 4220 106 207 345 2200 4320 4900 21900
2020-06-24 04:30 69 21900 (2019) 106 (2018) 4220 106 207 345 2200 4320 4900 21900
2020-06-24 03:45 11.46 21900 (2019) 106 (2018) 4220 106 207 345 2200 4320 4900 21900
2020-06-24 03:30 704 21900 (2019) 106 (2018) 4220 106 207 345 2200 4320 4900 21900
2020-06-24 02:45 11.40 21900 (2019) 106 (2018) 4220 106 207 345 2200 4320 4900 21900
2020-06-24 01:45 11.32 21900 (2019) 106 (2018) 4220 106 207 345 2200 4320 4900 21900
2020-06-24 00:45 11.27 21900 (2019) 106 (2018) 4220 106 207 345 2200 4320 4900 21900
2020-06-23 23:45 11.23 18800 (2019) 167 (2018) 4470 167 206 315 2350 6290 6950 18800
2020-06-23 22:45 11.26 18800 (2019) 167 (2018) 4470 167 206 315 2350 6290 6950 18800
2020-06-23 21:45 11.34 18800 (2019) 167 (2018) 4470 167 206 315 2350 6290 6950 18800
2020-06-23 20:45 11.43 18800 (2019) 167 (2018) 4470 167 206 315 2350 6290 6950 18800
2020-06-23 20:00 468 18800 (2019) 167 (2018) 4470 167 206 315 2350 6290 6950 18800
2020-06-23 19:45 11.52 18800 (2019) 167 (2018) 4470 167 206 315 2350 6290 6950 18800
2020-06-23 19:30 421 18800 (2019) 167 (2018) 4470 167 206 315 2350 6290 6950 18800
2020-06-23 18:45 11.56 18800 (2019) 167 (2018) 4470 167 206 315 2350 6290 6950 18800
2020-06-23 18:30 101 18800 (2019) 167 (2018) 4470 167 206 315 2350 6290 6950 18800
2020-06-23 17:45 11.55 18800 (2019) 167 (2018) 4470 167 206 315 2350 6290 6950 18800
2020-06-23 16:45 11.57 18800 (2019) 167 (2018) 4470 167 206 315 2350 6290 6950 18800
2020-06-23 16:15 101 18800 (2019) 167 (2018) 4470 167 206 315 2350 6290 6950 18800
2020-06-23 15:45 11.59 18800 (2019) 167 (2018) 4470 167 206 315 2350 6290 6950 18800
2020-06-23 15:30 85 18800 (2019) 167 (2018) 4470 167 206 315 2350 6290 6950 18800
2020-06-23 14:45 11.59 18800 (2019) 167 (2018) 4470 167 206 315 2350 6290 6950 18800
2020-06-23 14:30 375 18800 (2019) 167 (2018) 4470 167 206 315 2350 6290 6950 18800
2020-06-23 13:45 11.64 18800 (2019) 167 (2018) 4470 167 206 315 2350 6290 6950 18800
2020-06-23 13:30 376 18800 (2019) 167 (2018) 4470 167 206 315 2350 6290 6950 18800
2020-06-23 12:45 11.71 18800 (2019) 167 (2018) 4470 167 206 315 2350 6290 6950 18800
2020-06-23 12:30 620 18800 (2019) 167 (2018) 4470 167 206 315 2350 6290 6950 18800
2020-06-23 11:45 11.76 18800 (2019) 167 (2018) 4470 167 206 315 2350 6290 6950 18800
2020-06-23 11:30 493 18800 (2019) 167 (2018) 4470 167 206 315 2350 6290 6950 18800
2020-06-23 10:45 11.78 18800 (2019) 167 (2018) 4470 167 206 315 2350 6290 6950 18800
2020-06-23 10:30 363 18800 (2019) 167 (2018) 4470 167 206 315 2350 6290 6950 18800
2020-06-23 09:45 11.83 18800 (2019) 167 (2018) 4470 167 206 315 2350 6290 6950 18800
2020-06-23 09:30 54 18800 (2019) 167 (2018) 4470 167 206 315 2350 6290 6950 18800
2020-06-23 08:45 11.83 18800 (2019) 167 (2018) 4470 167 206 315 2350 6290 6950 18800
2020-06-23 08:30 168 18800 (2019) 167 (2018) 4470 167 206 315 2350 6290 6950 18800
2020-06-23 07:45 11.84 18800 (2019) 167 (2018) 4470 167 206 315 2350 6290 6950 18800
2020-06-23 07:30 168 18800 (2019) 167 (2018) 4470 167 206 315 2350 6290 6950 18800
2020-06-23 06:45 11.83 18800 (2019) 167 (2018) 4470 167 206 315 2350 6290 6950 18800
2020-06-23 06:30 168 18800 (2019) 167 (2018) 4470 167 206 315 2350 6290 6950 18800
2020-06-23 05:45 11.81 18800 (2019) 167 (2018) 4470 167 206 315 2350 6290 6950 18800
2020-06-23 05:15 103 18800 (2019) 167 (2018) 4470 167 206 315 2350 6290 6950 18800
2020-06-23 04:45 11.77 18800 (2019) 167 (2018) 4470 167 206 315 2350 6290 6950 18800
2020-06-23 04:30 86 18800 (2019) 167 (2018) 4470 167 206 315 2350 6290 6950 18800
2020-06-23 03:45 11.74 18800 (2019) 167 (2018) 4470 167 206 315 2350 6290 6950 18800
2020-06-23 03:15 70 18800 (2019) 167 (2018) 4470 167 206 315 2350 6290 6950 18800
2020-06-23 02:45 11.72 18800 (2019) 167 (2018) 4470 167 206 315 2350 6290 6950 18800
2020-06-23 02:30 135 18800 (2019) 167 (2018) 4470 167 206 315 2350 6290 6950 18800
2020-06-23 01:45 11.68 18800 (2019) 167 (2018) 4470 167 206 315 2350 6290 6950 18800
2020-06-23 01:30 166 18800 (2019) 167 (2018) 4470 167 206 315 2350 6290 6950 18800
2020-06-23 00:45 11.65 18800 (2019) 167 (2018) 4470 167 206 315 2350 6290 6950 18800
2020-06-23 00:30 198 18800 (2019) 167 (2018) 4470 167 206 315 2350 6290 6950 18800
2020-06-22 23:45 11.62 16800 (2019) 281 (2018) 5550 281 320 482 2610 10300 12800 16800
2020-06-22 23:30 166 16800 (2019) 281 (2018) 5550 281 320 482 2610 10300 12800 16800
2020-06-22 22:45 11.62 16800 (2019) 281 (2018) 5550 281 320 482 2610 10300 12800 16800
2020-06-22 22:30 278 16800 (2019) 281 (2018) 5550 281 320 482 2610 10300 12800 16800
2020-06-22 21:45 11.65 16800 (2019) 281 (2018) 5550 281 320 482 2610 10300 12800 16800
2020-06-22 21:30 231 16800 (2019) 281 (2018) 5550 281 320 482 2610 10300 12800 16800
2020-06-22 20:45 11.70 16800 (2019) 281 (2018) 5550 281 320 482 2610 10300 12800 16800
2020-06-22 20:00 70 16800 (2019) 281 (2018) 5550 281 320 482 2610 10300 12800 16800
2020-06-22 19:45 11.75 16800 (2019) 281 (2018) 5550 281 320 482 2610 10300 12800 16800
2020-06-22 19:15 200 16800 (2019) 281 (2018) 5550 281 320 482 2610 10300 12800 16800
2020-06-22 18:45 11.82 16800 (2019) 281 (2018) 5550 281 320 482 2610 10300 12800 16800
2020-06-22 18:30 135 16800 (2019) 281 (2018) 5550 281 320 482 2610 10300 12800 16800
2020-06-22 17:45 11.86 16800 (2019) 281 (2018) 5550 281 320 482 2610 10300 12800 16800
2020-06-22 17:30 300 16800 (2019) 281 (2018) 5550 281 320 482 2610 10300 12800 16800
2020-06-22 16:45 11.90 16800 (2019) 281 (2018) 5550 281 320 482 2610 10300 12800 16800
2020-06-22 16:30 153 16800 (2019) 281 (2018) 5550 281 320 482 2610 10300 12800 16800
2020-06-22 15:45 11.95 16800 (2019) 281 (2018) 5550 281 320 482 2610 10300 12800 16800
2020-06-22 15:30 154 16800 (2019) 281 (2018) 5550 281 320 482 2610 10300 12800 16800
2020-06-22 14:45 12.04 16800 (2019) 281 (2018) 5550 281 320 482 2610 10300 12800 16800
2020-06-22 14:30 154 16800 (2019) 281 (2018) 5550 281 320 482 2610 10300 12800 16800
2020-06-22 13:45 12.09 16800 (2019) 281 (2018) 5550 281 320 482 2610 10300 12800 16800
2020-06-22 13:30 155 16800 (2019) 281 (2018) 5550 281 320 482 2610 10300 12800 16800
2020-06-22 12:45 12.13 16800 (2019) 281 (2018) 5550 281 320 482 2610 10300 12800 16800
2020-06-22 12:30 155 16800 (2019) 281 (2018) 5550 281 320 482 2610 10300 12800 16800
2020-06-22 11:45 12.15 16800 (2019) 281 (2018) 5550 281 320 482 2610 10300 12800 16800
2020-06-22 11:30 89 16800 (2019) 281 (2018) 5550 281 320 482 2610 10300 12800 16800
2020-06-22 10:45 12.17 16800 (2019) 281 (2018) 5550 281 320 482 2610 10300 12800 16800
2020-06-22 10:30 122 16800 (2019) 281 (2018) 5550 281 320 482 2610 10300 12800 16800
2020-06-22 09:45 12.18 16800 (2019) 281 (2018) 5550 281 320 482 2610 10300 12800 16800
2020-06-22 09:30 139 16800 (2019) 281 (2018) 5550 281 320 482 2610 10300 12800 16800
2020-06-22 08:45 12.19 16800 (2019) 281 (2018) 5550 281 320 482 2610 10300 12800 16800
2020-06-22 08:30 89 16800 (2019) 281 (2018) 5550 281 320 482 2610 10300 12800 16800
2020-06-22 07:45 12.19 16800 (2019) 281 (2018) 5550 281 320 482 2610 10300 12800 16800
2020-06-22 07:00 72 16800 (2019) 281 (2018) 5550 281 320 482 2610 10300 12800 16800
2020-06-22 06:45 12.17 16800 (2019) 281 (2018) 5550 281 320 482 2610 10300 12800 16800
2020-06-22 05:45 12.16 16800 (2019) 281 (2018) 5550 281 320 482 2610 10300 12800 16800
2020-06-22 04:45 12.12 16800 (2019) 281 (2018) 5550 281 320 482 2610 10300 12800 16800
2020-06-22 04:30 55 16800 (2019) 281 (2018) 5550 281 320 482 2610 10300 12800 16800
2020-06-22 03:45 12.12 16800 (2019) 281 (2018) 5550 281 320 482 2610 10300 12800 16800
2020-06-22 03:30 105 16800 (2019) 281 (2018) 5550 281 320 482 2610 10300 12800 16800
2020-06-22 02:45 12.11 16800 (2019) 281 (2018) 5550 281 320 482 2610 10300 12800 16800
2020-06-22 02:30 172 16800 (2019) 281 (2018) 5550 281 320 482 2610 10300 12800 16800
2020-06-22 01:45 12.09 16800 (2019) 281 (2018) 5550 281 320 482 2610 10300 12800 16800
2020-06-22 01:30 105 16800 (2019) 281 (2018) 5550 281 320 482 2610 10300 12800 16800
2020-06-22 00:45 12.09 16800 (2019) 281 (2018) 5550 281 320 482 2610 10300 12800 16800
2020-06-22 00:30 188 16800 (2019) 281 (2018) 5550 281 320 482 2610 10300 12800 16800
2020-06-21 23:45 12.12 16400 (2019) 59 (2012) 6700 59 306 505 3760 13100 15900 16400
2020-06-21 23:30 289 16400 (2019) 59 (2012) 6700 59 306 505 3760 13100 15900 16400
2020-06-21 22:45 12.16 16400 (2019) 59 (2012) 6700 59 306 505 3760 13100 15900 16400
2020-06-21 22:30 289 16400 (2019) 59 (2012) 6700 59 306 505 3760 13100 15900 16400
2020-06-21 21:45 12.21 16400 (2019) 59 (2012) 6700 59 306 505 3760 13100 15900 16400
2020-06-21 21:30 324 16400 (2019) 59 (2012) 6700 59 306 505 3760 13100 15900 16400
2020-06-21 20:45 12.27 16400 (2019) 59 (2012) 6700 59 306 505 3760 13100 15900 16400
2020-06-21 20:30 443 16400 (2019) 59 (2012) 6700 59 306 505 3760 13100 15900 16400
2020-06-21 19:45 12.33 16400 (2019) 59 (2012) 6700 59 306 505 3760 13100 15900 16400
2020-06-21 19:30 412 16400 (2019) 59 (2012) 6700 59 306 505 3760 13100 15900 16400
2020-06-21 18:45 12.41 16400 (2019) 59 (2012) 6700 59 306 505 3760 13100 15900 16400
2020-06-21 18:30 380 16400 (2019) 59 (2012) 6700 59 306 505 3760 13100 15900 16400
2020-06-21 17:45 12.50 16400 (2019) 59 (2012) 6700 59 306 505 3760 13100 15900 16400
2020-06-21 17:30 245 16400 (2019) 59 (2012) 6700 59 306 505 3760 13100 15900 16400
2020-06-21 16:45 12.57 16400 (2019) 59 (2012) 6700 59 306 505 3760 13100 15900 16400
2020-06-21 16:30 246 16400 (2019) 59 (2012) 6700 59 306 505 3760 13100 15900 16400
2020-06-21 15:45 12.61 16400 (2019) 59 (2012) 6700 59 306 505 3760 13100 15900 16400
2020-06-21 15:30 247 16400 (2019) 59 (2012) 6700 59 306 505 3760 13100 15900 16400
2020-06-21 14:45 12.63 16400 (2019) 59 (2012) 6700 59 306 505 3760 13100 15900 16400
2020-06-21 14:30 247 16400 (2019) 59 (2012) 6700 59 306 505 3760 13100 15900 16400
2020-06-21 13:45 12.64 16400 (2019) 59 (2012) 6700 59 306 505 3760 13100 15900 16400
2020-06-21 13:30 247 16400 (2019) 59 (2012) 6700 59 306 505 3760 13100 15900 16400
2020-06-21 12:45 12.66 16400 (2019) 59 (2012) 6700 59 306 505 3760 13100 15900 16400
2020-06-21 12:30 300 16400 (2019) 59 (2012) 6700 59 306 505 3760 13100 15900 16400
2020-06-21 11:45 12.69 16400 (2019) 59 (2012) 6700 59 306 505 3760 13100 15900 16400
2020-06-21 11:30 491 16400 (2019) 59 (2012) 6700 59 306 505 3760 13100 15900 16400
2020-06-21 10:45 12.75 16400 (2019) 59 (2012) 6700 59 306 505 3760 13100 15900 16400
2020-06-21 10:30 406 16400 (2019) 59 (2012) 6700 59 306 505 3760 13100 15900 16400
2020-06-21 09:45 12.76 16400 (2019) 59 (2012) 6700 59 306 505 3760 13100 15900 16400
2020-06-21 09:30 144 16400 (2019) 59 (2012) 6700 59 306 505 3760 13100 15900 16400
2020-06-21 08:45 12.77 16400 (2019) 59 (2012) 6700 59 306 505 3760 13100 15900 16400
2020-06-21 08:30 162 16400 (2019) 59 (2012) 6700 59 306 505 3760 13100 15900 16400
2020-06-21 07:45 12.75 16400 (2019) 59 (2012) 6700 59 306 505 3760 13100 15900 16400
2020-06-21 07:00 75 16400 (2019) 59 (2012) 6700 59 306 505 3760 13100 15900 16400
2020-06-21 06:45 12.79 16400 (2019) 59 (2012) 6700 59 306 505 3760 13100 15900 16400
2020-06-21 06:30 162 16400 (2019) 59 (2012) 6700 59 306 505 3760 13100 15900 16400
2020-06-21 05:45 12.79 16400 (2019) 59 (2012) 6700 59 306 505 3760 13100 15900 16400
2020-06-21 05:30 215 16400 (2019) 59 (2012) 6700 59 306 505 3760 13100 15900 16400
2020-06-21 04:45 12.78 16400 (2019) 59 (2012) 6700 59 306 505 3760 13100 15900 16400
2020-06-21 04:30 180 16400 (2019) 59 (2012) 6700 59 306 505 3760 13100 15900 16400
2020-06-21 03:45 12.76 16400 (2019) 59 (2012) 6700 59 306 505 3760 13100 15900 16400
2020-06-21 03:30 127 16400 (2019) 59 (2012) 6700 59 306 505 3760 13100 15900 16400
2020-06-21 02:45 12.74 16400 (2019) 59 (2012) 6700 59 306 505 3760 13100 15900 16400
2020-06-21 02:30 197 16400 (2019) 59 (2012) 6700 59 306 505 3760 13100 15900 16400
2020-06-21 01:45 12.73 16400 (2019) 59 (2012) 6700 59 306 505 3760 13100 15900 16400
2020-06-21 01:30 266 16400 (2019) 59 (2012) 6700 59 306 505 3760 13100 15900 16400
2020-06-21 00:45 12.73 16400 (2019) 59 (2012) 6700 59 306 505 3760 13100 15900 16400
2020-06-21 00:30 196 16400 (2019) 59 (2012) 6700 59 306 505 3760 13100 15900 16400
2020-06-20 23:45 12.75 15500 (2013) 263 (2012) 7170 263 384 922 3250 14700 15500 15500
2020-06-20 23:30 388 15500 (2013) 263 (2012) 7170 263 384 922 3250 14700 15500 15500
2020-06-20 22:45 12.78 15500 (2013) 263 (2012) 7170 263 384 922 3250 14700 15500 15500
2020-06-20 22:30 250 15500 (2013) 263 (2012) 7170 263 384 922 3250 14700 15500 15500
2020-06-20 21:45 12.83 15500 (2013) 263 (2012) 7170 263 384 922 3250 14700 15500 15500
2020-06-20 21:30 425 15500 (2013) 263 (2012) 7170 263 384 922 3250 14700 15500 15500
2020-06-20 20:45 12.88 15500 (2013) 263 (2012) 7170 263 384 922 3250 14700 15500 15500
2020-06-20 20:30 234 15500 (2013) 263 (2012) 7170 263 384 922 3250 14700 15500 15500
2020-06-20 19:45 12.93 15500 (2013) 263 (2012) 7170 263 384 922 3250 14700 15500 15500
2020-06-20 19:30 323 15500 (2013) 263 (2012) 7170 263 384 922 3250 14700 15500 15500
2020-06-20 18:45 13.00 15500 (2013) 263 (2012) 7170 263 384 922 3250 14700 15500 15500
2020-06-20 18:30 466 15500 (2013) 263 (2012) 7170 263 384 922 3250 14700 15500 15500
2020-06-20 17:45 13.06 15500 (2013) 263 (2012) 7170 263 384 922 3250 14700 15500 15500
2020-06-20 17:30 467 15500 (2013) 263 (2012) 7170 263 384 922 3250 14700 15500 15500
2020-06-20 16:45 13.09 15500 (2013) 263 (2012) 7170 263 384 922 3250 14700 15500 15500
2020-06-20 16:30 415 15500 (2013) 263 (2012) 7170 263 384 922 3250 14700 15500 15500
2020-06-20 15:45 13.15 15500 (2013) 263 (2012) 7170 263 384 922 3250 14700 15500 15500
2020-06-20 15:30 614 15500 (2013) 263 (2012) 7170 263 384 922 3250 14700 15500 15500
2020-06-20 14:45 13.20 15500 (2013) 263 (2012) 7170 263 384 922 3250 14700 15500 15500
2020-06-20 14:30 562 15500 (2013) 263 (2012) 7170 263 384 922 3250 14700 15500 15500
2020-06-20 13:45 13.23 15500 (2013) 263 (2012) 7170 263 384 922 3250 14700 15500 15500
2020-06-20 13:30 635 15500 (2013) 263 (2012) 7170 263 384 922 3250 14700 15500 15500
2020-06-20 12:45 13.28 15500 (2013) 263 (2012) 7170 263 384 922 3250 14700 15500 15500
2020-06-20 12:30 565 15500 (2013) 263 (2012) 7170 263 384 922 3250 14700 15500 15500
2020-06-20 11:45 13.31 15500 (2013) 263 (2012) 7170 263 384 922 3250 14700 15500 15500
2020-06-20 11:30 530 15500 (2013) 263 (2012) 7170 263 384 922 3250 14700 15500 15500
2020-06-20 10:45 13.36 15500 (2013) 263 (2012) 7170 263 384 922 3250 14700 15500 15500
2020-06-20 10:30 530 15500 (2013) 263 (2012) 7170 263 384 922 3250 14700 15500 15500
2020-06-20 09:45 13.37 15500 (2013) 263 (2012) 7170 263 384 922 3250 14700 15500 15500
2020-06-20 09:30 459 15500 (2013) 263 (2012) 7170 263 384 922 3250 14700 15500 15500
2020-06-20 08:45 13.41 15500 (2013) 263 (2012) 7170 263 384 922 3250 14700 15500 15500
2020-06-20 08:30 460 15500 (2013) 263 (2012) 7170 263 384 922 3250 14700 15500 15500
2020-06-20 07:45 13.42 15500 (2013) 263 (2012) 7170 263 384 922 3250 14700 15500 15500
2020-06-20 07:30 460 15500 (2013) 263 (2012) 7170 263 384 922 3250 14700 15500 15500
2020-06-20 06:45 13.43 15500 (2013) 263 (2012) 7170 263 384 922 3250 14700 15500 15500
2020-06-20 06:30 370 15500 (2013) 263 (2012) 7170 263 384 922 3250 14700 15500 15500
2020-06-20 05:45 13.44 15500 (2013) 263 (2012) 7170 263 384 922 3250 14700 15500 15500
2020-06-20 05:30 224 15500 (2013) 263 (2012) 7170 263 384 922 3250 14700 15500 15500
2020-06-20 04:45 13.43 15500 (2013) 263 (2012) 7170 263 384 922 3250 14700 15500 15500
2020-06-20 04:30 169 15500 (2013) 263 (2012) 7170 263 384 922 3250 14700 15500 15500
2020-06-20 03:45 13.39 15500 (2013) 263 (2012) 7170 263 384 922 3250 14700 15500 15500
2020-06-20 03:30 223 15500 (2013) 263 (2012) 7170 263 384 922 3250 14700 15500 15500
2020-06-20 02:45 13.36 15500 (2013) 263 (2012) 7170 263 384 922 3250 14700 15500 15500
2020-06-20 02:30 150 15500 (2013) 263 (2012) 7170 263 384 922 3250 14700 15500 15500
2020-06-20 01:45 13.33 15500 (2013) 263 (2012) 7170 263 384 922 3250 14700 15500 15500
2020-06-20 01:30 349 15500 (2013) 263 (2012) 7170 263 384 922 3250 14700 15500 15500
2020-06-20 00:45 13.33 15500 (2013) 263 (2012) 7170 263 384 922 3250 14700 15500 15500
2020-06-20 00:30 385 15500 (2013) 263 (2012) 7170 263 384 922 3250 14700 15500 15500
2020-06-19 23:45 13.34 15300 (2019) 416 (2018) 7190 416 433 781 3590 14400 15000 15300
2020-06-19 23:30 386 15300 (2019) 416 (2018) 7190 416 433 781 3590 14400 15000 15300
2020-06-19 22:45 13.36 15300 (2019) 416 (2018) 7190 416 433 781 3590 14400 15000 15300
2020-06-19 22:30 314 15300 (2019) 416 (2018) 7190 416 433 781 3590 14400 15000 15300
2020-06-19 21:45 13.37 15300 (2019) 416 (2018) 7190 416 433 781 3590 14400 15000 15300
2020-06-19 21:30 441 15300 (2019) 416 (2018) 7190 416 433 781 3590 14400 15000 15300
2020-06-19 20:45 13.37 15300 (2019) 416 (2018) 7190 416 433 781 3590 14400 15000 15300
2020-06-19 20:30 441 15300 (2019) 416 (2018) 7190 416 433 781 3590 14400 15000 15300
2020-06-19 19:45 13.42 15300 (2019) 416 (2018) 7190 416 433 781 3590 14400 15000 15300
2020-06-19 19:30 534 15300 (2019) 416 (2018) 7190 416 433 781 3590 14400 15000 15300
2020-06-19 18:45 13.44 15300 (2019) 416 (2018) 7190 416 433 781 3590 14400 15000 15300
2020-06-19 18:30 553 15300 (2019) 416 (2018) 7190 416 433 781 3590 14400 15000 15300
2020-06-19 17:45 13.47 15300 (2019) 416 (2018) 7190 416 433 781 3590 14400 15000 15300
2020-06-19 17:30 462 15300 (2019) 416 (2018) 7190 416 433 781 3590 14400 15000 15300
2020-06-19 16:45 13.50 15300 (2019) 416 (2018) 7190 416 433 781 3590 14400 15000 15300
2020-06-19 16:30 647 15300 (2019) 416 (2018) 7190 416 433 781 3590 14400 15000 15300
2020-06-19 15:45 13.54 15300 (2019) 416 (2018) 7190 416 433 781 3590 14400 15000 15300
2020-06-19 15:30 722 15300 (2019) 416 (2018) 7190 416 433 781 3590 14400 15000 15300
2020-06-19 14:45 13.60 15300 (2019) 416 (2018) 7190 416 433 781 3590 14400 15000 15300
2020-06-19 14:30 891 15300 (2019) 416 (2018) 7190 416 433 781 3590 14400 15000 15300
2020-06-19 13:45 13.66 15300 (2019) 416 (2018) 7190 416 433 781 3590 14400 15000 15300
2020-06-19 13:30 524 15300 (2019) 416 (2018) 7190 416 433 781 3590 14400 15000 15300
2020-06-19 12:45 13.74 15300 (2019) 416 (2018) 7190 416 433 781 3590 14400 15000 15300
2020-06-19 12:30 545 15300 (2019) 416 (2018) 7190 416 433 781 3590 14400 15000 15300
2020-06-19 11:45 13.74 15300 (2019) 416 (2018) 7190 416 433 781 3590 14400 15000 15300
2020-06-19 11:30 564 15300 (2019) 416 (2018) 7190 416 433 781 3590 14400 15000 15300
2020-06-19 10:45 13.77 15300 (2019) 416 (2018) 7190 416 433 781 3590 14400 15000 15300
2020-06-19 10:30 621 15300 (2019) 416 (2018) 7190 416 433 781 3590 14400 15000 15300
2020-06-19 09:45 13.85 15300 (2019) 416 (2018) 7190 416 433 781 3590 14400 15000 15300
2020-06-19 09:30 699 15300 (2019) 416 (2018) 7190 416 433 781 3590 14400 15000 15300
2020-06-19 08:45 13.88 15300 (2019) 416 (2018) 7190 416 433 781 3590 14400 15000 15300
2020-06-19 08:30 475 15300 (2019) 416 (2018) 7190 416 433 781 3590 14400 15000 15300
2020-06-19 07:45 13.90 15300 (2019) 416 (2018) 7190 416 433 781 3590 14400 15000 15300
2020-06-19 07:30 456 15300 (2019) 416 (2018) 7190 416 433 781 3590 14400 15000 15300
2020-06-19 06:45 13.91 15300 (2019) 416 (2018) 7190 416 433 781 3590 14400 15000 15300
2020-06-19 06:30 588 15300 (2019) 416 (2018) 7190 416 433 781 3590 14400 15000 15300
2020-06-19 05:45 13.93 15300 (2019) 416 (2018) 7190 416 433 781 3590 14400 15000 15300
2020-06-19 05:30 420 15300 (2019) 416 (2018) 7190 416 433 781 3590 14400 15000 15300
2020-06-19 04:45 13.96 15300 (2019) 416 (2018) 7190 416 433 781 3590 14400 15000 15300
2020-06-19 04:30 232 15300 (2019) 416 (2018) 7190 416 433 781 3590 14400 15000 15300
2020-06-19 03:45 13.99 15300 (2019) 416 (2018) 7190 416 433 781 3590 14400 15000 15300
2020-06-19 03:30 232 15300 (2019) 416 (2018) 7190 416 433 781 3590 14400 15000 15300
2020-06-19 02:45 13.99 15300 (2019) 416 (2018) 7190 416 433 781 3590 14400 15000 15300
2020-06-19 02:30 345 15300 (2019) 416 (2018) 7190 416 433 781 3590 14400 15000 15300
2020-06-19 01:45 13.97 15300 (2019) 416 (2018) 7190 416 433 781 3590 14400 15000 15300
2020-06-19 01:30 270 15300 (2019) 416 (2018) 7190 416 433 781 3590 14400 15000 15300
2020-06-19 00:45 13.96 15300 (2019) 416 (2018) 7190 416 433 781 3590 14400 15000 15300
2020-06-19 00:30 232 15300 (2019) 416 (2018) 7190 416 433 781 3590 14400 15000 15300
2020-06-18 23:45 13.96 15600 (2019) 493 (2018) 6870 493 768 914 3250 12700 12800 15600
2020-06-18 23:30 269 15600 (2019) 493 (2018) 6870 493 768 914 3250 12700 12800 15600
2020-06-18 22:45 13.96 15600 (2019) 493 (2018) 6870 493 768 914 3250 12700 12800 15600
2020-06-18 22:30 458 15600 (2019) 493 (2018) 6870 493 768 914 3250 12700 12800 15600
2020-06-18 21:45 13.99 15600 (2019) 493 (2018) 6870 493 768 914 3250 12700 12800 15600
2020-06-18 21:30 535 15600 (2019) 493 (2018) 6870 493 768 914 3250 12700 12800 15600
2020-06-18 20:45 14.05 15600 (2019) 493 (2018) 6870 493 768 914 3250 12700 12800 15600
2020-06-18 20:30 859 15600 (2019) 493 (2018) 6870 493 768 914 3250 12700 12800 15600
2020-06-18 19:45 14.14 15600 (2019) 493 (2018) 6870 493 768 914 3250 12700 12800 15600
2020-06-18 19:30 387 15600 (2019) 493 (2018) 6870 493 768 914 3250 12700 12800 15600
2020-06-18 18:45 14.22 15600 (2019) 493 (2018) 6870 493 768 914 3250 12700 12800 15600
2020-06-18 17:45 14.22 15600 (2019) 493 (2018) 6870 493 768 914 3250 12700 12800 15600
2020-06-18 16:45 14.26 15600 (2019) 493 (2018) 6870 493 768 914 3250 12700 12800 15600
2020-06-18 15:45 14.24 15600 (2019) 493 (2018) 6870 493 768 914 3250 12700 12800 15600
2020-06-18 14:45 14.21 15600 (2019) 493 (2018) 6870 493 768 914 3250 12700 12800 15600
2020-06-18 14:30 369 15600 (2019) 493 (2018) 6870 493 768 914 3250 12700 12800 15600
2020-06-18 13:45 14.23 15600 (2019) 493 (2018) 6870 493 768 914 3250 12700 12800 15600
2020-06-18 13:30 504 15600 (2019) 493 (2018) 6870 493 768 914 3250 12700 12800 15600
2020-06-18 12:45 14.23 15600 (2019) 493 (2018) 6870 493 768 914 3250 12700 12800 15600
2020-06-18 12:30 543 15600 (2019) 493 (2018) 6870 493 768 914 3250 12700 12800 15600
2020-06-18 11:45 14.26 15600 (2019) 493 (2018) 6870 493 768 914 3250 12700 12800 15600
2020-06-18 11:30 525 15600 (2019) 493 (2018) 6870 493 768 914 3250 12700 12800 15600
2020-06-18 10:45 14.32 15600 (2019) 493 (2018) 6870 493 768 914 3250 12700 12800 15600
2020-06-18 10:30 603 15600 (2019) 493 (2018) 6870 493 768 914 3250 12700 12800 15600
2020-06-18 09:45 14.33 15600 (2019) 493 (2018) 6870 493 768 914 3250 12700 12800 15600
2020-06-18 09:30 546 15600 (2019) 493 (2018) 6870 493 768 914 3250 12700 12800 15600
2020-06-18 08:45 14.39 15600 (2019) 493 (2018) 6870 493 768 914 3250 12700 12800 15600
2020-06-18 08:30 316 15600 (2019) 493 (2018) 6870 493 768 914 3250 12700 12800 15600
2020-06-18 07:45 14.44 15600 (2019) 493 (2018) 6870 493 768 914 3250 12700 12800 15600
2020-06-18 07:30 472 15600 (2019) 493 (2018) 6870 493 768 914 3250 12700 12800 15600
2020-06-18 06:45 14.48 15600 (2019) 493 (2018) 6870 493 768 914 3250 12700 12800 15600
2020-06-18 06:30 532 15600 (2019) 493 (2018) 6870 493 768 914 3250 12700 12800 15600
2020-06-18 05:45 14.50 15600 (2019) 493 (2018) 6870 493 768 914 3250 12700 12800 15600
2020-06-18 05:30 474 15600 (2019) 493 (2018) 6870 493 768 914 3250 12700 12800 15600
2020-06-18 04:45 14.53 15600 (2019) 493 (2018) 6870 493 768 914 3250 12700 12800 15600
2020-06-18 04:30 436 15600 (2019) 493 (2018) 6870 493 768 914 3250 12700 12800 15600
2020-06-18 03:45 14.54 15600 (2019) 493 (2018) 6870 493 768 914 3250 12700 12800 15600
2020-06-18 03:30 456 15600 (2019) 493 (2018) 6870 493 768 914 3250 12700 12800 15600
2020-06-18 02:45 14.57 15600 (2019) 493 (2018) 6870 493 768 914 3250 12700 12800 15600
2020-06-18 02:30 436 15600 (2019) 493 (2018) 6870 493 768 914 3250 12700 12800 15600
2020-06-18 01:45 14.56 15600 (2019) 493 (2018) 6870 493 768 914 3250 12700 12800 15600
2020-06-18 01:30 457 15600 (2019) 493 (2018) 6870 493 768 914 3250 12700 12800 15600
2020-06-18 00:45 14.61 15600 (2019) 493 (2018) 6870 493 768 914 3250 12700 12800 15600
2020-06-18 00:30 379 15600 (2019) 493 (2018) 6870 493 768 914 3250 12700 12800 15600
2020-06-17 23:45 14.62 15100 (2019) 537 (2018) 5660 537 732 936 3330 12200 12300 15100
2020-06-17 23:30 379 15100 (2019) 537 (2018) 5660 537 732 936 3330 12200 12300 15100
2020-06-17 22:45 14.65 15100 (2019) 537 (2018) 5660 537 732 936 3330 12200 12300 15100
2020-06-17 22:30 223 15100 (2019) 537 (2018) 5660 537 732 936 3330 12200 12300 15100
2020-06-17 21:45 14.68 15100 (2019) 537 (2018) 5660 537 732 936 3330 12200 12300 15100
2020-06-17 21:30 105 15100 (2019) 537 (2018) 5660 537 732 936 3330 12200 12300 15100
2020-06-17 20:45 14.71 15100 (2019) 537 (2018) 5660 537 732 936 3330 12200 12300 15100
2020-06-17 20:30 125 15100 (2019) 537 (2018) 5660 537 732 936 3330 12200 12300 15100
2020-06-17 19:45 14.76 15100 (2019) 537 (2018) 5660 537 732 936 3330 12200 12300 15100
2020-06-17 18:45 14.78 15100 (2019) 537 (2018) 5660 537 732 936 3330 12200 12300 15100
2020-06-17 17:45 14.84 15100 (2019) 537 (2018) 5660 537 732 936 3330 12200 12300 15100
2020-06-17 16:45 14.85 15100 (2019) 537 (2018) 5660 537 732 936 3330 12200 12300 15100
2020-06-17 15:45 14.88 15100 (2019) 537 (2018) 5660 537 732 936 3330 12200 12300 15100
2020-06-17 14:45 14.91 15100 (2019) 537 (2018) 5660 537 732 936 3330 12200 12300 15100
2020-06-17 13:45 14.92 126 15100 (2019) 537 (2018) 5660 537 732 936 3330 12200 12300 15100
2020-06-17 13:30 267 15100 (2019) 537 (2018) 5660 537 732 936 3330 12200 12300 15100
2020-06-17 12:45 14.95 15100 (2019) 537 (2018) 5660 537 732 936 3330 12200 12300 15100
2020-06-17 12:30 327 15100 (2019) 537 (2018) 5660 537 732 936 3330 12200 12300 15100
2020-06-17 11:45 14.98 15100 (2019) 537 (2018) 5660 537 732 936 3330 12200 12300 15100
2020-06-17 11:30 488 15100 (2019) 537 (2018) 5660 537 732 936 3330 12200 12300 15100
2020-06-17 10:45 15.03 15100 (2019) 537 (2018) 5660 537 732 936 3330 12200 12300 15100
2020-06-17 10:30 470 15100 (2019) 537 (2018) 5660 537 732 936 3330 12200 12300 15100
2020-06-17 09:45 15.04 15100 (2019) 537 (2018) 5660 537 732 936 3330 12200 12300 15100
2020-06-17 09:30 369 15100 (2019) 537 (2018) 5660 537 732 936 3330 12200 12300 15100
2020-06-17 08:45 15.08 15100 (2019) 537 (2018) 5660 537 732 936 3330 12200 12300 15100
2020-06-17 08:30 430 15100 (2019) 537 (2018) 5660 537 732 936 3330 12200 12300 15100
2020-06-17 07:45 15.11 15100 (2019) 537 (2018) 5660 537 732 936 3330 12200 12300 15100
2020-06-17 07:30 330 15100 (2019) 537 (2018) 5660 537 732 936 3330 12200 12300 15100
2020-06-17 06:45 15.15 15100 (2019) 537 (2018) 5660 537 732 936 3330 12200 12300 15100
2020-06-17 06:30 351 15100 (2019) 537 (2018) 5660 537 732 936 3330 12200 12300 15100
2020-06-17 05:45 15.15 15100 (2019) 537 (2018) 5660 537 732 936 3330 12200 12300 15100
2020-06-17 05:30 189 15100 (2019) 537 (2018) 5660 537 732 936 3330 12200 12300 15100
2020-06-17 04:45 15.16 15100 (2019) 537 (2018) 5660 537 732 936 3330 12200 12300 15100
2020-06-17 04:30 372 15100 (2019) 537 (2018) 5660 537 732 936 3330 12200 12300 15100
2020-06-17 03:45 15.18 15100 (2019) 537 (2018) 5660 537 732 936 3330 12200 12300 15100
2020-06-17 03:30 311 15100 (2019) 537 (2018) 5660 537 732 936 3330 12200 12300 15100
2020-06-17 02:45 15.21 15100 (2019) 537 (2018) 5660 537 732 936 3330 12200 12300 15100
2020-06-17 02:30 251 15100 (2019) 537 (2018) 5660 537 732 936 3330 12200 12300 15100
2020-06-17 01:45 15.25 15100 (2019) 537 (2018) 5660 537 732 936 3330 12200 12300 15100
2020-06-17 01:30 313 15100 (2019) 537 (2018) 5660 537 732 936 3330 12200 12300 15100
2020-06-17 00:45 15.24 15100 (2019) 537 (2018) 5660 537 732 936 3330 12200 12300 15100
2020-06-17 00:30 210 15100 (2019) 537 (2018) 5660 537 732 936 3330 12200 12300 15100
2020-06-16 23:45 15.28 15100 (2019) 50 (2012) 5740 50 596 714 4200 10700 11100 15100
2020-06-16 22:45 15.30 15100 (2019) 50 (2012) 5740 50 596 714 4200 10700 11100 15100
2020-06-16 21:45 15.32 15100 (2019) 50 (2012) 5740 50 596 714 4200 10700 11100 15100
2020-06-16 20:45 15.37 15100 (2019) 50 (2012) 5740 50 596 714 4200 10700 11100 15100
2020-06-16 19:45 15.39 15100 (2019) 50 (2012) 5740 50 596 714 4200 10700 11100 15100
2020-06-16 19:00 295 15100 (2019) 50 (2012) 5740 50 596 714 4200 10700 11100 15100
2020-06-16 18:45 15.42 15100 (2019) 50 (2012) 5740 50 596 714 4200 10700 11100 15100
2020-06-16 18:30 171 15100 (2019) 50 (2012) 5740 50 596 714 4200 10700 11100 15100
2020-06-16 17:45 15.44 15100 (2019) 50 (2012) 5740 50 596 714 4200 10700 11100 15100
2020-06-16 17:30 151 15100 (2019) 50 (2012) 5740 50 596 714 4200 10700 11100 15100
2020-06-16 16:45 15.47 15100 (2019) 50 (2012) 5740 50 596 714 4200 10700 11100 15100
2020-06-16 16:30 255 15100 (2019) 50 (2012) 5740 50 596 714 4200 10700 11100 15100
2020-06-16 15:45 15.50 15100 (2019) 50 (2012) 5740 50 596 714 4200 10700 11100 15100
2020-06-16 15:30 566 15100 (2019) 50 (2012) 5740 50 596 714 4200 10700 11100 15100
2020-06-16 14:45 15.52 15100 (2019) 50 (2012) 5740 50 596 714 4200 10700 11100 15100
2020-06-16 14:30 525 15100 (2019) 50 (2012) 5740 50 596 714 4200 10700 11100 15100
2020-06-16 13:45 15.54 15100 (2019) 50 (2012) 5740 50 596 714 4200 10700 11100 15100
2020-06-16 13:30 526 15100 (2019) 50 (2012) 5740 50 596 714 4200 10700 11100 15100
2020-06-16 12:45 15.57 15100 (2019) 50 (2012) 5740 50 596 714 4200 10700 11100 15100
2020-06-16 12:30 402 15100 (2019) 50 (2012) 5740 50 596 714 4200 10700 11100 15100
2020-06-16 11:45 15.61 15100 (2019) 50 (2012) 5740 50 596 714 4200 10700 11100 15100
2020-06-16 11:30 653 15100 (2019) 50 (2012) 5740 50 596 714 4200 10700 11100 15100
2020-06-16 10:45 15.62 15100 (2019) 50 (2012) 5740 50 596 714 4200 10700 11100 15100
2020-06-16 10:30 654 15100 (2019) 50 (2012) 5740 50 596 714 4200 10700 11100 15100
2020-06-16 09:45 15.67 15100 (2019) 50 (2012) 5740 50 596 714 4200 10700 11100 15100
2020-06-16 09:30 572 15100 (2019) 50 (2012) 5740 50 596 714 4200 10700 11100 15100
2020-06-16 08:45 15.69 15100 (2019) 50 (2012) 5740 50 596 714 4200 10700 11100 15100
2020-06-16 08:30 635 15100 (2019) 50 (2012) 5740 50 596 714 4200 10700 11100 15100
2020-06-16 07:45 15.74 15100 (2019) 50 (2012) 5740 50 596 714 4200 10700 11100 15100
2020-06-16 07:30 595 15100 (2019) 50 (2012) 5740 50 596 714 4200 10700 11100 15100
2020-06-16 06:45 15.79 15100 (2019) 50 (2012) 5740 50 596 714 4200 10700 11100 15100
2020-06-16 06:30 617 15100 (2019) 50 (2012) 5740 50 596 714 4200 10700 11100 15100
2020-06-16 05:45 15.80 15100 (2019) 50 (2012) 5740 50 596 714 4200 10700 11100 15100
2020-06-16 05:30 470 15100 (2019) 50 (2012) 5740 50 596 714 4200 10700 11100 15100
2020-06-16 04:45 15.81 15100 (2019) 50 (2012) 5740 50 596 714 4200 10700 11100 15100
2020-06-16 04:30 596 15100 (2019) 50 (2012) 5740 50 596 714 4200 10700 11100 15100
2020-06-16 03:45 15.82 15100 (2019) 50 (2012) 5740 50 596 714 4200 10700 11100 15100
2020-06-16 03:30 640 15100 (2019) 50 (2012) 5740 50 596 714 4200 10700 11100 15100
2020-06-16 02:45 15.84 15100 (2019) 50 (2012) 5740 50 596 714 4200 10700 11100 15100
2020-06-16 02:30 725 15100 (2019) 50 (2012) 5740 50 596 714 4200 10700 11100 15100
2020-06-16 01:45 15.85 15100 (2019) 50 (2012) 5740 50 596 714 4200 10700 11100 15100
2020-06-16 01:30 790 15100 (2019) 50 (2012) 5740 50 596 714 4200 10700 11100 15100
2020-06-16 00:45 15.87 15100 (2019) 50 (2012) 5740 50 596 714 4200 10700 11100 15100
2020-06-16 00:30 832 15100 (2019) 50 (2012) 5740 50 596 714 4200 10700 11100 15100
2020-06-15 23:45 15.89 14800 (2019) 50 (2012) 5360 50 689 805 4220 10800 12400 14800
2020-06-15 23:30 940 14800 (2019) 50 (2012) 5360 50 689 805 4220 10800 12400 14800
2020-06-15 22:45 15.91 14800 (2019) 50 (2012) 5360 50 689 805 4220 10800 12400 14800
2020-06-15 22:30 1050 14800 (2019) 50 (2012) 5360 50 689 805 4220 10800 12400 14800
2020-06-15 21:45 15.93 14800 (2019) 50 (2012) 5360 50 689 805 4220 10800 12400 14800
2020-06-15 21:30 1090 14800 (2019) 50 (2012) 5360 50 689 805 4220 10800 12400 14800
2020-06-15 20:45 15.97 14800 (2019) 50 (2012) 5360 50 689 805 4220 10800 12400 14800
2020-06-15 20:30 1110 14800 (2019) 50 (2012) 5360 50 689 805 4220 10800 12400 14800
2020-06-15 19:45 16.00 14800 (2019) 50 (2012) 5360 50 689 805 4220 10800 12400 14800
2020-06-15 19:30 881 14800 (2019) 50 (2012) 5360 50 689 805 4220 10800 12400 14800
2020-06-15 18:45 16.02 14800 (2019) 50 (2012) 5360 50 689 805 4220 10800 12400 14800
2020-06-15 18:30 1010 14800 (2019) 50 (2012) 5360 50 689 805 4220 10800 12400 14800
2020-06-15 17:45 16.03 14800 (2019) 50 (2012) 5360 50 689 805 4220 10800 12400 14800
2020-06-15 17:30 905 14800 (2019) 50 (2012) 5360 50 689 805 4220 10800 12400 14800
2020-06-15 16:45 16.04 14800 (2019) 50 (2012) 5360 50 689 805 4220 10800 12400 14800
2020-06-15 16:30 1010 14800 (2019) 50 (2012) 5360 50 689 805 4220 10800 12400 14800
2020-06-15 15:45 16.05 14800 (2019) 50 (2012) 5360 50 689 805 4220 10800 12400 14800
2020-06-15 15:30 949 14800 (2019) 50 (2012) 5360 50 689 805 4220 10800 12400 14800
2020-06-15 14:45 16.11 14800 (2019) 50 (2012) 5360 50 689 805 4220 10800 12400 14800
2020-06-15 14:30 908 14800 (2019) 50 (2012) 5360 50 689 805 4220 10800 12400 14800
2020-06-15 13:45 16.14 14800 (2019) 50 (2012) 5360 50 689 805 4220 10800 12400 14800
2020-06-15 13:30 823 14800 (2019) 50 (2012) 5360 50 689 805 4220 10800 12400 14800
2020-06-15 12:45 16.18 14800 (2019) 50 (2012) 5360 50 689 805 4220 10800 12400 14800
2020-06-15 12:30 870 14800 (2019) 50 (2012) 5360 50 689 805 4220 10800 12400 14800
2020-06-15 11:45 16.20 14800 (2019) 50 (2012) 5360 50 689 805 4220 10800 12400 14800
2020-06-15 11:30 849 14800 (2019) 50 (2012) 5360 50 689 805 4220 10800 12400 14800
2020-06-15 10:45 16.22 14800 (2019) 50 (2012) 5360 50 689 805 4220 10800 12400 14800
2020-06-15 10:30 698 14800 (2019) 50 (2012) 5360 50 689 805 4220 10800 12400 14800
2020-06-15 09:45 16.23 14800 (2019) 50 (2012) 5360 50 689 805 4220 10800 12400 14800
2020-06-15 09:30 613 14800 (2019) 50 (2012) 5360 50 689 805 4220 10800 12400 14800
2020-06-15 08:45 16.25 14800 (2019) 50 (2012) 5360 50 689 805 4220 10800 12400 14800
2020-06-15 08:30 700 14800 (2019) 50 (2012) 5360 50 689 805 4220 10800 12400 14800
2020-06-15 07:45 16.24 14800 (2019) 50 (2012) 5360 50 689 805 4220 10800 12400 14800
2020-06-15 07:30 787 14800 (2019) 50 (2012) 5360 50 689 805 4220 10800 12400 14800
2020-06-15 06:45 16.29 14800 (2019) 50 (2012) 5360 50 689 805 4220 10800 12400 14800
2020-06-15 06:30 788 14800 (2019) 50 (2012) 5360 50 689 805 4220 10800 12400 14800
2020-06-15 05:45 16.30 14800 (2019) 50 (2012) 5360 50 689 805 4220 10800 12400 14800
2020-06-15 05:30 506 14800 (2019) 50 (2012) 5360 50 689 805 4220 10800 12400 14800
2020-06-15 04:45 16.31 14800 (2019) 50 (2012) 5360 50 689 805 4220 10800 12400 14800
2020-06-15 04:30 658 14800 (2019) 50 (2012) 5360 50 689 805 4220 10800 12400 14800
2020-06-15 03:45 16.32 14800 (2019) 50 (2012) 5360 50 689 805 4220 10800 12400 14800
2020-06-15 03:30 746 14800 (2019) 50 (2012) 5360 50 689 805 4220 10800 12400 14800
2020-06-15 02:45 16.34 14800 (2019) 50 (2012) 5360 50 689 805 4220 10800 12400 14800
2020-06-15 02:30 681 14800 (2019) 50 (2012) 5360 50 689 805 4220 10800 12400 14800
2020-06-15 01:45 16.35 14800 (2019) 50 (2012) 5360 50 689 805 4220 10800 12400 14800
2020-06-15 01:30 900 14800 (2019) 50 (2012) 5360 50 689 805 4220 10800 12400 14800
2020-06-15 00:45 16.37 14800 (2019) 50 (2012) 5360 50 689 805 4220 10800 12400 14800
2020-06-15 00:30 945 14800 (2019) 50 (2012) 5360 50 689 805 4220 10800 12400 14800
2020-06-14 23:45 16.39 14300 (2019) 50 (2012) 5980 50 686 828 4950 12900 13500 14300
2020-06-14 23:30 990 14300 (2019) 50 (2012) 5980 50 686 828 4950 12900 13500 14300
2020-06-14 22:45 16.41 14300 (2019) 50 (2012) 5980 50 686 828 4950 12900 13500 14300
2020-06-14 22:30 1140 14300 (2019) 50 (2012) 5980 50 686 828 4950 12900 13500 14300
2020-06-14 21:45 16.43 14300 (2019) 50 (2012) 5980 50 686 828 4950 12900 13500 14300
2020-06-14 21:30 1080 14300 (2019) 50 (2012) 5980 50 686 828 4950 12900 13500 14300
2020-06-14 20:45 16.47 14300 (2019) 50 (2012) 5980 50 686 828 4950 12900 13500 14300
2020-06-14 20:30 1060 14300 (2019) 50 (2012) 5980 50 686 828 4950 12900 13500 14300
2020-06-14 19:45 16.49 14300 (2019) 50 (2012) 5980 50 686 828 4950 12900 13500 14300
2020-06-14 19:30 885 14300 (2019) 50 (2012) 5980 50 686 828 4950 12900 13500 14300
2020-06-14 18:45 16.51 14300 (2019) 50 (2012) 5980 50 686 828 4950 12900 13500 14300
2020-06-14 18:30 996 14300 (2019) 50 (2012) 5980 50 686 828 4950 12900 13500 14300
2020-06-14 17:45 16.52 14300 (2019) 50 (2012) 5980 50 686 828 4950 12900 13500 14300
2020-06-14 17:30 929 14300 (2019) 50 (2012) 5980 50 686 828 4950 12900 13500 14300
2020-06-14 16:45 16.55 14300 (2019) 50 (2012) 5980 50 686 828 4950 12900 13500 14300
2020-06-14 16:30 1020 14300 (2019) 50 (2012) 5980 50 686 828 4950 12900 13500 14300
2020-06-14 15:45 16.55 14300 (2019) 50 (2012) 5980 50 686 828 4950 12900 13500 14300
2020-06-14 15:30 933 14300 (2019) 50 (2012) 5980 50 686 828 4950 12900 13500 14300
2020-06-14 14:45 16.58 14300 (2019) 50 (2012) 5980 50 686 828 4950 12900 13500 14300
2020-06-14 14:30 979 14300 (2019) 50 (2012) 5980 50 686 828 4950 12900 13500 14300
2020-06-14 13:45 16.63 14300 (2019) 50 (2012) 5980 50 686 828 4950 12900 13500 14300
2020-06-14 13:30 760 14300 (2019) 50 (2012) 5980 50 686 828 4950 12900 13500 14300
2020-06-14 12:45 16.64 14300 (2019) 50 (2012) 5980 50 686 828 4950 12900 13500 14300
2020-06-14 12:30 871 14300 (2019) 50 (2012) 5980 50 686 828 4950 12900 13500 14300
2020-06-14 11:45 16.65 14300 (2019) 50 (2012) 5980 50 686 828 4950 12900 13500 14300
2020-06-14 11:30 917 14300 (2019) 50 (2012) 5980 50 686 828 4950 12900 13500 14300
2020-06-14 10:45 16.69 14300 (2019) 50 (2012) 5980 50 686 828 4950 12900 13500 14300
2020-06-14 10:30 829 14300 (2019) 50 (2012) 5980 50 686 828 4950 12900 13500 14300
2020-06-14 09:45 16.71 14300 (2019) 50 (2012) 5980 50 686 828 4950 12900 13500 14300
2020-06-14 09:30 718 14300 (2019) 50 (2012) 5980 50 686 828 4950 12900 13500 14300
2020-06-14 08:45 16.73 14300 (2019) 50 (2012) 5980 50 686 828 4950 12900 13500 14300
2020-06-14 08:30 786 14300 (2019) 50 (2012) 5980 50 686 828 4950 12900 13500 14300
2020-06-14 07:45 16.73 14300 (2019) 50 (2012) 5980 50 686 828 4950 12900 13500 14300
2020-06-14 07:30 743 14300 (2019) 50 (2012) 5980 50 686 828 4950 12900 13500 14300
2020-06-14 06:45 16.75 14300 (2019) 50 (2012) 5980 50 686 828 4950 12900 13500 14300
2020-06-14 06:30 609 14300 (2019) 50 (2012) 5980 50 686 828 4950 12900 13500 14300
2020-06-14 05:45 16.78 14300 (2019) 50 (2012) 5980 50 686 828 4950 12900 13500 14300
2020-06-14 05:30 609 14300 (2019) 50 (2012) 5980 50 686 828 4950 12900 13500 14300
2020-06-14 04:45 16.78 14300 (2019) 50 (2012) 5980 50 686 828 4950 12900 13500 14300
2020-06-14 04:30 766 14300 (2019) 50 (2012) 5980 50 686 828 4950 12900 13500 14300
2020-06-14 03:45 16.79 14300 (2019) 50 (2012) 5980 50 686 828 4950 12900 13500 14300
2020-06-14 03:30 721 14300 (2019) 50 (2012) 5980 50 686 828 4950 12900 13500 14300
2020-06-14 02:45 16.81 14300 (2019) 50 (2012) 5980 50 686 828 4950 12900 13500 14300
2020-06-14 02:30 968 14300 (2019) 50 (2012) 5980 50 686 828 4950 12900 13500 14300
2020-06-14 01:45 16.83 14300 (2019) 50 (2012) 5980 50 686 828 4950 12900 13500 14300
2020-06-14 01:30 813 14300 (2019) 50 (2012) 5980 50 686 828 4950 12900 13500 14300
2020-06-14 00:45 16.86 14300 (2019) 50 (2012) 5980 50 686 828 4950 12900 13500 14300
2020-06-14 00:30 971 14300 (2019) 50 (2012) 5980 50 686 828 4950 12900 13500 14300
2020-06-13 23:45 16.88 13000 (2014) 179 (2012) 5970 179 649 919 5720 11100 11500 13000
2020-06-13 23:30 1040 13000 (2014) 179 (2012) 5970 179 649 919 5720 11100 11500 13000
2020-06-13 22:45 16.90 13000 (2014) 179 (2012) 5970 179 649 919 5720 11100 11500 13000
2020-06-13 22:30 1270 13000 (2014) 179 (2012) 5970 179 649 919 5720 11100 11500 13000
2020-06-13 21:45 16.92 13000 (2014) 179 (2012) 5970 179 649 919 5720 11100 11500 13000
2020-06-13 21:30 1380 13000 (2014) 179 (2012) 5970 179 649 919 5720 11100 11500 13000
2020-06-13 20:45 16.94 13000 (2014) 179 (2012) 5970 179 649 919 5720 11100 11500 13000
2020-06-13 20:30 1250 13000 (2014) 179 (2012) 5970 179 649 919 5720 11100 11500 13000
2020-06-13 19:45 16.96 13000 (2014) 179 (2012) 5970 179 649 919 5720 11100 11500 13000
2020-06-13 19:30 1220 13000 (2014) 179 (2012) 5970 179 649 919 5720 11100 11500 13000
2020-06-13 18:45 16.99 13000 (2014) 179 (2012) 5970 179 649 919 5720 11100 11500 13000
2020-06-13 18:30 1180 13000 (2014) 179 (2012) 5970 179 649 919 5720 11100 11500 13000
2020-06-13 17:45 17.01 13000 (2014) 179 (2012) 5970 179 649 919 5720 11100 11500 13000
2020-06-13 17:30 1090 13000 (2014) 179 (2012) 5970 179 649 919 5720 11100 11500 13000
2020-06-13 16:45 17.01 13000 (2014) 179 (2012) 5970 179 649 919 5720 11100 11500 13000
2020-06-13 16:30 1160 13000 (2014) 179 (2012) 5970 179 649 919 5720 11100 11500 13000
2020-06-13 15:45 17.05 13000 (2014) 179 (2012) 5970 179 649 919 5720 11100 11500 13000
2020-06-13 15:30 1030 13000 (2014) 179 (2012) 5970 179 649 919 5720 11100 11500 13000
2020-06-13 14:45 17.07 13000 (2014) 179 (2012) 5970 179 649 919 5720 11100 11500 13000
2020-06-13 14:30 1050 13000 (2014) 179 (2012) 5970 179 649 919 5720 11100 11500 13000
2020-06-13 13:45 17.11 13000 (2014) 179 (2012) 5970 179 649 919 5720 11100 11500 13000
2020-06-13 13:30 870 13000 (2014) 179 (2012) 5970 179 649 919 5720 11100 11500 13000
2020-06-13 12:45 17.11 13000 (2014) 179 (2012) 5970 179 649 919 5720 11100 11500 13000
2020-06-13 12:30 872 13000 (2014) 179 (2012) 5970 179 649 919 5720 11100 11500 13000
2020-06-13 11:45 17.14 13000 (2014) 179 (2012) 5970 179 649 919 5720 11100 11500 13000
2020-06-13 11:30 804 13000 (2014) 179 (2012) 5970 179 649 919 5720 11100 11500 13000
2020-06-13 10:45 17.16 13000 (2014) 179 (2012) 5970 179 649 919 5720 11100 11500 13000
2020-06-13 10:30 1030 13000 (2014) 179 (2012) 5970 179 649 919 5720 11100 11500 13000
2020-06-13 09:45 17.17 13000 (2014) 179 (2012) 5970 179 649 919 5720 11100 11500 13000
2020-06-13 09:30 1030 13000 (2014) 179 (2012) 5970 179 649 919 5720 11100 11500 13000
2020-06-13 08:45 17.19 13000 (2014) 179 (2012) 5970 179 649 919 5720 11100 11500 13000
2020-06-13 08:30 1080 13000 (2014) 179 (2012) 5970 179 649 919 5720 11100 11500 13000
2020-06-13 07:45 17.21 13000 (2014) 179 (2012) 5970 179 649 919 5720 11100 11500 13000
2020-06-13 07:30 831 13000 (2014) 179 (2012) 5970 179 649 919 5720 11100 11500 13000
2020-06-13 06:45 17.23 13000 (2014) 179 (2012) 5970 179 649 919 5720 11100 11500 13000
2020-06-13 06:30 786 13000 (2014) 179 (2012) 5970 179 649 919 5720 11100 11500 13000
2020-06-13 05:45 17.24 13000 (2014) 179 (2012) 5970 179 649 919 5720 11100 11500 13000
2020-06-13 05:30 809 13000 (2014) 179 (2012) 5970 179 649 919 5720 11100 11500 13000
2020-06-13 04:45 17.24 13000 (2014) 179 (2012) 5970 179 649 919 5720 11100 11500 13000
2020-06-13 04:30 1080 13000 (2014) 179 (2012) 5970 179 649 919 5720 11100 11500 13000
2020-06-13 03:45 17.24 13000 (2014) 179 (2012) 5970 179 649 919 5720 11100 11500 13000
2020-06-13 03:30 1080 13000 (2014) 179 (2012) 5970 179 649 919 5720 11100 11500 13000
2020-06-13 02:45 17.25 13000 (2014) 179 (2012) 5970 179 649 919 5720 11100 11500 13000
2020-06-13 02:30 1130 13000 (2014) 179 (2012) 5970 179 649 919 5720 11100 11500 13000
2020-06-13 01:45 17.25 13000 (2014) 179 (2012) 5970 179 649 919 5720 11100 11500 13000
2020-06-13 01:30 1310 13000 (2014) 179 (2012) 5970 179 649 919 5720 11100 11500 13000
2020-06-13 00:45 17.27 13000 (2014) 179 (2012) 5970 179 649 919 5720 11100 11500 13000
2020-06-13 00:30 1380 13000 (2014) 179 (2012) 5970 179 649 919 5720 11100 11500 13000
2020-06-12 23:45 17.29 14600 (2013) 88 (2012) 6450 88 542 976 6240 12200 14000 14600
2020-06-12 23:30 1220 14600 (2013) 88 (2012) 6450 88 542 976 6240 12200 14000 14600
2020-06-12 22:45 17.31 14600 (2013) 88 (2012) 6450 88 542 976 6240 12200 14000 14600
2020-06-12 22:30 1500 14600 (2013) 88 (2012) 6450 88 542 976 6240 12200 14000 14600
2020-06-12 21:45 17.33 14600 (2013) 88 (2012) 6450 88 542 976 6240 12200 14000 14600
2020-06-12 21:30 1430 14600 (2013) 88 (2012) 6450 88 542 976 6240 12200 14000 14600
2020-06-12 20:45 17.36 14600 (2013) 88 (2012) 6450 88 542 976 6240 12200 14000 14600
2020-06-12 20:30 1230 14600 (2013) 88 (2012) 6450 88 542 976 6240 12200 14000 14600
2020-06-12 19:45 17.38 14600 (2013) 88 (2012) 6450 88 542 976 6240 12200 14000 14600
2020-06-12 19:30 1230 14600 (2013) 88 (2012) 6450 88 542 976 6240 12200 14000 14600
2020-06-12 18:45 17.40 14600 (2013) 88 (2012) 6450 88 542 976 6240 12200 14000 14600
2020-06-12 18:30 1090 14600 (2013) 88 (2012) 6450 88 542 976 6240 12200 14000 14600
2020-06-12 17:45 17.38 14600 (2013) 88 (2012) 6450 88 542 976 6240 12200 14000 14600
2020-06-12 17:30 1300 14600 (2013) 88 (2012) 6450 88 542 976 6240 12200 14000 14600
2020-06-12 16:45 17.41 14600 (2013) 88 (2012) 6450 88 542 976 6240 12200 14000 14600
2020-06-12 16:30 1300 14600 (2013) 88 (2012) 6450 88 542 976 6240 12200 14000 14600
2020-06-12 15:45 17.42 14600 (2013) 88 (2012) 6450 88 542 976 6240 12200 14000 14600
2020-06-12 15:30 1370 14600 (2013) 88 (2012) 6450 88 542 976 6240 12200 14000 14600
2020-06-12 14:45 17.45 14600 (2013) 88 (2012) 6450 88 542 976 6240 12200 14000 14600
2020-06-12 14:30 1400 14600 (2013) 88 (2012) 6450 88 542 976 6240 12200 14000 14600
2020-06-12 13:45 17.47 14600 (2013) 88 (2012) 6450 88 542 976 6240 12200 14000 14600
2020-06-12 13:30 1360 14600 (2013) 88 (2012) 6450 88 542 976 6240 12200 14000 14600
2020-06-12 12:45 17.49 14600 (2013) 88 (2012) 6450 88 542 976 6240 12200 14000 14600
2020-06-12 12:30 1330 14600 (2013) 88 (2012) 6450 88 542 976 6240 12200 14000 14600
2020-06-12 11:45 17.54 14600 (2013) 88 (2012) 6450 88 542 976 6240 12200 14000 14600
2020-06-12 11:30 1220 14600 (2013) 88 (2012) 6450 88 542 976 6240 12200 14000 14600
2020-06-12 10:45 17.58 14600 (2013) 88 (2012) 6450 88 542 976 6240 12200 14000 14600
2020-06-12 10:30 1410 14600 (2013) 88 (2012) 6450 88 542 976 6240 12200 14000 14600
2020-06-12 09:45 17.58 14600 (2013) 88 (2012) 6450 88 542 976 6240 12200 14000 14600
2020-06-12 09:30 1320 14600 (2013) 88 (2012) 6450 88 542 976 6240 12200 14000 14600
2020-06-12 08:45 17.62 14600 (2013) 88 (2012) 6450 88 542 976 6240 12200 14000 14600
2020-06-12 08:30 1250 14600 (2013) 88 (2012) 6450 88 542 976 6240 12200 14000 14600
2020-06-12 07:45 17.64 14600 (2013) 88 (2012) 6450 88 542 976 6240 12200 14000 14600
2020-06-12 07:30 1200 14600 (2013) 88 (2012) 6450 88 542 976 6240 12200 14000 14600
2020-06-12 06:45 17.65 14600 (2013) 88 (2012) 6450 88 542 976 6240 12200 14000 14600
2020-06-12 06:30 1110 14600 (2013) 88 (2012) 6450 88 542 976 6240 12200 14000 14600
2020-06-12 05:45 17.65 14600 (2013) 88 (2012) 6450 88 542 976 6240 12200 14000 14600
2020-06-12 05:30 1160 14600 (2013) 88 (2012) 6450 88 542 976 6240 12200 14000 14600
2020-06-12 04:45 17.66 14600 (2013) 88 (2012) 6450 88 542 976 6240 12200 14000 14600
2020-06-12 04:30 1270 14600 (2013) 88 (2012) 6450 88 542 976 6240 12200 14000 14600
2020-06-12 03:45 17.68 14600 (2013) 88 (2012) 6450 88 542 976 6240 12200 14000 14600
2020-06-12 03:30 1250 14600 (2013) 88 (2012) 6450 88 542 976 6240 12200 14000 14600
2020-06-12 02:45 17.69 14600 (2013) 88 (2012) 6450 88 542 976 6240 12200 14000 14600
2020-06-12 02:30 1230 14600 (2013) 88 (2012) 6450 88 542 976 6240 12200 14000 14600
2020-06-12 01:45 17.71 14600 (2013) 88 (2012) 6450 88 542 976 6240 12200 14000 14600
2020-06-12 01:30 1280 14600 (2013) 88 (2012) 6450 88 542 976 6240 12200 14000 14600
2020-06-12 00:45 17.73 14600 (2013) 88 (2012) 6450 88 542 976 6240 12200 14000 14600
2020-06-12 00:30 1540 14600 (2013) 88 (2012) 6450 88 542 976 6240 12200 14000 14600
2020-06-11 23:45 17.73 16200 (2013) 50 (2012) 6700 50 834 1160 6170 12300 13500 16200
2020-06-11 23:30 1730 16200 (2013) 50 (2012) 6700 50 834 1160 6170 12300 13500 16200
2020-06-11 22:45 17.78 16200 (2013) 50 (2012) 6700 50 834 1160 6170 12300 13500 16200
2020-06-11 22:30 1680 16200 (2013) 50 (2012) 6700 50 834 1160 6170 12300 13500 16200
2020-06-11 21:45 17.79 16200 (2013) 50 (2012) 6700 50 834 1160 6170 12300 13500 16200
2020-06-11 21:30 1570 16200 (2013) 50 (2012) 6700 50 834 1160 6170 12300 13500 16200
2020-06-11 20:45 17.82 16200 (2013) 50 (2012) 6700 50 834 1160 6170 12300 13500 16200
2020-06-11 20:30 1730 16200 (2013) 50 (2012) 6700 50 834 1160 6170 12300 13500 16200
2020-06-11 19:45 17.85 16200 (2013) 50 (2012) 6700 50 834 1160 6170 12300 13500 16200
2020-06-11 19:30 2140 16200 (2013) 50 (2012) 6700 50 834 1160 6170 12300 13500 16200
2020-06-11 18:45 17.86 16200 (2013) 50 (2012) 6700 50 834 1160 6170 12300 13500 16200
2020-06-11 18:30 2230 16200 (2013) 50 (2012) 6700 50 834 1160 6170 12300 13500 16200
2020-06-11 17:45 17.87 16200 (2013) 50 (2012) 6700 50 834 1160 6170 12300 13500 16200
2020-06-11 17:30 2260 16200 (2013) 50 (2012) 6700 50 834 1160 6170 12300 13500 16200
2020-06-11 16:45 17.91 16200 (2013) 50 (2012) 6700 50 834 1160 6170 12300 13500 16200
2020-06-11 16:30 2270 16200 (2013) 50 (2012) 6700 50 834 1160 6170 12300 13500 16200
2020-06-11 15:45 17.95 16200 (2013) 50 (2012) 6700 50 834 1160 6170 12300 13500 16200
2020-06-11 15:30 2530 16200 (2013) 50 (2012) 6700 50 834 1160 6170 12300 13500 16200
2020-06-11 14:45 18.01 16200 (2013) 50 (2012) 6700 50 834 1160 6170 12300 13500 16200
2020-06-11 14:30 2510 16200 (2013) 50 (2012) 6700 50 834 1160 6170 12300 13500 16200
2020-06-11 13:45 18.04 16200 (2013) 50 (2012) 6700 50 834 1160 6170 12300 13500 16200
2020-06-11 13:30 2230 16200 (2013) 50 (2012) 6700 50 834 1160 6170 12300 13500 16200
2020-06-11 12:45 18.03 16200 (2013) 50 (2012) 6700 50 834 1160 6170 12300 13500 16200
2020-06-11 12:30 2360 16200 (2013) 50 (2012) 6700 50 834 1160 6170 12300 13500 16200
2020-06-11 11:45 18.07 16200 (2013) 50 (2012) 6700 50 834 1160 6170 12300 13500 16200
2020-06-11 11:30 2330 16200 (2013) 50 (2012) 6700 50 834 1160 6170 12300 13500 16200
2020-06-11 10:45 18.10 16200 (2013) 50 (2012) 6700 50 834 1160 6170 12300 13500 16200
2020-06-11 10:30 2170 16200 (2013) 50 (2012) 6700 50 834 1160 6170 12300 13500 16200
2020-06-11 09:45 18.12 16200 (2013) 50 (2012) 6700 50 834 1160 6170 12300 13500 16200
2020-06-11 09:30 2220 16200 (2013) 50 (2012) 6700 50 834 1160 6170 12300 13500 16200
2020-06-11 08:45 18.15 16200 (2013) 50 (2012) 6700 50 834 1160 6170 12300 13500 16200
2020-06-11 08:30 2370 16200 (2013) 50 (2012) 6700 50 834 1160 6170 12300 13500 16200
2020-06-11 07:45 18.18 16200 (2013) 50 (2012) 6700 50 834 1160 6170 12300 13500 16200
2020-06-11 07:30 2350 16200 (2013) 50 (2012) 6700 50 834 1160 6170 12300 13500 16200
2020-06-11 06:45 18.21 16200 (2013) 50 (2012) 6700 50 834 1160 6170 12300 13500 16200
2020-06-11 06:30 2420 16200 (2013) 50 (2012) 6700 50 834 1160 6170 12300 13500 16200
2020-06-11 05:45 18.23 16200 (2013) 50 (2012) 6700 50 834 1160 6170 12300 13500 16200
2020-06-11 05:30 2400 16200 (2013) 50 (2012) 6700 50 834 1160 6170 12300 13500 16200
2020-06-11 04:45 18.25 16200 (2013) 50 (2012) 6700 50 834 1160 6170 12300 13500 16200
2020-06-11 04:30 2570 16200 (2013) 50 (2012) 6700 50 834 1160 6170 12300 13500 16200
2020-06-11 03:45 18.26 16200 (2013) 50 (2012) 6700 50 834 1160 6170 12300 13500 16200
2020-06-11 03:30 2530 16200 (2013) 50 (2012) 6700 50 834 1160 6170 12300 13500 16200
2020-06-11 02:45 18.27 16200 (2013) 50 (2012) 6700 50 834 1160 6170 12300 13500 16200
2020-06-11 02:30 2600 16200 (2013) 50 (2012) 6700 50 834 1160 6170 12300 13500 16200
2020-06-11 01:45 18.29 16200 (2013) 50 (2012) 6700 50 834 1160 6170 12300 13500 16200
2020-06-11 01:30 2630 16200 (2013) 50 (2012) 6700 50 834 1160 6170 12300 13500 16200
2020-06-11 00:45 18.29 16200 (2013) 50 (2012) 6700 50 834 1160 6170 12300 13500 16200
2020-06-11 00:30 2580 16200 (2013) 50 (2012) 6700 50 834 1160 6170 12300 13500 16200
2020-06-10 23:45 18.29 17000 (2013) 50 (2012) 6500 50 733 1210 6240 11700 15200 17000
2020-06-10 23:30 2630 17000 (2013) 50 (2012) 6500 50 733 1210 6240 11700 15200 17000
2020-06-10 22:45 18.29 17000 (2013) 50 (2012) 6500 50 733 1210 6240 11700 15200 17000
2020-06-10 22:30 2630 17000 (2013) 50 (2012) 6500 50 733 1210 6240 11700 15200 17000
2020-06-10 21:45 18.24 17000 (2013) 50 (2012) 6500 50 733 1210 6240 11700 15200 17000
2020-06-10 21:30 2720 17000 (2013) 50 (2012) 6500 50 733 1210 6240 11700 15200 17000
2020-06-10 20:45 18.27 17000 (2013) 50 (2012) 6500 50 733 1210 6240 11700 15200 17000
2020-06-10 20:30 2620 17000 (2013) 50 (2012) 6500 50 733 1210 6240 11700 15200 17000
2020-06-10 19:45 18.26 17000 (2013) 50 (2012) 6500 50 733 1210 6240 11700 15200 17000
2020-06-10 19:30 2760 17000 (2013) 50 (2012) 6500 50 733 1210 6240 11700 15200 17000
2020-06-10 18:45 18.21 17000 (2013) 50 (2012) 6500 50 733 1210 6240 11700 15200 17000
2020-06-10 18:30 2760 17000 (2013) 50 (2012) 6500 50 733 1210 6240 11700 15200 17000
2020-06-10 17:45 18.20 17000 (2013) 50 (2012) 6500 50 733 1210 6240 11700 15200 17000
2020-06-10 17:30 2830 17000 (2013) 50 (2012) 6500 50 733 1210 6240 11700 15200 17000
2020-06-10 16:45 18.19 17000 (2013) 50 (2012) 6500 50 733 1210 6240 11700 15200 17000
2020-06-10 16:30 2970 17000 (2013) 50 (2012) 6500 50 733 1210 6240 11700 15200 17000
2020-06-10 15:45 18.19 17000 (2013) 50 (2012) 6500 50 733 1210 6240 11700 15200 17000
2020-06-10 15:30 2860 17000 (2013) 50 (2012) 6500 50 733 1210 6240 11700 15200 17000
2020-06-10 14:45 18.19 17000 (2013) 50 (2012) 6500 50 733 1210 6240 11700 15200 17000
2020-06-10 14:30 2900 17000 (2013) 50 (2012) 6500 50 733 1210 6240 11700 15200 17000
2020-06-10 13:45 18.20 17000 (2013) 50 (2012) 6500 50 733 1210 6240 11700 15200 17000
2020-06-10 13:30 2860 17000 (2013) 50 (2012) 6500 50 733 1210 6240 11700 15200 17000
2020-06-10 12:45 18.20 17000 (2013) 50 (2012) 6500 50 733 1210 6240 11700 15200 17000
2020-06-10 12:30 3000 17000 (2013) 50 (2012) 6500 50 733 1210 6240 11700 15200 17000
2020-06-10 11:45 18.21 17000 (2013) 50 (2012) 6500 50 733 1210 6240 11700 15200 17000
2020-06-10 11:30 3050 17000 (2013) 50 (2012) 6500 50 733 1210 6240 11700 15200 17000
2020-06-10 10:45 18.20 17000 (2013) 50 (2012) 6500 50 733 1210 6240 11700 15200 17000
2020-06-10 10:30 3050 17000 (2013) 50 (2012) 6500 50 733 1210 6240 11700 15200 17000
2020-06-10 09:45 18.20 17000 (2013) 50 (2012) 6500 50 733 1210 6240 11700 15200 17000
2020-06-10 09:30 3000 17000 (2013) 50 (2012) 6500 50 733 1210 6240 11700 15200 17000
2020-06-10 08:45 18.19 17000 (2013) 50 (2012) 6500 50 733 1210 6240 11700 15200 17000
2020-06-10 08:30 3070 17000 (2013) 50 (2012) 6500 50 733 1210 6240 11700 15200 17000
2020-06-10 07:45 18.18 17000 (2013) 50 (2012) 6500 50 733 1210 6240 11700 15200 17000
2020-06-10 07:30 3260 17000 (2013) 50 (2012) 6500 50 733 1210 6240 11700 15200 17000
2020-06-10 06:45 18.20 17000 (2013) 50 (2012) 6500 50 733 1210 6240 11700 15200 17000
2020-06-10 06:30 3410 17000 (2013) 50 (2012) 6500 50 733 1210 6240 11700 15200 17000
2020-06-10 05:45 18.16 17000 (2013) 50 (2012) 6500 50 733 1210 6240 11700 15200 17000
2020-06-10 05:30 3410 17000 (2013) 50 (2012) 6500 50 733 1210 6240 11700 15200 17000
2020-06-10 04:45 18.14 17000 (2013) 50 (2012) 6500 50 733 1210 6240 11700 15200 17000
2020-06-10 04:30 3450 17000 (2013) 50 (2012) 6500 50 733 1210 6240 11700 15200 17000
2020-06-10 03:45 18.13 17000 (2013) 50 (2012) 6500 50 733 1210 6240 11700 15200 17000
2020-06-10 03:30 3500 17000 (2013) 50 (2012) 6500 50 733 1210 6240 11700 15200 17000
2020-06-10 02:45 18.15 17000 (2013) 50 (2012) 6500 50 733 1210 6240 11700 15200 17000
2020-06-10 02:30 3590 17000 (2013) 50 (2012) 6500 50 733 1210 6240 11700 15200 17000
2020-06-10 01:45 18.16 17000 (2013) 50 (2012) 6500 50 733 1210 6240 11700 15200 17000
2020-06-10 01:30 3570 17000 (2013) 50 (2012) 6500 50 733 1210 6240 11700 15200 17000
2020-06-10 00:45 18.19 17000 (2013) 50 (2012) 6500 50 733 1210 6240 11700 15200 17000
2020-06-10 00:30 3560 17000 (2013) 50 (2012) 6500 50 733 1210 6240 11700 15200 17000
2020-06-09 23:45 18.16 19200 (2013) 222 (2012) 7470 222 736 1340 6340 15000 18700 19200
2020-06-09 23:30 3610 19200 (2013) 222 (2012) 7470 222 736 1340 6340 15000 18700 19200
2020-06-09 22:45 18.22 19200 (2013) 222 (2012) 7470 222 736 1340 6340 15000 18700 19200
2020-06-09 22:30 3610 19200 (2013) 222 (2012) 7470 222 736 1340 6340 15000 18700 19200
2020-06-09 21:45 18.22 19200 (2013) 222 (2012) 7470 222 736 1340 6340 15000 18700 19200
2020-06-09 21:30 3570 19200 (2013) 222 (2012) 7470 222 736 1340 6340 15000 18700 19200
2020-06-09 20:45 18.23 19200 (2013) 222 (2012) 7470 222 736 1340 6340 15000 18700 19200
2020-06-09 20:30 3470 19200 (2013) 222 (2012) 7470 222 736 1340 6340 15000 18700 19200
2020-06-09 19:45 18.23 19200 (2013) 222 (2012) 7470 222 736 1340 6340 15000 18700 19200
2020-06-09 19:30 3680 19200 (2013) 222 (2012) 7470 222 736 1340 6340 15000 18700 19200
2020-06-09 18:45 18.24 19200 (2013) 222 (2012) 7470 222 736 1340 6340 15000 18700 19200
2020-06-09 18:30 3610 19200 (2013) 222 (2012) 7470 222 736 1340 6340 15000 18700 19200
2020-06-09 17:45 18.23 19200 (2013) 222 (2012) 7470 222 736 1340 6340 15000 18700 19200
2020-06-09 17:30 3810 19200 (2013) 222 (2012) 7470 222 736 1340 6340 15000 18700 19200
2020-06-09 16:45 18.23 19200 (2013) 222 (2012) 7470 222 736 1340 6340 15000 18700 19200
2020-06-09 16:30 3730 19200 (2013) 222 (2012) 7470 222 736 1340 6340 15000 18700 19200
2020-06-09 15:45 18.21 19200 (2013) 222 (2012) 7470 222 736 1340 6340 15000 18700 19200
2020-06-09 15:30 3820 19200 (2013) 222 (2012) 7470 222 736 1340 6340 15000 18700 19200
2020-06-09 14:45 18.23 19200 (2013) 222 (2012) 7470 222 736 1340 6340 15000 18700 19200
2020-06-09 14:30 3920 19200 (2013) 222 (2012) 7470 222 736 1340 6340 15000 18700 19200
2020-06-09 13:45 18.19 19200 (2013) 222 (2012) 7470 222 736 1340 6340 15000 18700 19200
2020-06-09 13:30 4040 19200 (2013) 222 (2012) 7470 222 736 1340 6340 15000 18700 19200
2020-06-09 12:45 18.21 19200 (2013) 222 (2012) 7470 222 736 1340 6340 15000 18700 19200
2020-06-09 12:30 3970 19200 (2013) 222 (2012) 7470 222 736 1340 6340 15000 18700 19200
2020-06-09 11:45 18.22 19200 (2013) 222 (2012) 7470 222 736 1340 6340 15000 18700 19200
2020-06-09 11:30 4020 19200 (2013) 222 (2012) 7470 222 736 1340 6340 15000 18700 19200
2020-06-09 10:45 18.22 19200 (2013) 222 (2012) 7470 222 736 1340 6340 15000 18700 19200
2020-06-09 10:30 4020 19200 (2013) 222 (2012) 7470 222 736 1340 6340 15000 18700 19200
2020-06-09 09:45 18.23 19200 (2013) 222 (2012) 7470 222 736 1340 6340 15000 18700 19200
2020-06-09 09:30 4020 19200 (2013) 222 (2012) 7470 222 736 1340 6340 15000 18700 19200
2020-06-09 08:45 18.25 19200 (2013) 222 (2012) 7470 222 736 1340 6340 15000 18700 19200
2020-06-09 08:30 3950 19200 (2013) 222 (2012) 7470 222 736 1340 6340 15000 18700 19200
2020-06-09 07:45 18.27 19200 (2013) 222 (2012) 7470 222 736 1340 6340 15000 18700 19200
2020-06-09 07:30 4080 19200 (2013) 222 (2012) 7470 222 736 1340 6340 15000 18700 19200
2020-06-09 06:45 18.28 19200 (2013) 222 (2012) 7470 222 736 1340 6340 15000 18700 19200
2020-06-09 06:30 4110 19200 (2013) 222 (2012) 7470 222 736 1340 6340 15000 18700 19200
2020-06-09 05:45 18.28 19200 (2013) 222 (2012) 7470 222 736 1340 6340 15000 18700 19200
2020-06-09 05:30 4120 19200 (2013) 222 (2012) 7470 222 736 1340 6340 15000 18700 19200
2020-06-09 04:45 18.32 19200 (2013) 222 (2012) 7470 222 736 1340 6340 15000 18700 19200
2020-06-09 04:30 4310 19200 (2013) 222 (2012) 7470 222 736 1340 6340 15000 18700 19200
2020-06-09 03:45 18.35 19200 (2013) 222 (2012) 7470 222 736 1340 6340 15000 18700 19200
2020-06-09 03:30 4400 19200 (2013) 222 (2012) 7470 222 736 1340 6340 15000 18700 19200
2020-06-09 02:45 18.37 19200 (2013) 222 (2012) 7470 222 736 1340 6340 15000 18700 19200
2020-06-09 02:30 4300 19200 (2013) 222 (2012) 7470 222 736 1340 6340 15000 18700 19200
2020-06-09 01:45 18.41 19200 (2013) 222 (2012) 7470 222 736 1340 6340 15000 18700 19200
2020-06-09 01:30 4430 19200 (2013) 222 (2012) 7470 222 736 1340 6340 15000 18700 19200
2020-06-09 00:45 18.41 19200 (2013) 222 (2012) 7470 222 736 1340 6340 15000 18700 19200
2020-06-09 00:30 4300 19200 (2013) 222 (2012) 7470 222 736 1340 6340 15000 18700 19200
2020-06-08 23:45 18.46 22000 (2013) 213 (2012) 8200 213 840 1330 5920 16700 19200 22000
2020-06-08 23:30 4340 22000 (2013) 213 (2012) 8200 213 840 1330 5920 16700 19200 22000
2020-06-08 22:45 18.50 22000 (2013) 213 (2012) 8200 213 840 1330 5920 16700 19200 22000
2020-06-08 22:30 4550 22000 (2013) 213 (2012) 8200 213 840 1330 5920 16700 19200 22000
2020-06-08 21:45 18.51 22000 (2013) 213 (2012) 8200 213 840 1330 5920 16700 19200 22000
2020-06-08 21:30 4510 22000 (2013) 213 (2012) 8200 213 840 1330 5920 16700 19200 22000
2020-06-08 20:45 18.56 22000 (2013) 213 (2012) 8200 213 840 1330 5920 16700 19200 22000
2020-06-08 20:30 4530 22000 (2013) 213 (2012) 8200 213 840 1330 5920 16700 19200 22000
2020-06-08 19:45 18.56 22000 (2013) 213 (2012) 8200 213 840 1330 5920 16700 19200 22000
2020-06-08 19:30 4540 22000 (2013) 213 (2012) 8200 213 840 1330 5920 16700 19200 22000
2020-06-08 18:45 18.58 22000 (2013) 213 (2012) 8200 213 840 1330 5920 16700 19200 22000
2020-06-08 18:30 4650 22000 (2013) 213 (2012) 8200 213 840 1330 5920 16700 19200 22000
2020-06-08 17:45 18.63 22000 (2013) 213 (2012) 8200 213 840 1330 5920 16700 19200 22000
2020-06-08 17:30 4770 22000 (2013) 213 (2012) 8200 213 840 1330 5920 16700 19200 22000
2020-06-08 16:45 18.65 22000 (2013) 213 (2012) 8200 213 840 1330 5920 16700 19200 22000
2020-06-08 16:30 4880 22000 (2013) 213 (2012) 8200 213 840 1330 5920 16700 19200 22000
2020-06-08 15:45 18.73 22000 (2013) 213 (2012) 8200 213 840 1330 5920 16700 19200 22000
2020-06-08 15:30 4830 22000 (2013) 213 (2012) 8200 213 840 1330 5920 16700 19200 22000
2020-06-08 14:45 18.75 22000 (2013) 213 (2012) 8200 213 840 1330 5920 16700 19200 22000
2020-06-08 14:30 4990 22000 (2013) 213 (2012) 8200 213 840 1330 5920 16700 19200 22000
2020-06-08 13:45 18.80 22000 (2013) 213 (2012) 8200 213 840 1330 5920 16700 19200 22000
2020-06-08 13:30 5040 22000 (2013) 213 (2012) 8200 213 840 1330 5920 16700 19200 22000
2020-06-08 12:45 18.80 22000 (2013) 213 (2012) 8200 213 840 1330 5920 16700 19200 22000
2020-06-08 12:30 5100 22000 (2013) 213 (2012) 8200 213 840 1330 5920 16700 19200 22000
2020-06-08 11:45 18.86 22000 (2013) 213 (2012) 8200 213 840 1330 5920 16700 19200 22000
2020-06-08 11:30 5090 22000 (2013) 213 (2012) 8200 213 840 1330 5920 16700 19200 22000
2020-06-08 10:45 18.88 22000 (2013) 213 (2012) 8200 213 840 1330 5920 16700 19200 22000
2020-06-08 10:30 4970 22000 (2013) 213 (2012) 8200 213 840 1330 5920 16700 19200 22000
2020-06-08 09:45 18.93 22000 (2013) 213 (2012) 8200 213 840 1330 5920 16700 19200 22000
2020-06-08 09:30 4950 22000 (2013) 213 (2012) 8200 213 840 1330 5920 16700 19200 22000
2020-06-08 08:45 18.97 22000 (2013) 213 (2012) 8200 213 840 1330 5920 16700 19200 22000
2020-06-08 08:30 4890 22000 (2013) 213 (2012) 8200 213 840 1330 5920 16700 19200 22000
2020-06-08 07:45 19.02 22000 (2013) 213 (2012) 8200 213 840 1330 5920 16700 19200 22000
2020-06-08 07:30 4980 22000 (2013) 213 (2012) 8200 213 840 1330 5920 16700 19200 22000
2020-06-08 06:45 19.06 22000 (2013) 213 (2012) 8200 213 840 1330 5920 16700 19200 22000
2020-06-08 06:30 5020 22000 (2013) 213 (2012) 8200 213 840 1330 5920 16700 19200 22000
2020-06-08 05:45 19.10 22000 (2013) 213 (2012) 8200 213 840 1330 5920 16700 19200 22000
2020-06-08 05:30 5000 22000 (2013) 213 (2012) 8200 213 840 1330 5920 16700 19200 22000
2020-06-08 04:45 19.14 22000 (2013) 213 (2012) 8200 213 840 1330 5920 16700 19200 22000
2020-06-08 04:30 5190 22000 (2013) 213 (2012) 8200 213 840 1330 5920 16700 19200 22000
2020-06-08 03:45 19.18 22000 (2013) 213 (2012) 8200 213 840 1330 5920 16700 19200 22000
2020-06-08 03:30 5200 22000 (2013) 213 (2012) 8200 213 840 1330 5920 16700 19200 22000
2020-06-08 02:45 19.21 22000 (2013) 213 (2012) 8200 213 840 1330 5920 16700 19200 22000
2020-06-08 02:30 5230 22000 (2013) 213 (2012) 8200 213 840 1330 5920 16700 19200 22000
2020-06-08 01:45 19.25 22000 (2013) 213 (2012) 8200 213 840 1330 5920 16700 19200 22000
2020-06-08 01:30 5320 22000 (2013) 213 (2012) 8200 213 840 1330 5920 16700 19200 22000
2020-06-08 00:45 19.27 22000 (2013) 213 (2012) 8200 213 840 1330 5920 16700 19200 22000
2020-06-08 00:30 5380 22000 (2013) 213 (2012) 8200 213 840 1330 5920 16700 19200 22000
2020-06-07 23:45 19.32 24400 (2013) 219 (2012) 8830 219 930 1540 4550 18500 20700 24400
2020-06-07 23:30 5420 24400 (2013) 219 (2012) 8830 219 930 1540 4550 18500 20700 24400
2020-06-07 22:45 19.36 24400 (2013) 219 (2012) 8830 219 930 1540 4550 18500 20700 24400
2020-06-07 22:30 5510 24400 (2013) 219 (2012) 8830 219 930 1540 4550 18500 20700 24400
2020-06-07 21:45 19.39 24400 (2013) 219 (2012) 8830 219 930 1540 4550 18500 20700 24400
2020-06-07 21:30 5440 24400 (2013) 219 (2012) 8830 219 930 1540 4550 18500 20700 24400
2020-06-07 20:45 19.44 24400 (2013) 219 (2012) 8830 219 930 1540 4550 18500 20700 24400
2020-06-07 20:30 5810 24400 (2013) 219 (2012) 8830 219 930 1540 4550 18500 20700 24400
2020-06-07 19:45 19.47 24400 (2013) 219 (2012) 8830 219 930 1540 4550 18500 20700 24400
2020-06-07 19:30 5710 24400 (2013) 219 (2012) 8830 219 930 1540 4550 18500 20700 24400
2020-06-07 18:45 19.48 24400 (2013) 219 (2012) 8830 219 930 1540 4550 18500 20700 24400
2020-06-07 18:30 5670 24400 (2013) 219 (2012) 8830 219 930 1540 4550 18500 20700 24400
2020-06-07 17:45 19.52 24400 (2013) 219 (2012) 8830 219 930 1540 4550 18500 20700 24400
2020-06-07 17:30 5700 24400 (2013) 219 (2012) 8830 219 930 1540 4550 18500 20700 24400
2020-06-07 16:45 19.59 24400 (2013) 219 (2012) 8830 219 930 1540 4550 18500 20700 24400
2020-06-07 16:30 5910 24400 (2013) 219 (2012) 8830 219 930 1540 4550 18500 20700 24400
2020-06-07 15:45 19.60 24400 (2013) 219 (2012) 8830 219 930 1540 4550 18500 20700 24400
2020-06-07 15:30 5820 24400 (2013) 219 (2012) 8830 219 930 1540 4550 18500 20700 24400
2020-06-07 14:45 19.65 24400 (2013) 219 (2012) 8830 219 930 1540 4550 18500 20700 24400
2020-06-07 14:30 5780 24400 (2013) 219 (2012) 8830 219 930 1540 4550 18500 20700 24400
2020-06-07 13:45 19.67 24400 (2013) 219 (2012) 8830 219 930 1540 4550 18500 20700 24400
2020-06-07 13:30 5860 24400 (2013) 219 (2012) 8830 219 930 1540 4550 18500 20700 24400
2020-06-07 12:45 19.70 24400 (2013) 219 (2012) 8830 219 930 1540 4550 18500 20700 24400
2020-06-07 12:30 5840 24400 (2013) 219 (2012) 8830 219 930 1540 4550 18500 20700 24400
2020-06-07 11:45 19.74 24400 (2013) 219 (2012) 8830 219 930 1540 4550 18500 20700 24400
2020-06-07 11:30 5900 24400 (2013) 219 (2012) 8830 219 930 1540 4550 18500 20700 24400
2020-06-07 10:45 19.76 24400 (2013) 219 (2012) 8830 219 930 1540 4550 18500 20700 24400
2020-06-07 10:30 6160 24400 (2013) 219 (2012) 8830 219 930 1540 4550 18500 20700 24400
2020-06-07 09:45 19.81 24400 (2013) 219 (2012) 8830 219 930 1540 4550 18500 20700 24400
2020-06-07 09:30 6110 24400 (2013) 219 (2012) 8830 219 930 1540 4550 18500 20700 24400
2020-06-07 08:45 19.84 24400 (2013) 219 (2012) 8830 219 930 1540 4550 18500 20700 24400
2020-06-07 08:30 6120 24400 (2013) 219 (2012) 8830 219 930 1540 4550 18500 20700 24400
2020-06-07 07:45 19.91 24400 (2013) 219 (2012) 8830 219 930 1540 4550 18500 20700 24400
2020-06-07 07:30 6170 24400 (2013) 219 (2012) 8830 219 930 1540 4550 18500 20700 24400
2020-06-07 06:45 19.96 24400 (2013) 219 (2012) 8830 219 930 1540 4550 18500 20700 24400
2020-06-07 06:30 6370 24400 (2013) 219 (2012) 8830 219 930 1540 4550 18500 20700 24400
2020-06-07 05:45 19.97 24400 (2013) 219 (2012) 8830 219 930 1540 4550 18500 20700 24400
2020-06-07 05:30 6250 24400 (2013) 219 (2012) 8830 219 930 1540 4550 18500 20700 24400
2020-06-07 04:45 20.03 24400 (2013) 219 (2012) 8830 219 930 1540 4550 18500 20700 24400
2020-06-07 04:30 6310 24400 (2013) 219 (2012) 8830 219 930 1540 4550 18500 20700 24400
2020-06-07 03:45 20.07 24400 (2013) 219 (2012) 8830 219 930 1540 4550 18500 20700 24400
2020-06-07 03:30 6400 24400 (2013) 219 (2012) 8830 219 930 1540 4550 18500 20700 24400
2020-06-07 02:45 20.09 24400 (2013) 219 (2012) 8830 219 930 1540 4550 18500 20700 24400
2020-06-07 02:30 6520 24400 (2013) 219 (2012) 8830 219 930 1540 4550 18500 20700 24400
2020-06-07 01:45 20.12 24400 (2013) 219 (2012) 8830 219 930 1540 4550 18500 20700 24400
2020-06-07 01:30 6500 24400 (2013) 219 (2012) 8830 219 930 1540 4550 18500 20700 24400
2020-06-07 00:45 20.15 24400 (2013) 219 (2012) 8830 219 930 1540 4550 18500 20700 24400
2020-06-07 00:30 6590 24400 (2013) 219 (2012) 8830 219 930 1540 4550 18500 20700 24400
2020-06-06 23:45 20.18 24900 (2013) 143 (2012) 9100 143 903 1050 2980 20300 22100 24900
2020-06-06 23:30 6520 24900 (2013) 143 (2012) 9100 143 903 1050 2980 20300 22100 24900
2020-06-06 22:45 20.21 24900 (2013) 143 (2012) 9100 143 903 1050 2980 20300 22100 24900
2020-06-06 22:30 6670 24900 (2013) 143 (2012) 9100 143 903 1050 2980 20300 22100 24900
2020-06-06 21:45 20.24 24900 (2013) 143 (2012) 9100 143 903 1050 2980 20300 22100 24900
2020-06-06 21:30 6670 24900 (2013) 143 (2012) 9100 143 903 1050 2980 20300 22100 24900
2020-06-06 20:45 20.27 24900 (2013) 143 (2012) 9100 143 903 1050 2980 20300 22100 24900
2020-06-06 20:30 6790 24900 (2013) 143 (2012) 9100 143 903 1050 2980 20300 22100 24900
2020-06-06 19:45 20.26 24900 (2013) 143 (2012) 9100 143 903 1050 2980 20300 22100 24900
2020-06-06 19:30 6850 24900 (2013) 143 (2012) 9100 143 903 1050 2980 20300 22100 24900
2020-06-06 18:45 20.29 24900 (2013) 143 (2012) 9100 143 903 1050 2980 20300 22100 24900
2020-06-06 18:30 6910 24900 (2013) 143 (2012) 9100 143 903 1050 2980 20300 22100 24900
2020-06-06 17:45 20.35 24900 (2013) 143 (2012) 9100 143 903 1050 2980 20300 22100 24900
2020-06-06 17:30 6900 24900 (2013) 143 (2012) 9100 143 903 1050 2980 20300 22100 24900
2020-06-06 16:45 20.36 24900 (2013) 143 (2012) 9100 143 903 1050 2980 20300 22100 24900
2020-06-06 16:30 6960 24900 (2013) 143 (2012) 9100 143 903 1050 2980 20300 22100 24900
2020-06-06 15:45 20.38 24900 (2013) 143 (2012) 9100 143 903 1050 2980 20300 22100 24900
2020-06-06 15:30 6950 24900 (2013) 143 (2012) 9100 143 903 1050 2980 20300 22100 24900
2020-06-06 14:45 20.38 24900 (2013) 143 (2012) 9100 143 903 1050 2980 20300 22100 24900
2020-06-06 14:30 6920 24900 (2013) 143 (2012) 9100 143 903 1050 2980 20300 22100 24900
2020-06-06 13:45 20.43 24900 (2013) 143 (2012) 9100 143 903 1050 2980 20300 22100 24900
2020-06-06 13:30 6790 24900 (2013) 143 (2012) 9100 143 903 1050 2980 20300 22100 24900
2020-06-06 12:45 20.45 24900 (2013) 143 (2012) 9100 143 903 1050 2980 20300 22100 24900
2020-06-06 12:30 6860 24900 (2013) 143 (2012) 9100 143 903 1050 2980 20300 22100 24900
2020-06-06 11:45 20.48 24900 (2013) 143 (2012) 9100 143 903 1050 2980 20300 22100 24900
2020-06-06 11:30 6980 24900 (2013) 143 (2012) 9100 143 903 1050 2980 20300 22100 24900
2020-06-06 10:45 20.48 24900 (2013) 143 (2012) 9100 143 903 1050 2980 20300 22100 24900
2020-06-06 10:30 7060 24900 (2013) 143 (2012) 9100 143 903 1050 2980 20300 22100 24900
2020-06-06 09:45 20.49 24900 (2013) 143 (2012) 9100 143 903 1050 2980 20300 22100 24900
2020-06-06 09:30 7200 24900 (2013) 143 (2012) 9100 143 903 1050 2980 20300 22100 24900
2020-06-06 08:45 20.52 24900 (2013) 143 (2012) 9100 143 903 1050 2980 20300 22100 24900
2020-06-06 08:30 7210 24900 (2013) 143 (2012) 9100 143 903 1050 2980 20300 22100 24900
2020-06-06 07:45 20.54 24900 (2013) 143 (2012) 9100 143 903 1050 2980 20300 22100 24900
2020-06-06 07:30 7470 24900 (2013) 143 (2012) 9100 143 903 1050 2980 20300 22100 24900
2020-06-06 06:45 20.57 24900 (2013) 143 (2012) 9100 143 903 1050 2980 20300 22100 24900
2020-06-06 06:30 7690 24900 (2013) 143 (2012) 9100 143 903 1050 2980 20300 22100 24900
2020-06-06 05:45 20.58 24900 (2013) 143 (2012) 9100 143 903 1050 2980 20300 22100 24900
2020-06-06 05:30 7560 24900 (2013) 143 (2012) 9100 143 903 1050 2980 20300 22100 24900
2020-06-06 04:45 20.60 24900 (2013) 143 (2012) 9100 143 903 1050 2980 20300 22100 24900
2020-06-06 04:30 7540 24900 (2013) 143 (2012) 9100 143 903 1050 2980 20300 22100 24900
2020-06-06 03:45 20.62 24900 (2013) 143 (2012) 9100 143 903 1050 2980 20300 22100 24900
2020-06-06 03:30 7520 24900 (2013) 143 (2012) 9100 143 903 1050 2980 20300 22100 24900
2020-06-06 02:45 20.63 24900 (2013) 143 (2012) 9100 143 903 1050 2980 20300 22100 24900
2020-06-06 02:30 7610 24900 (2013) 143 (2012) 9100 143 903 1050 2980 20300 22100 24900
2020-06-06 01:45 20.65 24900 (2013) 143 (2012) 9100 143 903 1050 2980 20300 22100 24900
2020-06-06 01:30 7590 24900 (2013) 143 (2012) 9100 143 903 1050 2980 20300 22100 24900
2020-06-06 00:45 20.65 24900 (2013) 143 (2012) 9100 143 903 1050 2980 20300 22100 24900
2020-06-06 00:30 7620 24900 (2013) 143 (2012) 9100 143 903 1050 2980 20300 22100 24900
2020-06-05 23:45 20.68 24600 (2013) 50 (2012) 9240 50 658 919 4030 20900 24500 24600
2020-06-05 23:30 7520 24600 (2013) 50 (2012) 9240 50 658 919 4030 20900 24500 24600
2020-06-05 22:45 20.69 24600 (2013) 50 (2012) 9240 50 658 919 4030 20900 24500 24600
2020-06-05 22:30 7490 24600 (2013) 50 (2012) 9240 50 658 919 4030 20900 24500 24600
2020-06-05 21:45 20.71 24600 (2013) 50 (2012) 9240 50 658 919 4030 20900 24500 24600
2020-06-05 21:30 7420 24600 (2013) 50 (2012) 9240 50 658 919 4030 20900 24500 24600
2020-06-05 20:45 20.73 24600 (2013) 50 (2012) 9240 50 658 919 4030 20900 24500 24600
2020-06-05 20:30 7430 24600 (2013) 50 (2012) 9240 50 658 919 4030 20900 24500 24600
2020-06-05 19:45 20.74 24600 (2013) 50 (2012) 9240 50 658 919 4030 20900 24500 24600
2020-06-05 19:30 7540 24600 (2013) 50 (2012) 9240 50 658 919 4030 20900 24500 24600
2020-06-05 18:45 20.76 24600 (2013) 50 (2012) 9240 50 658 919 4030 20900 24500 24600
2020-06-05 18:30 7380 24600 (2013) 50 (2012) 9240 50 658 919 4030 20900 24500 24600
2020-06-05 17:45 20.78 24600 (2013) 50 (2012) 9240 50 658 919 4030 20900 24500 24600
2020-06-05 17:30 7280 24600 (2013) 50 (2012) 9240 50 658 919 4030 20900 24500 24600
2020-06-05 16:45 20.79 24600 (2013) 50 (2012) 9240 50 658 919 4030 20900 24500 24600
2020-06-05 16:30 7240 24600 (2013) 50 (2012) 9240 50 658 919 4030 20900 24500 24600
2020-06-05 15:45 20.82 24600 (2013) 50 (2012) 9240 50 658 919 4030 20900 24500 24600
2020-06-05 15:30 7350 24600 (2013) 50 (2012) 9240 50 658 919 4030 20900 24500 24600
2020-06-05 14:45 20.83 24600 (2013) 50 (2012) 9240 50 658 919 4030 20900 24500 24600
2020-06-05 14:30 7270 24600 (2013) 50 (2012) 9240 50 658 919 4030 20900 24500 24600
2020-06-05 13:45 20.87 24600 (2013) 50 (2012) 9240 50 658 919 4030 20900 24500 24600
2020-06-05 13:30 7290 24600 (2013) 50 (2012) 9240 50 658 919 4030 20900 24500 24600
2020-06-05 12:45 20.88 24600 (2013) 50 (2012) 9240 50 658 919 4030 20900 24500 24600
2020-06-05 12:30 7160 24600 (2013) 50 (2012) 9240 50 658 919 4030 20900 24500 24600
2020-06-05 11:45 20.92 24600 (2013) 50 (2012) 9240 50 658 919 4030 20900 24500 24600
2020-06-05 11:30 7280 24600 (2013) 50 (2012) 9240 50 658 919 4030 20900 24500 24600
2020-06-05 10:45 20.94 24600 (2013) 50 (2012) 9240 50 658 919 4030 20900 24500 24600
2020-06-05 10:30 7490 24600 (2013) 50 (2012) 9240 50 658 919 4030 20900 24500 24600
2020-06-05 09:45 20.94 24600 (2013) 50 (2012) 9240 50 658 919 4030 20900 24500 24600
2020-06-05 09:30 7490 24600 (2013) 50 (2012) 9240 50 658 919 4030 20900 24500 24600
2020-06-05 08:45 21.01 24600 (2013) 50 (2012) 9240 50 658 919 4030 20900 24500 24600
2020-06-05 08:30 7560 24600 (2013) 50 (2012) 9240 50 658 919 4030 20900 24500 24600
2020-06-05 07:45 21.02 24600 (2013) 50 (2012) 9240 50 658 919 4030 20900 24500 24600
2020-06-05 07:30 7540 24600 (2013) 50 (2012) 9240 50 658 919 4030 20900 24500 24600
2020-06-05 06:45 21.06 24600 (2013) 50 (2012) 9240 50 658 919 4030 20900 24500 24600
2020-06-05 06:30 7630 24600 (2013) 50 (2012) 9240 50 658 919 4030 20900 24500 24600
2020-06-05 05:45 21.11 24600 (2013) 50 (2012) 9240 50 658 919 4030 20900 24500 24600
2020-06-05 05:30 7550 24600 (2013) 50 (2012) 9240 50 658 919 4030 20900 24500 24600
2020-06-05 04:45 21.14 24600 (2013) 50 (2012) 9240 50 658 919 4030 20900 24500 24600
2020-06-05 04:30 7850 24600 (2013) 50 (2012) 9240 50 658 919 4030 20900 24500 24600
2020-06-05 03:45 21.18 24600 (2013) 50 (2012) 9240 50 658 919 4030 20900 24500 24600
2020-06-05 03:30 7700 24600 (2013) 50 (2012) 9240 50 658 919 4030 20900 24500 24600
2020-06-05 02:45 21.23 24600 (2013) 50 (2012) 9240 50 658 919 4030 20900 24500 24600
2020-06-05 02:30 7860 24600 (2013) 50 (2012) 9240 50 658 919 4030 20900 24500 24600
2020-06-05 01:45 21.27 24600 (2013) 50 (2012) 9240 50 658 919 4030 20900 24500 24600
2020-06-05 01:30 8000 24600 (2013) 50 (2012) 9240 50 658 919 4030 20900 24500 24600
2020-06-05 00:45 21.32 24600 (2013) 50 (2012) 9240 50 658 919 4030 20900 24500 24600
2020-06-05 00:30 8180 24600 (2013) 50 (2012) 9240 50 658 919 4030 20900 24500 24600
2020-06-04 23:45 21.36 30600 (2015) 50 (2012) 10300 50 646 1040 6160 22000 22900 30600
2020-06-04 23:30 8260 30600 (2015) 50 (2012) 10300 50 646 1040 6160 22000 22900 30600
2020-06-04 22:45 21.40 30600 (2015) 50 (2012) 10300 50 646 1040 6160 22000 22900 30600
2020-06-04 22:30 8400 30600 (2015) 50 (2012) 10300 50 646 1040 6160 22000 22900 30600
2020-06-04 21:45 21.45 30600 (2015) 50 (2012) 10300 50 646 1040 6160 22000 22900 30600
2020-06-04 21:30 8390 30600 (2015) 50 (2012) 10300 50 646 1040 6160 22000 22900 30600
2020-06-04 20:45 21.48 30600 (2015) 50 (2012) 10300 50 646 1040 6160 22000 22900 30600
2020-06-04 20:30 8270 30600 (2015) 50 (2012) 10300 50 646 1040 6160 22000 22900 30600
2020-06-04 19:45 21.53 30600 (2015) 50 (2012) 10300 50 646 1040 6160 22000 22900 30600
2020-06-04 19:30 8230 30600 (2015) 50 (2012) 10300 50 646 1040 6160 22000 22900 30600
2020-06-04 18:45 21.57 30600 (2015) 50 (2012) 10300 50 646 1040 6160 22000 22900 30600
2020-06-04 18:30 8250 30600 (2015) 50 (2012) 10300 50 646 1040 6160 22000 22900 30600
2020-06-04 17:45 21.63 30600 (2015) 50 (2012) 10300 50 646 1040 6160 22000 22900 30600
2020-06-04 17:30 8010 30600 (2015) 50 (2012) 10300 50 646 1040 6160 22000 22900 30600
2020-06-04 16:45 21.67 30600 (2015) 50 (2012) 10300 50 646 1040 6160 22000 22900 30600
2020-06-04 16:30 8470 30600 (2015) 50 (2012) 10300 50 646 1040 6160 22000 22900 30600
2020-06-04 15:45 21.72 30600 (2015) 50 (2012) 10300 50 646 1040 6160 22000 22900 30600
2020-06-04 15:30 9370 30600 (2015) 50 (2012) 10300 50 646 1040 6160 22000 22900 30600
2020-06-04 14:45 21.75 30600 (2015) 50 (2012) 10300 50 646 1040 6160 22000 22900 30600
2020-06-04 14:30 9620 30600 (2015) 50 (2012) 10300 50 646 1040 6160 22000 22900 30600
2020-06-04 13:45 21.78 30600 (2015) 50 (2012) 10300 50 646 1040 6160 22000 22900 30600
2020-06-04 13:30 9920 30600 (2015) 50 (2012) 10300 50 646 1040 6160 22000 22900 30600
2020-06-04 12:45 21.79 30600 (2015) 50 (2012) 10300 50 646 1040 6160 22000 22900 30600
2020-06-04 12:30 10300 30600 (2015) 50 (2012) 10300 50 646 1040 6160 22000 22900 30600
2020-06-04 11:45 21.78 30600 (2015) 50 (2012) 10300 50 646 1040 6160 22000 22900 30600
2020-06-04 11:30 10000 30600 (2015) 50 (2012) 10300 50 646 1040 6160 22000 22900 30600
2020-06-04 10:45 21.78 30600 (2015) 50 (2012) 10300 50 646 1040 6160 22000 22900 30600
2020-06-04 10:30 9570 30600 (2015) 50 (2012) 10300 50 646 1040 6160 22000 22900 30600
2020-06-04 09:45 21.77 30600 (2015) 50 (2012) 10300 50 646 1040 6160 22000 22900 30600
2020-06-04 09:30 9690 30600 (2015) 50 (2012) 10300 50 646 1040 6160 22000 22900 30600
2020-06-04 08:45 21.79 30600 (2015) 50 (2012) 10300 50 646 1040 6160 22000 22900 30600
2020-06-04 08:30 9870 30600 (2015) 50 (2012) 10300 50 646 1040 6160 22000 22900 30600
2020-06-04 07:45 21.79 30600 (2015) 50 (2012) 10300 50 646 1040 6160 22000 22900 30600
2020-06-04 07:30 9340 30600 (2015) 50 (2012) 10300 50 646 1040 6160 22000 22900 30600
2020-06-04 06:45 21.80 30600 (2015) 50 (2012) 10300 50 646 1040 6160 22000 22900 30600
2020-06-04 06:30 9340 30600 (2015) 50 (2012) 10300 50 646 1040 6160 22000 22900 30600
2020-06-04 05:45 21.79 30600 (2015) 50 (2012) 10300 50 646 1040 6160 22000 22900 30600
2020-06-04 05:30 8620 30600 (2015) 50 (2012) 10300 50 646 1040 6160 22000 22900 30600
2020-06-04 04:45 21.86 30600 (2015) 50 (2012) 10300 50 646 1040 6160 22000 22900 30600
2020-06-04 04:30 8850 30600 (2015) 50 (2012) 10300 50 646 1040 6160 22000 22900 30600
2020-06-04 03:45 21.79 30600 (2015) 50 (2012) 10300 50 646 1040 6160 22000 22900 30600
2020-06-04 03:30 9180 30600 (2015) 50 (2012) 10300 50 646 1040 6160 22000 22900 30600
2020-06-04 02:45 21.95 30600 (2015) 50 (2012) 10300 50 646 1040 6160 22000 22900 30600
2020-06-04 02:30 9990 30600 (2015) 50 (2012) 10300 50 646 1040 6160 22000 22900 30600
2020-06-04 01:45 22.07 30600 (2015) 50 (2012) 10300 50 646 1040 6160 22000 22900 30600
2020-06-04 01:30 9880 30600 (2015) 50 (2012) 10300 50 646 1040 6160 22000 22900 30600
2020-06-04 00:45 22.18 30600 (2015) 50 (2012) 10300 50 646 1040 6160 22000 22900 30600
2020-06-04 00:30 10100 30600 (2015) 50 (2012) 10300 50 646 1040 6160 22000 22900 30600
2020-06-03 23:45 22.28 35900 (2015) 261 (2012) 11900 261 559 1280 7070 23300 26600 35900
2020-06-03 23:30 10700 35900 (2015) 261 (2012) 11900 261 559 1280 7070 23300 26600 35900
2020-06-03 22:45 22.39 35900 (2015) 261 (2012) 11900 261 559 1280 7070 23300 26600 35900
2020-06-03 22:30 11000 35900 (2015) 261 (2012) 11900 261 559 1280 7070 23300 26600 35900
2020-06-03 21:45 22.49 35900 (2015) 261 (2012) 11900 261 559 1280 7070 23300 26600 35900
2020-06-03 21:30 11000 35900 (2015) 261 (2012) 11900 261 559 1280 7070 23300 26600 35900
2020-06-03 20:45 22.58 35900 (2015) 261 (2012) 11900 261 559 1280 7070 23300 26600 35900
2020-06-03 20:30 11700 35900 (2015) 261 (2012) 11900 261 559 1280 7070 23300 26600 35900
2020-06-03 19:45 22.68 35900 (2015) 261 (2012) 11900 261 559 1280 7070 23300 26600 35900
2020-06-03 19:30 12500 35900 (2015) 261 (2012) 11900 261 559 1280 7070 23300 26600 35900
2020-06-03 18:45 22.77 35900 (2015) 261 (2012) 11900 261 559 1280 7070 23300 26600 35900
2020-06-03 18:30 12600 35900 (2015) 261 (2012) 11900 261 559 1280 7070 23300 26600 35900
2020-06-03 17:45 22.87 35900 (2015) 261 (2012) 11900 261 559 1280 7070 23300 26600 35900
2020-06-03 17:30 13000 35900 (2015) 261 (2012) 11900 261 559 1280 7070 23300 26600 35900
2020-06-03 16:45 22.96 35900 (2015) 261 (2012) 11900 261 559 1280 7070 23300 26600 35900
2020-06-03 16:30 13300 35900 (2015) 261 (2012) 11900 261 559 1280 7070 23300 26600 35900
2020-06-03 15:45 23.04 35900 (2015) 261 (2012) 11900 261 559 1280 7070 23300 26600 35900
2020-06-03 15:30 13600 35900 (2015) 261 (2012) 11900 261 559 1280 7070 23300 26600 35900
2020-06-03 14:45 23.14 35900 (2015) 261 (2012) 11900 261 559 1280 7070 23300 26600 35900
2020-06-03 14:30 14000 35900 (2015) 261 (2012) 11900 261 559 1280 7070 23300 26600 35900
2020-06-03 13:45 23.20 35900 (2015) 261 (2012) 11900 261 559 1280 7070 23300 26600 35900
2020-06-03 13:30 13900 35900 (2015) 261 (2012) 11900 261 559 1280 7070 23300 26600 35900
2020-06-03 12:45 23.28 35900 (2015) 261 (2012) 11900 261 559 1280 7070 23300 26600 35900
2020-06-03 12:30 14500 35900 (2015) 261 (2012) 11900 261 559 1280 7070 23300 26600 35900
2020-06-03 11:45 23.32 35900 (2015) 261 (2012) 11900 261 559 1280 7070 23300 26600 35900
2020-06-03 11:30 14500 35900 (2015) 261 (2012) 11900 261 559 1280 7070 23300 26600 35900
2020-06-03 10:45 23.40 35900 (2015) 261 (2012) 11900 261 559 1280 7070 23300 26600 35900
2020-06-03 10:30 14900 35900 (2015) 261 (2012) 11900 261 559 1280 7070 23300 26600 35900
2020-06-03 09:45 23.45 35900 (2015) 261 (2012) 11900 261 559 1280 7070 23300 26600 35900
2020-06-03 09:30 15000 35900 (2015) 261 (2012) 11900 261 559 1280 7070 23300 26600 35900
2020-06-03 08:45 23.52 35900 (2015) 261 (2012) 11900 261 559 1280 7070 23300 26600 35900
2020-06-03 08:30 15400 35900 (2015) 261 (2012) 11900 261 559 1280 7070 23300 26600 35900
2020-06-03 07:45 23.56 35900 (2015) 261 (2012) 11900 261 559 1280 7070 23300 26600 35900
2020-06-03 07:30 15600 35900 (2015) 261 (2012) 11900 261 559 1280 7070 23300 26600 35900
2020-06-03 06:45 23.63 35900 (2015) 261 (2012) 11900 261 559 1280 7070 23300 26600 35900
2020-06-03 06:30 16300 35900 (2015) 261 (2012) 11900 261 559 1280 7070 23300 26600 35900
2020-06-03 05:45 23.69 35900 (2015) 261 (2012) 11900 261 559 1280 7070 23300 26600 35900
2020-06-03 05:30 16400 35900 (2015) 261 (2012) 11900 261 559 1280 7070 23300 26600 35900
2020-06-03 04:45 23.74 35900 (2015) 261 (2012) 11900 261 559 1280 7070 23300 26600 35900
2020-06-03 04:30 16600 35900 (2015) 261 (2012) 11900 261 559 1280 7070 23300 26600 35900
2020-06-03 03:45 23.80 35900 (2015) 261 (2012) 11900 261 559 1280 7070 23300 26600 35900
2020-06-03 03:30 16700 35900 (2015) 261 (2012) 11900 261 559 1280 7070 23300 26600 35900
2020-06-03 02:45 23.85 35900 (2015) 261 (2012) 11900 261 559 1280 7070 23300 26600 35900
2020-06-03 02:30 17200 35900 (2015) 261 (2012) 11900 261 559 1280 7070 23300 26600 35900
2020-06-03 01:45 23.90 35900 (2015) 261 (2012) 11900 261 559 1280 7070 23300 26600 35900
2020-06-03 01:30 17700 35900 (2015) 261 (2012) 11900 261 559 1280 7070 23300 26600 35900
2020-06-03 00:45 23.94 35900 (2015) 261 (2012) 11900 261 559 1280 7070 23300 26600 35900
2020-06-03 00:30 17400 35900 (2015) 261 (2012) 11900 261 559 1280 7070 23300 26600 35900
2020-06-02 23:45 24.00 38300 (2015) 339 (2012) 14000 339 590 1390 10400 26200 34400 38300
2020-06-02 23:30 17800 38300 (2015) 339 (2012) 14000 339 590 1390 10400 26200 34400 38300
2020-06-02 22:45 24.03 38300 (2015) 339 (2012) 14000 339 590 1390 10400 26200 34400 38300
2020-06-02 22:30 18000 38300 (2015) 339 (2012) 14000 339 590 1390 10400 26200 34400 38300
2020-06-02 21:45 24.08 38300 (2015) 339 (2012) 14000 339 590 1390 10400 26200 34400 38300
2020-06-02 21:30 18200 38300 (2015) 339 (2012) 14000 339 590 1390 10400 26200 34400 38300
2020-06-02 20:45 24.12 38300 (2015) 339 (2012) 14000 339 590 1390 10400 26200 34400 38300
2020-06-02 20:30 18300 38300 (2015) 339 (2012) 14000 339 590 1390 10400 26200 34400 38300
2020-06-02 19:45 24.18 38300 (2015) 339 (2012) 14000 339 590 1390 10400 26200 34400 38300
2020-06-02 19:30 18500 38300 (2015) 339 (2012) 14000 339 590 1390 10400 26200 34400 38300
2020-06-02 18:45 24.21 38300 (2015) 339 (2012) 14000 339 590 1390 10400 26200 34400 38300
2020-06-02 18:30 18900 38300 (2015) 339 (2012) 14000 339 590 1390 10400 26200 34400 38300
2020-06-02 17:45 24.26 38300 (2015) 339 (2012) 14000 339 590 1390 10400 26200 34400 38300
2020-06-02 17:30 18700 38300 (2015) 339 (2012) 14000 339 590 1390 10400 26200 34400 38300
2020-06-02 16:45 24.31 38300 (2015) 339 (2012) 14000 339 590 1390 10400 26200 34400 38300
2020-06-02 16:30 18800 38300 (2015) 339 (2012) 14000 339 590 1390 10400 26200 34400 38300
2020-06-02 15:45 24.35 38300 (2015) 339 (2012) 14000 339 590 1390 10400 26200 34400 38300
2020-06-02 15:30 18800 38300 (2015) 339 (2012) 14000 339 590 1390 10400 26200 34400 38300
2020-06-02 14:45 24.39 38300 (2015) 339 (2012) 14000 339 590 1390 10400 26200 34400 38300
2020-06-02 14:30 19400 38300 (2015) 339 (2012) 14000 339 590 1390 10400 26200 34400 38300
2020-06-02 13:45 24.43 38300 (2015) 339 (2012) 14000 339 590 1390 10400 26200 34400 38300
2020-06-02 13:30 18700 38300 (2015) 339 (2012) 14000 339 590 1390 10400 26200 34400 38300
2020-06-02 12:45 24.47 38300 (2015) 339 (2012) 14000 339 590 1390 10400 26200 34400 38300
2020-06-02 12:30 19000 38300 (2015) 339 (2012) 14000 339 590 1390 10400 26200 34400 38300
2020-06-02 11:45 24.49 38300 (2015) 339 (2012) 14000 339 590 1390 10400 26200 34400 38300
2020-06-02 11:30 18900 38300 (2015) 339 (2012) 14000 339 590 1390 10400 26200 34400 38300
2020-06-02 10:45 24.53 38300 (2015) 339 (2012) 14000 339 590 1390 10400 26200 34400 38300
2020-06-02 10:30 19200 38300 (2015) 339 (2012) 14000 339 590 1390 10400 26200 34400 38300
2020-06-02 09:45 24.57 38300 (2015) 339 (2012) 14000 339 590 1390 10400 26200 34400 38300
2020-06-02 09:30 19900 38300 (2015) 339 (2012) 14000 339 590 1390 10400 26200 34400 38300
2020-06-02 08:45 24.59 38300 (2015) 339 (2012) 14000 339 590 1390 10400 26200 34400 38300
2020-06-02 08:30 20600 38300 (2015) 339 (2012) 14000 339 590 1390 10400 26200 34400 38300
2020-06-02 07:45 24.61 38300 (2015) 339 (2012) 14000 339 590 1390 10400 26200 34400 38300
2020-06-02 07:30 20900 38300 (2015) 339 (2012) 14000 339 590 1390 10400 26200 34400 38300
2020-06-02 06:45 24.66 38300 (2015) 339 (2012) 14000 339 590 1390 10400 26200 34400 38300
2020-06-02 06:30 20900 38300 (2015) 339 (2012) 14000 339 590 1390 10400 26200 34400 38300
2020-06-02 05:45 24.68 38300 (2015) 339 (2012) 14000 339 590 1390 10400 26200 34400 38300
2020-06-02 05:30 21300 38300 (2015) 339 (2012) 14000 339 590 1390 10400 26200 34400 38300
2020-06-02 04:45 24.71 38300 (2015) 339 (2012) 14000 339 590 1390 10400 26200 34400 38300
2020-06-02 04:30 21300 38300 (2015) 339 (2012) 14000 339 590 1390 10400 26200 34400 38300
2020-06-02 03:45 24.74 38300 (2015) 339 (2012) 14000 339 590 1390 10400 26200 34400 38300
2020-06-02 03:30 21100 38300 (2015) 339 (2012) 14000 339 590 1390 10400 26200 34400 38300
2020-06-02 02:45 24.76 38300 (2015) 339 (2012) 14000 339 590 1390 10400 26200 34400 38300
2020-06-02 02:30 21400 38300 (2015) 339 (2012) 14000 339 590 1390 10400 26200 34400 38300
2020-06-02 01:45 24.78 38300 (2015) 339 (2012) 14000 339 590 1390 10400 26200 34400 38300
2020-06-02 01:30 21600 38300 (2015) 339 (2012) 14000 339 590 1390 10400 26200 34400 38300
2020-06-02 00:45 24.80 38300 (2015) 339 (2012) 14000 339 590 1390 10400 26200 34400 38300
2020-06-02 00:30 21800 38300 (2015) 339 (2012) 14000 339 590 1390 10400 26200 34400 38300
2020-06-01 23:45 24.82 42300 (2019) 139 (2012) 14800 139 829 1790 9680 28200 38900 42300
2020-06-01 23:30 22000 42300 (2019) 139 (2012) 14800 139 829 1790 9680 28200 38900 42300
2020-06-01 22:45 24.83 42300 (2019) 139 (2012) 14800 139 829 1790 9680 28200 38900 42300
2020-06-01 22:30 22400 42300 (2019) 139 (2012) 14800 139 829 1790 9680 28200 38900 42300
2020-06-01 21:45 24.86 42300 (2019) 139 (2012) 14800 139 829 1790 9680 28200 38900 42300
2020-06-01 21:30 22700 42300 (2019) 139 (2012) 14800 139 829 1790 9680 28200 38900 42300
2020-06-01 20:45 24.84 42300 (2019) 139 (2012) 14800 139 829 1790 9680 28200 38900 42300
2020-06-01 20:30 22800 42300 (2019) 139 (2012) 14800 139 829 1790 9680 28200 38900 42300
2020-06-01 19:45 24.86 42300 (2019) 139 (2012) 14800 139 829 1790 9680 28200 38900 42300
2020-06-01 19:30 22800 42300 (2019) 139 (2012) 14800 139 829 1790 9680 28200 38900 42300
2020-06-01 18:45 24.85 42300 (2019) 139 (2012) 14800 139 829 1790 9680 28200 38900 42300
2020-06-01 18:30 27800 42300 (2019) 139 (2012) 14800 139 829 1790 9680 28200 38900 42300
2020-06-01 17:45 24.86 42300 (2019) 139 (2012) 14800 139 829 1790 9680 28200 38900 42300
2020-06-01 17:30 28100 42300 (2019) 139 (2012) 14800 139 829 1790 9680 28200 38900 42300
2020-06-01 16:45 24.86 42300 (2019) 139 (2012) 14800 139 829 1790 9680 28200 38900 42300
2020-06-01 16:30 28000 42300 (2019) 139 (2012) 14800 139 829 1790 9680 28200 38900 42300
2020-06-01 15:45 24.87 42300 (2019) 139 (2012) 14800 139 829 1790 9680 28200 38900 42300
2020-06-01 15:30 28400 42300 (2019) 139 (2012) 14800 139 829 1790 9680 28200 38900 42300
2020-06-01 14:45 24.85 42300 (2019) 139 (2012) 14800 139 829 1790 9680 28200 38900 42300
2020-06-01 14:30 28200 42300 (2019) 139 (2012) 14800 139 829 1790 9680 28200 38900 42300
2020-06-01 13:45 24.86 42300 (2019) 139 (2012) 14800 139 829 1790 9680 28200 38900 42300
2020-06-01 13:30 27900 42300 (2019) 139 (2012) 14800 139 829 1790 9680 28200 38900 42300
2020-06-01 12:45 24.82 42300 (2019) 139 (2012) 14800 139 829 1790 9680 28200 38900 42300
2020-06-01 12:30 27900 42300 (2019) 139 (2012) 14800 139 829 1790 9680 28200 38900 42300
2020-06-01 11:45 24.80 42300 (2019) 139 (2012) 14800 139 829 1790 9680 28200 38900 42300
2020-06-01 10:45 24.77 42300 (2019) 139 (2012) 14800 139 829 1790 9680 28200 38900 42300
2020-06-01 10:30 28100 42300 (2019) 139 (2012) 14800 139 829 1790 9680 28200 38900 42300
2020-06-01 09:45 24.73 42300 (2019) 139 (2012) 14800 139 829 1790 9680 28200 38900 42300
2020-06-01 09:30 28500 42300 (2019) 139 (2012) 14800 139 829 1790 9680 28200 38900 42300
2020-06-01 08:45 24.71 42300 (2019) 139 (2012) 14800 139 829 1790 9680 28200 38900 42300
2020-06-01 08:30 28500 42300 (2019) 139 (2012) 14800 139 829 1790 9680 28200 38900 42300
2020-06-01 07:45 24.70 42300 (2019) 139 (2012) 14800 139 829 1790 9680 28200 38900 42300
2020-06-01 07:30 28100 42300 (2019) 139 (2012) 14800 139 829 1790 9680 28200 38900 42300
2020-06-01 06:45 24.65 42300 (2019) 139 (2012) 14800 139 829 1790 9680 28200 38900 42300
2020-06-01 06:30 28800 42300 (2019) 139 (2012) 14800 139 829 1790 9680 28200 38900 42300
2020-06-01 05:45 24.60 42300 (2019) 139 (2012) 14800 139 829 1790 9680 28200 38900 42300
2020-06-01 05:30 28600 42300 (2019) 139 (2012) 14800 139 829 1790 9680 28200 38900 42300
2020-06-01 04:45 24.57 42300 (2019) 139 (2012) 14800 139 829 1790 9680 28200 38900 42300
2020-06-01 04:30 28300 42300 (2019) 139 (2012) 14800 139 829 1790 9680 28200 38900 42300
2020-06-01 03:45 24.53 42300 (2019) 139 (2012) 14800 139 829 1790 9680 28200 38900 42300
2020-06-01 03:30 28300 42300 (2019) 139 (2012) 14800 139 829 1790 9680 28200 38900 42300
2020-06-01 02:45 24.48 42300 (2019) 139 (2012) 14800 139 829 1790 9680 28200 38900 42300
2020-06-01 02:30 28400 42300 (2019) 139 (2012) 14800 139 829 1790 9680 28200 38900 42300
2020-06-01 01:45 24.44 42300 (2019) 139 (2012) 14800 139 829 1790 9680 28200 38900 42300
2020-06-01 01:30 28400 42300 (2019) 139 (2012) 14800 139 829 1790 9680 28200 38900 42300
2020-06-01 00:45 24.38 42300 (2019) 139 (2012) 14800 139 829 1790 9680 28200 38900 42300
2020-06-01 00:30 28000 42300 (2019) 139 (2012) 14800 139 829 1790 9680 28200 38900 42300
2020-05-31 23:45 24.32 49800 (2019) 88 (2012) 15300 88 839 2070 6060 27600 38600 49800
2020-05-31 23:30 28100 49800 (2019) 88 (2012) 15300 88 839 2070 6060 27600 38600 49800
2020-05-31 22:45 24.27 49800 (2019) 88 (2012) 15300 88 839 2070 6060 27600 38600 49800
2020-05-31 22:30 27800 49800 (2019) 88 (2012) 15300 88 839 2070 6060 27600 38600 49800
2020-05-31 21:45 24.20 49800 (2019) 88 (2012) 15300 88 839 2070 6060 27600 38600 49800
2020-05-31 21:30 27900 49800 (2019) 88 (2012) 15300 88 839 2070 6060 27600 38600 49800
2020-05-31 20:45 24.15 49800 (2019) 88 (2012) 15300 88 839 2070 6060 27600 38600 49800
2020-05-31 20:30 27500 49800 (2019) 88 (2012) 15300 88 839 2070 6060 27600 38600 49800
2020-05-31 19:45 24.10 49800 (2019) 88 (2012) 15300 88 839 2070 6060 27600 38600 49800
2020-05-31 19:30 27600 49800 (2019) 88 (2012) 15300 88 839 2070 6060 27600 38600 49800
2020-05-31 18:45 24.05 49800 (2019) 88 (2012) 15300 88 839 2070 6060 27600 38600 49800
2020-05-31 18:30 27000 49800 (2019) 88 (2012) 15300 88 839 2070 6060 27600 38600 49800
2020-05-31 17:45 24.01 49800 (2019) 88 (2012) 15300 88 839 2070 6060 27600 38600 49800
2020-05-31 17:30 27000 49800 (2019) 88 (2012) 15300 88 839 2070 6060 27600 38600 49800
2020-05-31 16:45 23.95 49800 (2019) 88 (2012) 15300 88 839 2070 6060 27600 38600 49800
2020-05-31 16:30 26900 49800 (2019) 88 (2012) 15300 88 839 2070 6060 27600 38600 49800
2020-05-31 15:45 23.92 49800 (2019) 88 (2012) 15300 88 839 2070 6060 27600 38600 49800
2020-05-31 15:30 26700 49800 (2019) 88 (2012) 15300 88 839 2070 6060 27600 38600 49800
2020-05-31 14:45 23.85 49800 (2019) 88 (2012) 15300 88 839 2070 6060 27600 38600 49800
2020-05-31 14:30 26600 49800 (2019) 88 (2012) 15300 88 839 2070 6060 27600 38600 49800
2020-05-31 13:45 23.81 49800 (2019) 88 (2012) 15300 88 839 2070 6060 27600 38600 49800
2020-05-31 13:30 26600 49800 (2019) 88 (2012) 15300 88 839 2070 6060 27600 38600 49800
2020-05-31 12:45 23.73 49800 (2019) 88 (2012) 15300 88 839 2070 6060 27600 38600 49800
2020-05-31 12:30 26600 49800 (2019) 88 (2012) 15300 88 839 2070 6060 27600 38600 49800
2020-05-31 11:45 23.69 49800 (2019) 88 (2012) 15300 88 839 2070 6060 27600 38600 49800
2020-05-31 11:30 26200 49800 (2019) 88 (2012) 15300 88 839 2070 6060 27600 38600 49800
2020-05-31 10:45 23.65 49800 (2019) 88 (2012) 15300 88 839 2070 6060 27600 38600 49800
2020-05-31 10:30 26000 49800 (2019) 88 (2012) 15300 88 839 2070 6060 27600 38600 49800
2020-05-31 09:45 23.59 49800 (2019) 88 (2012) 15300 88 839 2070 6060 27600 38600 49800
2020-05-31 09:30 25800 49800 (2019) 88 (2012) 15300 88 839 2070 6060 27600 38600 49800
2020-05-31 08:45 23.55 49800 (2019) 88 (2012) 15300 88 839 2070 6060 27600 38600 49800
2020-05-31 08:30 25800 49800 (2019) 88 (2012) 15300 88 839 2070 6060 27600 38600 49800
2020-05-31 07:45 23.52 49800 (2019) 88 (2012) 15300 88 839 2070 6060 27600 38600 49800
2020-05-31 07:30 25700 49800 (2019) 88 (2012) 15300 88 839 2070 6060 27600 38600 49800
2020-05-31 06:45 23.48 49800 (2019) 88 (2012) 15300 88 839 2070 6060 27600 38600 49800
2020-05-31 06:30 26100 49800 (2019) 88 (2012) 15300 88 839 2070 6060 27600 38600 49800
2020-05-31 05:45 23.43 49800 (2019) 88 (2012) 15300 88 839 2070 6060 27600 38600 49800
2020-05-31 05:30 25500 49800 (2019) 88 (2012) 15300 88 839 2070 6060 27600 38600 49800
2020-05-31 04:45 23.37 49800 (2019) 88 (2012) 15300 88 839 2070 6060 27600 38600 49800
2020-05-31 04:30 25600 49800 (2019) 88 (2012) 15300 88 839 2070 6060 27600 38600 49800
2020-05-31 03:45 23.34 49800 (2019) 88 (2012) 15300 88 839 2070 6060 27600 38600 49800
2020-05-31 03:30 25000 49800 (2019) 88 (2012) 15300 88 839 2070 6060 27600 38600 49800
2020-05-31 02:45 23.30 49800 (2019) 88 (2012) 15300 88 839 2070 6060 27600 38600 49800
2020-05-31 02:30 24400 49800 (2019) 88 (2012) 15300 88 839 2070 6060 27600 38600 49800
2020-05-31 01:45 23.26 49800 (2019) 88 (2012) 15300 88 839 2070 6060 27600 38600 49800
2020-05-31 01:30 24400 49800 (2019) 88 (2012) 15300 88 839 2070 6060 27600 38600 49800
2020-05-31 00:45 23.19 49800 (2019) 88 (2012) 15300 88 839 2070 6060 27600 38600 49800
2020-05-31 00:30 24400 49800 (2019) 88 (2012) 15300 88 839 2070 6060 27600 38600 49800
2020-05-30 23:45 23.17 55300 (2019) 144 (2012) 15300 144 971 3080 5870 27300 37700 55300
2020-05-30 23:30 24400 55300 (2019) 144 (2012) 15300 144 971 3080 5870 27300 37700 55300
2020-05-30 22:45 23.12 55300 (2019) 144 (2012) 15300 144 971 3080 5870 27300 37700 55300
2020-05-30 22:30 24000 55300 (2019) 144 (2012) 15300 144 971 3080 5870 27300 37700 55300
2020-05-30 21:45 23.07 55300 (2019) 144 (2012) 15300 144 971 3080 5870 27300 37700 55300
2020-05-30 21:30 23500 55300 (2019) 144 (2012) 15300 144 971 3080 5870 27300 37700 55300
2020-05-30 20:45 23.05 55300 (2019) 144 (2012) 15300 144 971 3080 5870 27300 37700 55300
2020-05-30 20:30 23500 55300 (2019) 144 (2012) 15300 144 971 3080 5870 27300 37700 55300
2020-05-30 19:45 23.01 55300 (2019) 144 (2012) 15300 144 971 3080 5870 27300 37700 55300
2020-05-30 19:30 24000 55300 (2019) 144 (2012) 15300 144 971 3080 5870 27300 37700 55300
2020-05-30 18:45 22.97 55300 (2019) 144 (2012) 15300 144 971 3080 5870 27300 37700 55300
2020-05-30 18:30 23300 55300 (2019) 144 (2012) 15300 144 971 3080 5870 27300 37700 55300
2020-05-30 17:45 22.95 55300 (2019) 144 (2012) 15300 144 971 3080 5870 27300 37700 55300
2020-05-30 17:30 23400 55300 (2019) 144 (2012) 15300 144 971 3080 5870 27300 37700 55300
2020-05-30 16:45 22.92 55300 (2019) 144 (2012) 15300 144 971 3080 5870 27300 37700 55300
2020-05-30 16:30 23400 55300 (2019) 144 (2012) 15300 144 971 3080 5870 27300 37700 55300
2020-05-30 15:45 22.88 55300 (2019) 144 (2012) 15300 144 971 3080 5870 27300 37700 55300
2020-05-30 15:30 23400 55300 (2019) 144 (2012) 15300 144 971 3080 5870 27300 37700 55300
2020-05-30 14:45 22.85 55300 (2019) 144 (2012) 15300 144 971 3080 5870 27300 37700 55300
2020-05-30 14:30 22700 55300 (2019) 144 (2012) 15300 144 971 3080 5870 27300 37700 55300
2020-05-30 13:45 22.82 55300 (2019) 144 (2012) 15300 144 971 3080 5870 27300 37700 55300
2020-05-30 13:30 22400 55300 (2019) 144 (2012) 15300 144 971 3080 5870 27300 37700 55300
2020-05-30 12:45 22.79 55300 (2019) 144 (2012) 15300 144 971 3080 5870 27300 37700 55300
2020-05-30 12:30 22800 55300 (2019) 144 (2012) 15300 144 971 3080 5870 27300 37700 55300
2020-05-30 11:45 22.72 55300 (2019) 144 (2012) 15300 144 971 3080 5870 27300 37700 55300
2020-05-30 11:30 22300 55300 (2019) 144 (2012) 15300 144 971 3080 5870 27300 37700 55300
2020-05-30 10:45 22.71 55300 (2019) 144 (2012) 15300 144 971 3080 5870 27300 37700 55300
2020-05-30 10:30 22300 55300 (2019) 144 (2012) 15300 144 971 3080 5870 27300 37700 55300
2020-05-30 09:45 22.67